[[{"header":{"parameterUnit":"m.s-1","parameterCategory":1,"la1":30.6,"la2":28.766,"lo1":-90.7593,"lo2":-88.6598,"dy":0.0162,"dx":0.0183,"nx":116,"ny":114,"refTime":"2023-05-30T06:00:00:Z","depth":0,"parameterNumber":2,"parameterNumberName":"U-component_of_WINDS"},"data":[0.0,0.0,0.0,0.0,0.0,0.0,0.0,0.0,0.0,0.0,0.0,0.0,0.0,0.0,0.0,0.0,0.0,0.0,0.0,0.0,0.0,0.0,0.0,0.0,0.0,0.0,0.0,0.0,0.0,0.0,0.0,0.0,0.0,0.0,0.0,0.0,0.0,0.0,0.0,0.0,0.0,0.0,0.0,0.0,0.0,0.0,0.0,0.0,0.0,0.0,0.0,0.0,0.0,0.0,0.0,0.0,0.0,0.0,0.0,0.0,0.0,0.0,0.0,0.0,0.0,0.0,0.0,0.0,0.0,0.0,0.0,0.0,0.0,0.0,0.0,0.0,0.0,0.0,0.0,0.0,0.0,0.0,0.0,0.0,0.0,0.0,0.0,0.0,0.0,0.0,0.0,0.0,0.0,0.0,0.0,0.0,0.0,0.0,0.0,0.0,0.0,0.0,0.0,0.0,0.0,0.0,0.0,0.0,0.0,0.0,0.0,0.0,0.0,0.0,0.0,0.0,0.0,0.0,0.0,0.0,0.0,0.0,0.0,0.0,0.0,0.0,0.0,0.0,0.0,0.0,0.0,0.0,0.0,0.0,0.0,0.0,0.0,0.0,0.0,0.0,0.0,0.0,0.0,0.0,0.0,0.0,0.0,0.0,0.0,0.0,0.0,0.0,0.0,0.0,0.0,0.0,0.0,0.0,0.0,0.0,0.0,0.0,0.0,0.0,0.0,0.0,0.0,0.0,0.0,0.0,0.0,0.0,0.0,0.0,0.0,0.0,0.0,0.0,0.0,0.0,0.0,0.0,0.0,0.0,0.0,0.0,0.0,0.0,0.0,0.0,0.0,0.0,0.0,0.0,0.0,0.0,0.0,0.0,0.0,0.0,0.0,0.0,0.0,0.0,0.0,0.0,0.0,0.0,0.0,0.0,0.0,0.0,0.0,0.0,0.0,0.0,0.0,0.0,0.0,0.0,0.0,0.0,0.0,0.0,0.0,0.0,0.0,0.0,0.0,0.0,0.0,0.0,0.0,0.0,0.0,0.0,0.0,0.0,0.0,0.0,0.0,0.0,0.0,0.0,0.0,0.0,0.0,0.0,0.0,0.0,0.0,0.0,0.0,0.0,0.0,0.0,0.0,0.0,0.0,0.0,0.0,0.0,0.0,0.0,0.0,0.0,0.0,0.0,0.0,0.0,0.0,0.0,0.0,0.0,0.0,0.0,0.0,0.0,0.0,0.0,0.0,0.0,0.0,0.0,0.0,0.0,0.0,0.0,0.0,0.0,0.0,0.0,0.0,0.0,0.0,0.0,0.0,0.0,0.0,0.0,0.0,0.0,0.0,0.0,0.0,0.0,0.0,0.0,0.0,0.0,0.0,0.0,0.0,0.0,0.0,0.0,0.0,0.0,0.0,0.0,0.0,0.0,0.0,0.0,0.0,0.0,0.0,0.0,0.0,0.0,0.0,0.0,0.0,0.0,0.0,0.0,0.0,0.0,0.0,0.0,0.0,0.0,0.0,0.0,0.0,0.0,0.0,0.0,0.0,0.0,0.0,0.0,0.0,0.0,0.0,0.0,0.0,0.0,0.0,0.0,0.0,0.0,0.0,0.0,0.0,0.0,0.0,0.0,0.0,0.0,0.0,0.0,0.0,0.0,0.0,0.0,0.0,0.0,0.0,0.0,0.0,0.0,0.0,0.0,0.0,0.0,0.0,0.0,0.0,0.0,0.0,0.0,0.0,0.0,0.0,0.0,0.0,0.0,0.0,0.0,0.0,0.0,0.0,0.0,0.0,0.0,0.0,0.0,0.0,0.0,0.0,0.0,0.0,0.0,0.0,0.0,0.0,0.0,0.0,0.0,0.0,0.0,0.0,0.0,0.0,0.0,0.0,0.0,0.0,0.0,0.0,0.0,0.0,0.0,0.0,0.0,0.0,0.0,0.0,0.0,0.0,0.0,0.0,0.0,0.0,0.0,0.0,0.0,0.0,0.0,0.0,0.0,0.0,0.0,0.0,0.0,0.0,0.0,0.0,0.0,0.0,0.0,0.0,0.0,0.0,0.0,0.0,0.0,0.0,0.0,0.0,0.0,0.0,0.0,0.0,0.0,0.0,0.0,0.0,0.0,0.0,0.0,0.0,0.0,0.0,0.0,0.0,0.0,0.0,0.0,0.0,0.0,0.0,0.0,0.0,0.0,0.0,0.0,0.0,0.0,0.0,0.0,0.0,0.0,0.0,0.0,0.0,0.0,0.0,0.0,0.0,0.0,0.0,0.0,0.0,0.0,0.0,0.0,0.0,0.0,0.0,0.0,0.0,0.0,0.0,0.0,0.0,0.0,0.0,0.0,0.0,0.0,0.0,0.0,0.0,0.0,0.0,0.0,0.0,0.0,0.0,0.0,0.0,0.0,0.0,0.0,0.0,0.0,0.0,0.0,0.0,0.0,0.0,0.0,0.0,0.0,0.0,0.0,0.0,0.0,0.0,0.0,0.0,0.0,0.0,0.0,0.0,0.0,0.0,0.0,0.0,0.0,0.0,0.0,0.0,0.0,0.0,0.0,0.0,0.0,0.0,0.0,0.0,0.0,0.0,0.0,0.0,0.0,0.0,0.0,0.0,0.0,0.0,0.0,0.0,0.0,0.0,0.0,0.0,0.0,0.0,0.0,0.0,0.0,0.0,0.0,0.0,0.0,0.0,0.0,0.0,0.0,0.0,0.0,0.0,0.0,0.0,0.0,0.0,0.0,0.0,0.0,0.0,0.0,0.0,0.0,0.0,0.0,0.0,0.0,0.0,0.0,0.0,0.0,0.0,0.0,0.0,0.0,0.0,0.0,0.0,0.0,0.0,0.0,0.0,0.0,0.0,0.0,0.0,0.0,0.0,0.0,0.0,0.0,0.0,0.0,0.0,0.0,0.0,0.0,0.0,0.0,0.0,0.0,0.0,0.0,0.0,0.0,0.0,0.0,0.0,0.0,0.0,0.0,0.0,0.0,0.0,0.0,0.0,0.0,0.0,0.0,0.0,0.0,0.0,0.0,0.0,0.0,0.0,0.0,0.0,0.0,0.0,0.0,0.0,0.0,0.0,0.0,0.0,0.0,0.0,0.0,0.0,0.0,0.0,0.0,0.0,0.0,0.0,0.0,0.0,0.0,0.0,0.0,0.0,0.0,0.0,0.0,0.0,0.0,0.0,0.0,0.0,0.0,0.0,0.0,0.0,0.0,0.0,0.0,0.0,0.0,0.0,0.0,0.0,0.0,0.0,0.0,0.0,0.0,0.0,0.0,0.0,0.0,0.0,0.0,0.0,0.0,0.0,0.0,0.0,0.0,0.0,0.0,0.0,0.0,0.0,0.0,0.0,0.0,0.0,0.0,0.0,0.0,0.0,0.0,0.0,0.0,0.0,0.0,0.0,0.0,0.0,0.0,0.0,0.0,0.0,0.0,0.0,0.0,0.0,0.0,0.0,0.0,0.0,0.0,0.0,0.0,0.0,0.0,0.0,0.0,0.0,0.0,0.0,0.0,0.0,0.0,0.0,0.0,0.0,0.0,0.0,0.0,0.0,0.0,0.0,0.0,0.0,0.0,0.0,0.0,0.0,0.0,0.0,0.0,0.0,0.0,0.0,0.0,0.0,0.0,0.0,0.0,0.0,0.0,0.0,0.0,0.0,0.0,0.0,0.0,0.0,0.0,0.0,0.0,0.0,0.0,0.0,0.0,0.0,0.0,0.0,0.0,0.0,0.0,0.0,0.0,0.0,0.0,0.0,0.0,0.0,0.0,0.0,0.0,0.0,0.0,0.0,0.0,0.0,0.0,0.0,0.0,0.0,0.0,0.0,0.0,0.0,0.0,0.0,0.0,0.0,0.0,0.0,0.0,0.0,0.0,0.0,0.0,0.0,0.0,0.0,0.0,0.0,0.0,0.0,0.0,0.0,0.0,0.0,0.0,0.0,0.0,0.0,0.0,0.0,0.0,0.0,0.0,0.0,0.0,0.0,0.0,0.0,0.0,0.0,0.0,0.0,0.0,0.0,0.0,0.0,0.0,0.0,0.0,0.0,0.0,0.0,0.0,0.0,0.0,0.0,0.0,0.0,0.0,0.0,0.0,0.0,0.0,0.0,0.0,0.0,0.0,0.0,0.0,0.0,0.0,0.0,0.0,0.0,0.0,0.0,0.0,0.0,0.0,0.0,0.0,0.0,0.0,0.0,0.0,0.0,0.0,0.0,0.0,0.0,0.0,0.0,0.0,0.0,0.0,0.0,0.0,0.0,0.0,0.0,0.0,0.0,0.0,0.0,0.0,0.0,0.0,0.0,0.0,0.0,0.0,0.0,0.0,0.0,0.0,0.0,0.0,0.0,0.0,0.0,0.0,0.0,0.0,0.0,0.0,0.0,0.0,0.0,0.0,0.0,0.0,0.0,0.0,0.0,0.0,0.0,0.0,0.0,0.0,0.0,0.0,0.0,0.0,0.0,0.0,0.0,0.0,0.0,0.0,0.0,0.0,0.0,0.0,0.0,0.0,0.0,0.0,0.0,0.0,0.0,0.0,0.0,0.0,0.0,0.0,0.0,0.0,0.0,0.0,0.0,0.0,0.0,0.0,0.0,0.0,0.0,0.0,0.0,0.0,0.0,0.0,0.0,0.0,0.0,0.0,0.0,0.0,0.0,0.0,0.0,0.0,0.0,0.0,0.0,0.0,0.0,0.0,0.0,0.0,0.0,0.0,0.0,0.0,0.0,0.0,0.0,0.0,0.0,0.0,0.0,0.0,0.0,0.0,0.0,0.0,0.0,0.0,0.0,0.0,0.0,0.0,0.0,0.0,0.0,0.0,0.0,0.0,0.0,0.0,0.0,0.0,0.0,0.0,0.0,0.0,0.0,0.0,0.0,0.0,0.0,0.0,0.0,0.0,0.0,0.0,0.0,0.0,0.0,0.0,0.0,0.0,0.0,0.0,0.0,0.0,0.0,0.0,0.0,0.0,0.0,0.0,0.0,0.0,0.0,0.0,0.0,0.0,0.0,0.0,0.0,0.0,0.0,0.0,0.0,0.0,0.0,0.0,0.0,0.0,0.0,0.0,0.0,0.0,0.0,0.0,0.0,0.0,0.0,0.0,0.0,0.0,0.0,0.0,0.0,0.0,0.0,0.0,0.0,0.0,0.0,0.0,0.0,0.0,0.0,0.0,0.0,0.0,0.0,0.0,0.0,0.0,0.0,0.0,0.0,0.0,0.0,0.0,0.0,0.0,0.0,0.0,0.0,0.0,0.0,0.0,0.0,0.0,0.0,0.0,0.0,0.0,0.0,0.0,0.0,0.0,0.0,0.0,0.0,0.0,0.0,0.0,0.0,0.0,0.0,0.0,0.0,0.0,0.0,0.0,0.0,0.0,0.0,0.0,0.0,0.0,0.0,0.0,0.0,0.0,0.0,0.0,0.0,0.0,0.0,0.0,0.0,0.0,0.0,0.0,0.0,0.0,0.0,0.0,0.0,0.0,0.0,0.0,0.0,0.0,0.0,0.0,0.0,0.0,0.0,0.0,0.0,0.0,0.0,0.0,0.0,0.0,0.0,0.0,0.0,0.0,0.0,0.0,0.0,0.0,0.0,0.0,0.0,0.0,0.0,0.0,0.0,0.0,0.0,0.0,0.0,0.0,0.0,0.0,0.0,0.0,0.0,0.0,0.0,0.0,0.0,0.0,0.0,0.0,0.0,0.0,0.0,0.0,0.0,0.0,0.0,0.0,0.0,0.0,0.0,0.0,0.0,0.0,0.0,0.0,0.0,0.0,0.0,0.0,0.0,0.0,0.0,0.0,0.0,0.0,0.0,0.0,0.0,0.0,0.0,0.0,0.0,0.0,0.0,0.0,0.0,0.0,0.0,0.0,0.0,0.0,0.0,0.0,0.0,0.0,0.0,0.0,0.0,0.0,0.0,0.0,0.0,0.0,0.0,0.0,0.0,0.0,0.0,0.0,0.0,0.0,0.0,0.0,0.0,0.0,0.0,0.0,0.0,0.0,0.0,0.0,0.0,0.0,0.0,0.0,0.0,0.0,0.0,0.0,0.0,0.0,0.0,0.0,0.0,0.0,0.0,0.0,0.0,0.0,1.0844,1.14,0.0,0.0,0.0,0.0,0.0,0.0,0.0,0.0,0.0,0.0,0.0,0.0,0.0,0.0,0.0,0.0,0.0,0.0,0.0,0.0,0.0,0.0,0.0,0.0,0.0,0.0,0.0,0.0,0.0,0.0,0.0,0.0,0.0,0.0,0.0,0.0,0.0,0.0,0.7014,0.7672,0.7577,0.6464,0.6175,0.6593,0.0,0.0,0.0,0.0,0.0,0.0,0.0,0.0,0.0,0.0,0.0,0.0,0.0,0.0,0.0,0.0,0.0,0.0,0.0,0.0,0.0,0.0,0.0,0.0,0.0,0.0,0.0,0.0,0.0,0.0,0.0,0.0,0.0,0.0,0.0,0.0,0.0,0.0,0.0,0.0,0.0,0.0,0.0,0.0,0.0,0.0,0.0,0.0,0.0,0.0,0.0,0.0,0.0,0.0,0.0,0.0,0.0,0.0,0.0,0.0,0.0,0.0,0.0,0.0,0.0,0.0,0.0,0.0,0.0,0.0,0.9973,1.0485,0.0,0.0,0.0,0.0,0.0,0.0,0.0,0.0,0.0,0.0,0.0,0.0,0.0,0.0,0.0,0.0,0.0,0.0,0.0,0.0,0.0,0.0,0.0,0.0,0.2398,0.3251,0.33,0.3624,0.0,0.0,0.0,0.0,0.0,0.0,0.0,0.6061,0.5706,0.5054,0.6624,0.7415,0.7433,0.7406,0.7336,0.7211,0.7423,0.0,0.0,0.0,0.0,0.0,0.0,0.0,0.0,0.0,0.0,0.0,0.0,0.0,0.0,0.0,0.0,0.0,0.0,0.0,0.0,0.0,0.0,0.0,0.0,0.0,0.0,0.0,0.0,0.0,0.0,0.0,0.0,0.0,0.0,0.0,0.0,0.0,0.0,0.0,0.0,0.0,0.0,0.0,0.0,0.0,0.0,0.0,0.0,0.0,0.0,0.0,0.0,0.0,0.0,0.0,0.0,0.0,0.0,0.0,0.0,0.0,0.0,0.0,0.7988,0.7988,0.7988,0.7988,0.9093,1.0852,0.8871,0.985,1.2649,1.0116,0.0,0.0,0.0,0.0,0.0,0.0,0.0,0.0,0.0,0.0,0.0,0.0,0.0,0.0,0.0,0.0,0.0,0.0,0.0,0.0,0.0,0.2522,0.2322,0.2223,0.3026,0.3501,0.0,0.0,0.0,0.0,0.0,0.0,0.5002,0.5785,0.6122,0.6009,0.6942,0.7455,0.7567,0.7457,0.7336,0.7201,0.718,0.7156,0.7111,0.0,0.0,0.0,0.0,0.0,0.0,0.0,0.0,0.0,0.0,0.0,0.0,0.0,0.0,0.0,0.0,0.0,0.0,0.0,0.0,0.0,0.0,0.0,0.0,0.0,0.0,0.0,0.0,0.0,0.0,0.0,0.0,0.0,0.0,0.0,0.0,0.0,0.0,0.0,0.0,0.0,0.7988,0.7988,0.0,0.0,0.0,0.0,0.0,0.0,0.0,0.0,0.0,0.0,0.0,0.0,0.0,0.7572,0.7646,0.7892,0.7988,0.7988,0.7988,0.7988,0.7988,0.7988,0.8162,0.8457,0.8137,0.0,1.4908,1.2697,0.0,0.0,0.0,0.0,0.0,0.0,0.0,0.0,0.0,0.0,0.0,0.0,0.0,0.0,0.0,0.0,0.0,0.0,0.0,0.0,0.0,0.302,0.3409,0.3972,0.4833,0.5574,0.6094,0.5916,0.0,0.0,0.0,0.5949,0.6475,0.6818,0.6941,0.6864,0.677,0.7037,0.7597,0.7533,0.7486,0.7426,0.7389,0.7305,0.7139,0.705,0.0,0.0,0.0,0.0,0.0,0.0,0.0,0.0,0.0,0.0,0.0,0.0,0.0,0.0,0.0,0.0,0.0,0.0,0.0,0.0,0.0,0.0,0.0,0.0,0.0,0.0,0.0,0.0,0.0,0.0,0.0,0.0,0.0,0.0,0.0,0.0,0.0,0.0,0.0,0.7988,0.7939,0.7793,0.7768,0.7668,0.0,0.0,0.0,0.0,0.0,0.0,0.0,0.0,0.0,0.7416,0.7543,0.7671,0.7817,0.7939,0.7988,0.7988,0.7988,0.7988,0.7988,0.7988,0.8333,0.8871,0.8432,1.0165,1.3138,1.0994,1.0538,1.1228,0.0,0.0,0.0,0.0,1.1682,1.1707,0.0,0.0,0.0,0.0,0.0,0.0,0.0,0.0,0.0,0.0,0.0,0.0,0.2882,0.3333,0.3952,0.4753,0.5569,0.6265,0.677,0.6155,0.0,0.0,0.5616,0.5617,0.6591,0.7029,0.7346,0.7544,0.6884,0.6924,0.7655,0.7655,0.7675,0.7712,0.7712,0.755,0.7308,0.7238,0.7097,0.6888,0.0,0.0,0.0,0.0,0.0,0.0,0.0,0.0,0.0,0.0,0.0,0.0,0.0,0.0,0.0,0.0,0.0,0.0,0.0,0.0,0.0,0.0,0.0,0.0,0.0,0.0,0.0,0.0,0.0,0.0,0.0,0.0,0.0,0.0,0.0,0.0,0.0,0.7988,0.7917,0.7721,0.7693,0.7593,0.0,0.0,0.0,0.0,0.0,0.0,0.7288,0.7291,0.7416,0.7693,0.7693,0.7793,0.7988,0.7988,0.7988,0.7988,0.7988,0.7988,0.7988,0.7988,0.8432,0.9167,0.8552,0.9242,1.0685,0.9509,0.9562,1.0429,1.069,1.0592,1.033,1.0592,1.069,1.069,0.0,0.0,0.0,0.0,0.0,0.0,0.0,0.0,0.0,0.0,0.0,0.3158,0.3101,0.3116,0.3019,0.2774,0.3664,0.3733,0.2581,0.3099,0.31,0.2234,0.1966,0.2351,0.3419,0.5308,0.6831,0.796,0.7671,0.7621,0.7801,0.7801,0.7854,0.7993,0.7993,0.7837,0.755,0.7308,0.7188,0.7141,0.6694,0.0,0.0,0.0,0.0,0.0,0.0,0.0,0.0,0.0,0.0,0.0,0.0,0.0,0.0,0.0,0.0,0.0,0.0,0.0,0.0,0.0,0.0,0.0,0.0,0.0,0.0,0.0,0.0,0.0,0.0,0.0,0.0,0.0,0.0,0.0,0.0,0.0,0.0,0.7988,0.7992,0.0,0.0,0.0,0.0,0.7213,0.7213,0.7316,0.7572,0.7572,0.7693,0.7967,0.7992,0.7988,0.7988,0.7988,0.7988,0.7988,0.7988,0.7988,0.7988,0.7988,0.8038,0.8088,0.8038,0.8233,0.8676,1.0096,1.0563,1.044,1.071,1.0022,0.8924,0.9204,0.9307,0.9331,0.0,0.0,0.0,0.0,0.0,0.0,0.0,0.0,0.3205,0.3205,0.3171,0.3139,0.3093,0.4139,0.4886,0.4977,0.63,0.7015,0.6726,0.6225,0.6066,0.6331,0.5617,0.5708,0.6772,0.7418,0.7907,0.8268,0.8171,0.8052,0.7935,0.7935,0.7962,0.7988,0.7988,0.7956,0.7858,0.7757,0.761,0.7443,0.7272,0.7,0.0,0.0,0.0,0.0,0.0,0.0,0.0,0.0,0.0,0.0,0.0,0.0,0.0,0.0,0.0,0.0,0.0,0.0,0.0,0.0,0.0,0.0,0.0,0.0,0.0,0.0,0.0,0.0,0.0,0.0,0.0,0.0,0.0,0.0,0.0,0.0,0.0,0.7768,0.7743,0.0,0.7366,0.7494,0.7572,0.7469,0.7615,0.7764,0.7842,0.7867,0.7892,0.7988,0.7988,0.7988,0.7988,0.7988,0.7988,0.7988,0.7988,0.7988,0.8013,0.8187,0.8262,0.8258,0.8432,0.8581,0.8726,0.9468,0.9719,0.9645,0.9912,0.9743,0.9327,0.943,0.9455,0.948,0.0,0.0,0.0,0.0,0.0,0.0,0.0,0.0,0.3331,0.3682,0.3692,0.38,0.4142,0.5253,0.6059,0.6256,0.7596,0.8361,0.8205,0.7663,0.7501,0.7817,0.7421,0.7571,0.8372,0.8574,0.8675,0.8659,0.8581,0.8457,0.8258,0.8258,0.8258,0.8258,0.8258,0.8212,0.8137,0.8137,0.7988,0.7721,0.7646,0.7397,0.7061,0.0,0.0,0.0,0.0,0.0,0.0,0.0,0.0,0.0,0.0,0.0,0.0,0.0,0.0,0.0,0.0,0.0,0.0,0.0,0.0,0.0,0.0,0.0,0.0,0.0,0.0,0.0,0.0,0.0,0.0,0.0,0.0,0.0,0.0,0.8137,0.8038,0.7768,0.7746,0.7668,0.749,0.7643,0.7746,0.7746,0.7892,0.8037,0.8088,0.8091,0.8115,0.8162,0.8162,0.8162,0.8162,0.8162,0.8162,0.8162,0.8162,0.8213,0.8314,0.8487,0.8639,0.8747,0.8921,0.9013,0.9057,0.9239,0.9308,0.9356,0.9529,0.9603,0.9603,0.9603,0.9603,0.9603,0.0,0.0,0.0,0.0,0.0,0.0,0.0,0.3205,0.3581,0.4659,0.4807,0.5169,0.6195,0.6325,0.6323,0.6254,0.7167,0.7335,0.6369,0.6976,0.6964,0.6052,0.6832,0.7394,0.7664,0.8421,0.8952,0.9212,0.8928,0.88,0.88,0.88,0.88,0.88,0.88,0.8651,0.8407,0.8407,0.8258,0.7988,0.7721,0.7596,0.7572,0.0,0.0,0.0,0.0,0.0,0.0,0.0,0.0,0.0,0.0,0.0,0.0,0.0,0.0,0.0,0.0,0.0,0.0,0.0,0.0,0.0,0.0,0.0,0.0,0.0,0.0,0.0,0.0,0.0,0.0,0.0,0.0,0.0,0.8457,0.8407,0.8308,0.8038,0.802,0.8023,0.802,0.8027,0.8005,0.8005,0.8005,0.8094,0.8294,0.8304,0.8366,0.8505,0.8509,0.8509,0.8509,0.8509,0.8509,0.8509,0.8509,0.8636,0.8895,0.8924,0.9111,0.941,0.941,0.9472,0.9515,0.9515,0.9572,0.962,0.9607,0.9603,0.9603,0.9603,0.9603,0.9603,0.0,0.0,0.0,0.0,0.0,0.0,0.0,0.3456,0.3581,0.4659,0.4752,0.5118,0.6184,0.6897,0.7336,0.7422,0.8341,0.8852,0.8683,0.8865,0.886,0.8582,0.8799,0.8973,0.9048,0.9274,0.9327,0.9212,0.9133,0.8981,0.88,0.88,0.88,0.88,0.88,0.8751,0.8701,0.8701,0.8651,0.8531,0.8088,0.7768,0.7596,0.0,0.0,0.0,0.0,0.0,0.0,0.0,0.0,0.0,0.0,0.0,0.0,0.0,0.0,0.0,0.0,0.0,0.0,0.0,0.0,0.0,0.0,0.0,0.0,0.0,0.0,0.0,0.0,0.0,0.0,0.0,0.9034,0.9006,0.8726,0.8701,0.8602,0.8333,0.8413,0.8432,0.8233,0.8299,0.836,0.836,0.836,0.8381,0.8447,0.8451,0.8468,0.8505,0.8509,0.8509,0.8509,0.8509,0.8509,0.8509,0.8689,0.882,0.8924,0.9347,0.9616,0.9694,0.9903,0.998,1.0009,1.0009,1.0033,1.0015,0.9705,0.9603,0.9603,0.9603,0.9603,0.962,0.0,0.0,0.0,0.0,0.0,0.0,0.0,0.4358,0.4757,0.5832,0.6243,0.6834,0.7896,0.8497,0.8868,0.8936,0.9389,0.9685,0.9768,0.9653,0.9603,0.9603,0.9603,0.9603,0.9603,0.9603,0.9529,0.9356,0.9356,0.9282,0.9126,0.9126,0.9126,0.9126,0.9126,0.9076,0.8977,0.8977,0.8903,0.8775,0.8457,0.8237,0.8113,0.8113,0.7662,0.7033,0.7033,0.6279,0.5375,0.6157,0.0,0.0,0.0,0.0,0.0,0.0,0.0,0.0,0.0,0.0,0.0,0.0,0.0,0.0,0.0,0.0,0.0,0.0,0.0,0.0,0.0,0.0,0.0,0.0,0.9413,0.9461,0.9402,0.9226,0.9031,0.8827,0.8922,0.8932,0.8777,0.8829,0.8879,0.8879,0.8879,0.8907,0.8968,0.8971,0.8977,0.9044,0.9048,0.9048,0.9048,0.9048,0.9048,0.9044,0.9205,0.9365,0.9495,0.985,1.0067,1.0197,1.033,1.0369,1.0274,1.0274,1.0259,1.0192,0.0,0.0,0.0,0.0,0.9851,0.9864,0.0,0.0,0.0,0.0,0.0,0.0,0.0,0.5582,0.6429,0.7577,0.8365,0.9205,1.0285,1.0413,1.0413,1.0413,1.0191,1.0043,1.0043,0.9821,0.9702,0.9702,0.9702,0.9702,0.9702,0.9702,0.9702,0.9702,0.9702,0.9702,0.9702,0.9702,0.9702,0.9702,0.9702,0.9554,0.9286,0.9286,0.913,0.8899,0.8899,0.885,0.88,0.88,0.8049,0.703,0.703,0.6251,0.5247,0.5247,0.0,0.0,0.0,0.0,0.0,0.0,0.0,0.0,0.0,0.0,0.0,0.0,0.0,0.0,0.0,0.0,0.0,0.0,0.0,0.0,0.0,0.0,0.0,0.0,0.9773,0.9974,1.0162,0.9858,0.9561,0.9421,0.944,0.9455,0.9388,0.9418,0.9448,0.9467,0.9467,0.953,0.9638,0.9646,0.0,0.0,0.0,0.9789,0.9789,0.9789,0.9789,0.9789,0.9844,1.0009,1.0312,1.0339,1.0476,1.0692,1.0692,1.0603,1.0438,1.0438,1.0367,1.0243,1.0202,1.0186,1.0186,1.0186,1.0186,1.019,0.0,0.0,0.0,0.0,0.0,0.0,0.0,0.6179,0.6625,0.8336,0.8707,0.9205,1.0285,1.0413,1.0413,1.0413,1.0364,1.0314,1.0314,1.0265,1.024,1.024,1.024,1.024,1.024,1.024,1.024,1.024,1.024,1.024,1.024,1.024,1.024,1.024,1.024,1.0093,0.985,0.985,0.9698,0.9451,0.9451,0.9175,0.88,0.88,0.8648,0.8425,0.8425,0.8248,0.8024,0.8024,0.7447,0.6747,0.6747,0.5997,0.0,0.0,0.0,0.0,0.0,0.0,0.0,0.0,0.0,0.0,0.0,0.0,0.0,0.0,0.0,0.0,0.0,0.0,0.0,1.0027,0.9981,0.9974,1.0162,1.0205,1.0049,0.9538,0.9721,0.9731,0.9369,0.9567,0.9803,0.9957,0.9976,0.9963,1.001,1.0014,0.9941,0.9792,0.9789,0.9789,0.9789,0.9789,0.9789,0.9816,1.0064,0.0,1.0312,1.0527,1.0637,1.0692,1.0692,1.0672,1.0643,1.0643,1.0623,1.0589,1.03,1.0186,1.0186,1.0186,1.0186,1.0211,0.0,0.0,0.0,0.0,0.0,0.0,0.0,0.7649,0.8343,0.9287,0.9752,1.0199,1.0728,1.0801,1.0801,1.0801,1.0679,1.0531,1.0413,1.0413,1.0413,1.0413,1.0413,1.0413,1.0413,1.0413,1.0413,1.0413,1.0413,1.0413,1.0413,1.0413,1.0413,1.0413,1.0413,1.0339,1.0191,1.0191,1.0117,0.9994,0.985,0.9649,0.9398,0.9249,0.9126,0.9006,0.9006,0.8903,0.88,0.88,0.8446,0.7996,0.7996,0.7273,0.6296,0.0,0.0,0.0,0.0,0.0,0.0,0.0,0.0,0.0,0.0,0.0,0.0,0.0,0.0,0.992,1.0035,0.0,1.0137,1.041,1.0377,1.0383,1.0655,1.0773,1.0641,1.0149,1.0412,1.0512,1.0264,1.0408,1.0545,1.0655,1.0638,1.0638,1.0659,1.0659,1.0595,1.051,1.0428,1.0385,1.0385,1.0299,1.0253,1.0253,1.0421,1.05,1.05,1.0637,1.0692,1.0692,1.0692,1.0692,1.0692,1.0692,1.0692,1.0676,1.0524,1.0455,1.0455,1.0455,1.0455,1.0467,0.0,0.0,0.0,0.0,0.0,0.0,0.0,0.939,1.0212,1.0364,1.085,1.1194,1.1194,1.1194,1.1194,1.1194,1.11,1.0949,1.0728,1.0703,1.0703,1.0703,1.0609,1.056,1.056,1.056,1.056,1.056,1.056,1.056,1.056,1.056,1.056,1.056,1.056,1.0536,1.0487,1.0487,1.0462,1.0384,1.0167,1.0068,1.0043,0.9776,0.9505,0.9286,0.9286,0.913,0.8949,0.8949,0.8949,0.8949,0.8949,0.8372,0.7496,0.6623,0.6373,0.0,0.0,0.0,0.0,0.0,0.0,0.0,0.0,0.9688,0.9962,0.9962,1.0084,1.0211,1.028,1.0292,1.0406,1.0737,1.0737,1.0806,1.1126,1.1175,1.1078,1.0826,1.1049,1.1179,1.1147,1.1175,1.1207,1.1273,1.1248,1.1248,1.1248,1.1248,1.1228,1.1195,1.109,1.1033,1.0996,1.085,1.0729,1.0692,1.0692,1.0719,1.0774,1.0774,1.0802,1.0884,1.0884,1.0884,1.0884,1.0884,1.0884,1.0884,1.0884,1.0884,1.0884,1.0802,1.1095,1.15,0.0,0.0,0.0,0.0,0.0,0.0,0.0,0.0,1.0959,1.1683,1.1438,1.1194,1.1194,1.1194,1.1194,1.1194,1.1614,1.1858,1.1829,1.1829,1.1829,1.1829,1.1365,1.112,1.112,1.112,1.112,1.112,1.112,1.112,1.112,1.112,1.112,1.112,1.112,1.0978,1.0752,1.0752,1.0609,1.0413,1.0364,1.0364,1.0339,1.0068,0.9797,0.9554,0.9554,0.9529,0.9501,0.9501,0.9501,0.9501,0.9501,0.9426,0.9303,0.92,0.915,0.9126,0.8998,0.8372,0.8027,0.9278,0.899,0.8699,0.0,1.0119,1.0184,1.0184,1.0174,1.0284,1.0601,1.0631,1.0749,1.1078,1.0899,1.0793,1.0996,1.1025,1.1037,1.1122,1.1171,1.1163,1.1041,1.1135,1.126,1.1455,1.1468,1.1468,1.1468,1.1468,1.139,1.1199,1.1204,1.1122,1.1,1.0976,1.0882,1.0692,1.0692,1.0829,1.1072,1.1072,1.1213,1.1514,1.1514,1.1514,1.1514,1.1514,1.1514,1.1514,1.1514,1.1514,1.1459,1.1185,1.2521,1.4368,0.0,0.0,0.0,0.0,0.0,0.0,0.0,0.0,0.0,1.2419,1.2273,1.2127,1.2127,1.2127,1.2127,1.2127,1.2346,1.2467,1.2467,1.2467,1.2467,1.2467,1.2248,1.2127,1.2127,1.2127,1.2127,1.2127,1.2127,1.198,1.1658,1.1658,1.1492,1.1194,1.1194,1.1149,1.1022,1.1022,1.0973,1.0855,1.0708,1.063,1.0609,1.0339,1.0167,1.0019,0.9702,0.9603,0.0,0.9603,0.9603,0.9603,0.9603,0.9603,0.948,0.885,0.9101,0.9624,0.975,0.9444,0.9256,0.9921,0.9737,0.9549,1.0092,1.0349,1.0496,1.0496,1.0662,1.0822,1.0972,1.0919,1.0964,1.1155,1.1154,1.1233,1.1528,1.171,1.1894,1.2043,1.2065,1.1921,1.1502,1.1534,1.1577,1.1654,1.1663,1.1744,1.1885,1.1915,1.1971,1.2069,1.1992,1.1932,1.1859,1.1748,1.1594,1.1411,1.1411,1.1406,1.1404,1.1404,1.1459,1.1596,1.1596,1.1596,1.1596,1.1596,1.1596,1.1596,1.1596,1.211,1.2703,1.1728,1.2073,1.296,0.0,0.0,0.0,0.0,0.0,0.0,0.0,0.0,0.0,0.0,1.2886,1.2813,1.2813,1.2813,1.2813,1.2813,1.291,1.2983,1.2983,1.2983,1.2983,1.2983,1.2861,1.2813,1.2813,1.2813,1.2813,1.2813,1.2813,1.2589,1.2224,1.2224,1.2005,1.1634,1.1487,1.1414,1.1414,1.1267,1.1194,1.1169,1.0998,1.09,1.0875,1.0609,1.0507,1.0437,0.9895,0.9702,0.9702,0.9628,0.9603,0.9603,0.9603,0.9603,0.9451,0.8673,0.9032,0.9726,0.9851,0.995,1.0031,1.0219,1.03,1.0375,1.0504,1.0755,1.1005,1.1088,1.13,1.15,1.1549,1.1487,1.1458,1.1604,1.1656,1.1824,1.2149,1.2326,1.2513,1.2667,1.2689,1.2543,1.21,1.2044,1.2044,1.2044,1.2044,1.2126,1.2328,1.2328,1.2449,1.2689,1.2622,1.2525,1.2506,1.236,1.2192,1.1974,1.1974,1.1951,1.1893,1.1976,1.2003,1.2003,1.2003,1.2003,1.2003,1.2003,1.2003,1.2003,1.2003,1.2634,1.3399,1.239,1.2591,1.3371,0.0,0.0,0.0,0.0,0.0,0.0,0.0,0.0,0.0,0.0,0.0,0.0,0.0,1.2813,1.2813,1.2813,1.3225,1.3467,1.3467,1.3467,1.3467,1.3467,1.3031,1.2813,1.2813,1.2813,1.2813,1.2813,1.2813,1.2789,1.2789,1.2789,1.2764,1.274,1.22,1.198,1.1927,1.1414,1.1194,1.1194,1.1194,1.1194,1.1169,1.0904,1.0777,1.0728,1.0191,0.9994,0.9945,0.9677,0.9603,0.9603,0.9603,0.9603,0.9603,0.955,0.9721,0.9905,0.9909,1.0044,1.0223,1.0353,1.0554,1.0807,1.1267,1.1532,1.1754,1.2098,1.2168,1.2234,1.2432,1.2463,1.2487,1.2641,1.2548,1.2525,1.2654,1.2557,1.2542,1.2667,1.2689,1.2689,1.2659,1.2659,1.2659,1.2659,1.2659,1.2689,1.2689,1.2689,1.2689,1.2689,1.2685,1.2627,1.2506,1.2497,1.2395,1.2192,1.2192,1.2307,1.2584,1.2903,1.3046,1.3046,1.3046,1.3046,1.3046,1.3046,1.3046,1.3046,1.3046,1.3074,1.3103,1.3079,1.5077,1.7808,0.0,0.0,0.0,0.0,0.0,0.0,0.0,0.0,0.0,0.0,0.0,0.0,0.0,0.0,0.0,0.0,1.3943,1.4034,1.4034,1.4034,1.4034,1.4034,1.3889,1.3793,1.3793,1.3793,1.3793,1.3793,1.3793,1.3606,1.3249,1.3249,1.3104,1.2789,1.2619,1.2516,1.2497,1.1956,1.1736,1.1712,1.134,1.1194,1.1194,1.11,1.1071,1.1027,0.0,1.0413,1.024,1.0167,1.0117,1.0117,1.0117,1.0117,1.0168,1.0296,1.0377,1.0484,1.0759,1.0874,1.1003,1.1316,1.1445,1.1567,1.1866,1.209,1.2258,1.2375,1.2472,1.2548,1.2614,1.256,1.2498,1.256,1.2577,1.2635,1.2808,1.2987,1.3167,1.3331,1.3354,1.3354,1.3354,1.2964,1.2689,1.2689,1.2689,1.281,1.3024,1.302,1.3144,1.3354,1.3354,1.3326,1.3292,1.3287,1.319,1.2987,1.2872,1.2836,1.295,1.3036,1.3093,1.3093,1.3093,1.3093,1.3093,1.3093,1.3093,1.3093,1.3093,1.3093,1.3179,1.3944,1.5586,1.7163,0.0,0.0,0.0,0.0,0.0,0.0,0.0,0.0,0.0,0.0,0.0,0.0,0.0,0.0,0.0,0.0,0.0,1.4906,1.4906,1.4906,1.4906,1.4906,1.4906,1.4906,1.4906,1.4906,1.4851,1.4728,1.4631,1.437,1.392,1.3821,1.363,1.334,1.3152,1.3055,1.3031,1.2492,1.2175,1.198,1.1609,1.1365,1.1194,1.1194,1.1194,0.0,1.0998,1.0826,1.0659,1.0458,1.0413,1.0413,1.0413,1.0461,1.052,1.0651,1.0808,1.0975,1.1221,1.1393,1.1582,1.1833,1.2001,1.2161,1.2401,1.2608,1.2785,1.2903,1.2998,1.3054,1.3054,1.2985,1.2933,1.2933,1.2966,1.3042,1.3176,1.3377,1.3576,1.3674,1.3688,1.3688,1.3688,1.3294,1.3054,1.3054,1.3054,1.3144,1.3359,1.3384,1.3474,1.3688,1.3688,1.3688,1.3688,1.3688,1.3652,1.3524,1.3387,1.3316,1.3316,1.3316,1.3316,1.3316,1.3316,1.3316,1.3316,1.3316,1.3316,1.3316,1.3316,1.3316,1.3461,1.4638,1.5411,1.5818,0.0,0.0,0.0,0.0,0.0,0.0,0.0,0.0,0.0,0.0,0.0,0.0,0.0,0.0,0.0,0.0,0.0,0.0,1.5992,1.5992,1.5992,1.5992,1.5992,1.5992,1.5992,1.5992,1.5834,1.5519,1.5258,1.4998,1.4733,1.4461,1.4334,1.4292,1.3798,1.3551,1.3515,1.3031,1.2516,1.2054,1.2005,1.1683,1.1194,1.1194,1.1194,1.1194,1.1194,1.1194,1.112,1.0609,1.0437,1.0437,1.0446,1.0583,1.0741,1.0759,1.1053,1.1349,1.1367,1.1672,1.1956,1.1978,1.2261,1.2623,1.2867,1.3102,1.3324,1.3629,1.3688,1.3688,1.3688,1.3688,1.3688,1.3688,1.3688,1.3688,1.3688,1.3688,1.3688,1.3688,1.3688,1.3688,1.3688,1.3688,1.3688,1.3688,1.3688,1.3688,1.3688,1.3688,1.3688,1.3688,1.3688,1.3688,1.3688,1.3688,1.3688,1.3688,1.3688,1.3688,1.3688,1.3688,1.3718,1.3748,1.3748,1.3778,1.3808,1.3808,1.3808,1.3808,1.3808,1.3808,1.3928,1.5165,1.4867,1.4366,0.0,0.0,0.0,0.0,0.0,0.0,0.0,0.0,0.0,0.0,0.0,0.0,0.0,0.0,0.0,0.0,0.0,0.0,1.5992,1.5992,1.5992,1.5992,1.5992,1.5992,1.5992,1.5992,1.5966,1.5865,1.5557,1.5369,1.5294,1.5032,1.4799,1.4587,1.4465,1.4278,1.4058,1.3534,1.3031,1.2565,1.2151,1.1683,1.1194,1.1194,1.1194,1.1194,1.1194,1.1194,1.1174,1.1047,1.0998,1.1025,1.1158,1.1246,1.1353,1.1659,1.1821,1.1969,1.2329,1.2492,1.2646,1.2948,1.3106,1.3223,1.3461,1.3531,1.3599,1.3688,1.3688,1.3688,1.3688,1.3688,1.3688,1.3688,1.3688,1.3688,1.3688,1.3688,1.3688,1.3688,1.3688,1.3688,1.3688,1.3688,1.3688,1.3688,1.3688,1.3688,1.3688,1.3688,1.3688,1.3688,1.3688,1.3688,1.3688,1.3688,1.3688,1.3688,1.3688,1.3688,1.3688,1.3688,1.3953,1.4366,1.4366,1.4634,1.5121,1.5121,1.5121,1.5121,1.5121,1.5121,1.5151,1.5472,1.6005,1.6673,0.0,0.0,0.0,0.0,0.0,0.0,0.0,0.0,0.0,0.0,0.0,0.0,0.0,0.0,0.0,0.0,0.0,0.0,0.0,1.669,1.669,1.669,1.669,1.669,1.669,1.669,1.6639,1.6542,1.6228,1.5935,1.5679,1.5409,1.5123,1.489,1.489,1.4739,1.4461,1.4144,1.3545,0.0,0.0,1.1883,1.1194,1.1194,1.1194,1.1194,1.1194,1.1194,1.1194,1.1194,1.1255,1.1359,1.1457,1.1617,1.181,1.2015,1.2147,1.2296,1.2559,1.2758,1.2984,1.3216,1.3415,1.3551,1.3665,1.3688,1.3688,1.3688,1.3688,1.3688,1.3688,1.3688,1.3688,1.3688,1.3688,1.3688,1.3688,1.3688,1.3688,1.3688,1.3688,1.3688,1.3688,1.3688,1.3688,1.3688,1.3688,1.3688,1.3688,1.3688,1.3688,1.3688,1.3688,1.3688,1.3688,1.3953,1.4102,1.4102,1.4401,1.4525,1.4525,1.4525,1.4729,1.5051,1.5051,1.5264,1.5601,1.5601,1.5601,1.5601,1.5601,1.5601,1.5715,1.6667,1.7109,1.749,0.0,0.0,0.0,0.0,0.0,0.0,0.0,0.0,0.0,0.0,0.0,0.0,0.0,0.0,0.0,0.0,0.0,0.0,0.0,0.0,1.7608,1.7608,1.7608,1.7608,1.7608,1.7608,1.7483,1.7252,1.6932,1.6523,1.5997,1.5697,1.5408,1.5161,1.5161,1.4985,1.4744,1.4744,1.4047,1.2954,1.2954,1.2299,1.1316,0.0,1.1267,1.1194,1.1194,1.1194,1.1198,1.1227,1.1364,1.1499,1.1523,1.1801,1.2117,1.2118,1.225,1.2418,1.2447,1.2748,1.307,1.3126,1.3411,1.3655,1.3684,1.3688,1.3688,1.3688,1.3688,1.3688,1.3688,1.3688,1.3688,1.3688,1.3688,1.3688,1.3688,1.3688,1.3688,1.3688,1.3778,1.3818,1.3876,1.3941,1.4011,1.407,1.407,1.3955,1.3723,1.3688,1.3748,1.3808,1.3898,1.3958,1.3958,1.4456,1.4719,1.4748,1.5329,1.5601,1.5601,1.5601,1.5631,1.5715,1.5715,1.5774,1.5863,1.5863,1.5863,1.5863,1.5863,1.5863,1.607,1.7946,1.805,1.767,0.0,0.0,0.0,0.0,0.0,0.0,0.0,0.0,0.0,0.0,1.695,1.6989,0.0,0.0,0.0,0.0,0.0,0.0,0.0,0.0,0.0,1.7608,1.7608,1.7608,1.7608,1.7608,1.7582,1.7529,1.6976,1.666,1.6554,1.6062,1.569,1.5433,1.5433,1.5288,1.504,1.504,1.4533,1.3699,1.3699,1.298,1.1853,1.1853,0.0,0.0,1.1194,1.1194,1.1222,1.1401,1.1461,1.1523,1.1713,1.1914,1.2118,1.231,1.2358,1.2451,1.2663,1.279,1.2932,1.3249,1.3386,1.3515,1.3651,1.3688,1.3688,1.3688,1.3688,1.3688,1.3688,1.3688,1.3688,1.3688,1.3688,1.3688,1.3688,1.3688,1.3688,1.3688,1.4127,1.453,1.4751,1.5282,1.5689,1.5915,1.5926,1.5273,1.3767,1.3688,1.3923,1.4421,1.4967,1.5269,1.5269,1.5359,1.5418,1.5418,1.5537,1.5601,1.5601,1.5601,1.5863,1.6331,1.6331,1.6655,1.7156,1.7156,1.7156,1.7156,1.7156,1.7156,1.722,1.7596,1.8081,1.8664,0.0,0.0,0.0,0.0,0.0,0.0,0.0,1.6658,1.6913,1.7347,1.7401,1.7401,1.7401,1.7528,0.0,0.0,0.0,0.0,0.0,0.0,0.0,0.0,1.7608,1.7608,1.7608,1.7608,1.7608,1.7608,0.0,1.6875,1.6703,1.6291,1.5958,1.5698,1.5698,1.5559,1.5312,1.5312,1.4849,1.4099,1.4099,1.3574,1.2745,0.0,0.0,0.0,1.152,1.1449,1.1392,1.1579,1.1671,1.1683,1.189,1.2103,1.2286,1.2358,1.2414,1.2433,1.2569,1.2677,1.2866,1.3174,1.3335,1.3443,1.3646,1.3688,1.3688,1.3688,1.3688,1.3688,1.3688,1.3688,1.3688,1.3688,1.3953,1.4157,1.4157,1.4461,1.4704,1.4704,1.507,1.5395,1.551,1.5937,1.6264,1.6378,1.6389,1.6009,1.5146,1.5105,1.517,1.5323,1.5629,1.575,1.5601,1.5922,1.6131,1.6283,1.6642,1.6866,1.7003,1.7003,1.7154,1.745,1.745,1.7547,1.7714,1.7714,1.7635,1.7514,1.7514,1.7514,1.7573,1.8064,1.8502,1.8968,0.0,0.0,0.0,0.0,0.0,0.0,0.0,1.6979,1.7306,1.7568,1.7608,1.7608,1.7608,1.7608,1.7608,0.0,0.0,0.0,0.0,0.0,0.0,0.0,0.0,0.0,1.7608,0.0,0.0,1.7503,1.7219,0.0,0.0,0.0,0.0,0.0,1.5891,1.5777,1.5584,1.5584,1.5193,0.0,0.0,1.4194,1.3607,0.0,0.0,0.0,0.0,1.1688,1.1589,1.1791,1.1862,1.19,1.2112,1.226,1.2423,1.2466,1.2451,1.2423,1.247,1.2602,1.2785,1.3032,1.3221,1.3415,1.3632,1.3688,1.3688,1.3688,1.3688,1.3748,1.3863,1.3893,1.3928,1.4077,1.4485,1.4813,1.4813,1.5264,1.5618,1.5666,1.5983,1.6232,1.6336,1.6665,1.6922,1.6972,1.6978,1.6809,1.6425,1.6513,1.6487,1.6301,1.6417,1.6389,1.6171,1.6643,1.698,1.7206,1.772,1.8113,1.8294,1.8294,1.8294,1.8294,1.8294,1.8167,1.7992,1.7992,1.7871,1.766,1.766,1.7647,1.7687,1.841,1.8787,1.902,0.0,0.0,0.0,0.0,0.0,0.0,0.0,1.6979,1.7306,1.7568,1.7608,1.7608,1.7608,1.7608,1.7608,0.0,0.0,0.0,0.0,0.0,0.0,0.0,0.0,0.0,0.0,0.0,0.0,1.7226,1.6922,0.0,0.0,0.0,0.0,0.0,0.0,1.5879,1.5855,1.5855,0.0,0.0,0.0,0.0,0.0,0.0,0.0,0.0,0.0,1.1777,1.1796,1.2013,1.2057,1.2117,1.2319,1.2395,1.2451,1.2677,1.2597,1.2456,1.271,1.2606,1.2536,1.2994,1.3112,1.3231,1.3599,1.3688,1.3688,1.3688,1.3688,1.3863,1.4421,1.451,1.4724,1.5329,1.5477,1.5507,1.5507,1.5566,1.5677,1.5917,1.6474,1.7,1.7497,1.813,1.8589,1.8822,1.884,1.8119,1.6504,1.6909,1.7207,1.7184,1.7785,1.8092,1.8037,1.8099,1.8135,1.8165,1.8227,1.8269,1.8294,1.8294,1.8294,1.8294,1.8294,1.8275,1.8257,1.8257,1.8239,1.8221,1.8221,1.8094,1.7871,1.7961,1.8395,1.891,0.0,0.0,0.0,0.0,0.0,0.0,1.6687,1.7133,1.7481,1.7595,1.7608,1.7608,1.7608,1.7608,1.7608,0.0,0.0,0.0,0.0,0.0,0.0,0.0,0.0,0.0,0.0,0.0,1.7305,1.7206,1.6696,0.0,0.0,0.0,0.0,0.0,0.0,1.5891,1.5891,1.5891,0.0,0.0,0.0,0.0,0.0,0.0,0.0,0.0,0.0,0.0,1.207,1.2627,1.251,1.215,1.2348,1.2414,1.2428,1.2517,1.248,1.2433,1.2517,1.2475,1.2513,1.2989,1.3374,1.3744,1.4148,1.455,1.4853,1.4853,1.4853,1.4913,1.5175,1.5205,1.5294,1.5566,1.5893,1.6124,1.6124,1.6484,1.6842,1.7121,1.7507,1.7901,1.8274,1.8698,1.8995,1.9098,1.911,1.879,1.807,1.8248,1.8303,1.8149,1.8398,1.845,1.8294,1.8294,1.8372,1.8529,1.8529,1.8645,1.8796,1.8796,1.8796,1.8796,1.8796,1.8674,1.8529,1.8529,1.8438,1.8294,1.8294,1.8227,1.8125,1.8125,1.83,1.854,0.0,0.0,0.0,0.0,0.0,1.6734,1.682,1.7287,1.7608,1.7608,1.7608,1.7608,1.7608,1.7608,1.7608,1.7608,0.0,0.0,0.0,0.0,0.0,0.0,0.0,0.0,0.0,0.0,1.7014,1.6935,1.651,1.6271,0.0,0.0,1.5891,1.5891,0.0,0.0,0.0,0.0,0.0,0.0,0.0,0.0,0.0,0.0,0.0,0.0,0.0,0.0,0.0,0.0,0.0,1.2198,1.2367,1.2414,1.2423,1.2489,1.2461,1.2437,1.256,1.2555,1.2662,1.3307,1.3782,1.4222,1.4785,1.5264,1.5477,1.5116,1.5329,1.5537,1.5324,1.5626,1.5922,1.6129,1.6508,1.6803,1.6803,1.728,1.7726,1.7998,1.8276,1.8511,1.8776,1.9001,1.911,1.911,1.911,1.911,1.911,1.911,1.9019,1.8807,1.8832,1.8741,1.8529,1.8523,1.8613,1.8832,1.8832,1.8929,1.911,1.911,1.911,1.911,1.911,1.9001,1.8832,1.8832,1.8723,1.8523,1.8523,1.8475,1.8408,1.8408,1.836,1.8294,0.0,0.0,0.0,0.0,0.0,0.0,1.7152,1.7421,1.7608,1.7608,1.7608,1.7608,1.7608,1.7608,1.7608,1.7608,0.0,0.0,0.0,0.0,0.0,0.0,0.0,0.0,0.0,0.0,1.6577,1.6297,1.6297,1.6158,1.5891,1.5891,1.5891,1.5891,0.0,0.0,0.0,0.0,0.0,0.0,0.0,0.0,0.0,0.0,0.0,0.0,0.0,0.0,0.0,0.0,0.0,0.0,0.0,1.2414,1.2456,1.2729,1.2611,1.2503,1.2975,1.2942,1.303,1.405,1.4277,1.4508,1.5394,1.5596,1.5235,1.3968,1.4719,1.5388,1.4719,1.5645,1.6714,1.7367,1.7479,1.7479,1.7479,1.7708,1.8004,1.8257,1.8523,1.8814,1.908,1.911,1.911,1.911,1.911,1.911,1.911,1.911,1.911,1.9104,1.9104,1.9098,1.9098,1.9098,1.9098,1.9104,1.9104,1.9104,1.911,1.911,1.911,1.911,1.911,1.911,1.9104,1.9104,1.9098,1.9098,1.9098,1.8941,1.8711,1.8711,1.8517,1.8294,0.0,0.0,0.0,0.0,0.0,0.0,0.0,1.7421,1.7608,1.7608,1.7608,1.7608,1.7608,1.7608,1.7608,1.7608,0.0,0.0,0.0,0.0,0.0,0.0,0.0,0.0,0.0,0.0,1.6404,1.6297,1.6111,1.5971,1.5891,1.5891,1.5891,1.5891,1.5891,1.5891,0.0,0.0,0.0,0.0,0.0,0.0,1.274,0.0,0.0,0.0,0.0,0.0,0.0,0.0,0.0,0.0,0.0,0.0,0.0,1.3128,1.2793,1.2552,1.3307,1.3448,1.3671,1.4714,1.5288,1.5696,1.6127,1.5911,1.5728,1.6201,1.5935,1.5787,1.6473,1.692,1.7244,1.7485,1.7514,1.7514,1.7514,1.7738,1.801,1.8263,1.8686,1.9013,1.9098,1.911,1.911,1.911,1.911,1.911,1.911,1.911,1.911,1.911,1.911,1.911,1.911,1.911,1.911,1.911,1.911,1.911,1.911,1.911,1.911,1.911,1.911,1.911,1.911,1.911,1.911,1.911,1.911,1.9056,1.8983,1.8983,1.8929,1.8862,0.0,0.0,0.0,0.0,0.0,0.0,0.0,1.7495,1.7608,1.7608,1.7608,1.7608,1.7608,1.751,1.7457,1.7457,0.0,0.0,0.0,0.0,0.0,0.0,0.0,0.0,0.0,1.6291,1.6164,1.6164,1.5971,1.5891,1.5891,1.5891,1.5891,1.5891,1.5651,1.5571,0.0,0.0,0.0,0.0,0.0,0.0,1.2441,0.0,0.0,0.0,0.0,0.0,0.0,0.0,0.0,0.0,0.0,0.0,0.0,0.0,1.3364,1.3214,1.3832,1.4067,1.4391,1.5369,1.5968,1.6425,1.6791,1.6201,1.5693,1.5989,1.5811,1.5693,1.6018,1.6856,1.7514,1.7514,1.7514,1.7514,1.7514,1.7828,1.8203,1.8547,1.8911,1.911,1.911,1.911,1.911,1.911,1.911,1.911,1.911,1.911,1.911,1.911,1.911,1.911,1.911,1.911,1.911,1.911,1.911,1.911,1.911,1.911,1.911,1.911,1.911,1.911,0.0,1.911,1.911,1.911,1.911,1.911,1.911,1.911,1.911,1.911,0.0,0.0,0.0,0.0,0.0,0.0,0.0,0.0,1.7338,1.7503,1.7391,1.7312,1.7424,1.7193,1.7014,1.6935,0.0,0.0,0.0,0.0,0.0,0.0,0.0,0.0,0.0,1.6025,1.5891,1.5891,1.5891,1.5891,1.5891,1.5891,1.5891,1.5811,1.525,1.4955,0.0,0.0,0.0,0.0,0.0,0.0,0.0,0.0,0.0,0.0,0.0,0.0,0.0,0.0,0.0,0.0,0.0,0.0,0.0,0.0,0.0,0.0,0.0,1.4775,1.5166,1.596,1.6384,1.6714,1.7244,1.6378,0.0,1.3934,1.4649,1.5124,1.4053,1.5841,1.7514,1.7514,1.7514,1.752,1.7538,1.798,1.8511,1.905,1.911,1.911,1.911,1.911,1.911,1.911,1.911,1.911,1.911,1.911,1.911,1.911,1.911,1.911,1.911,1.911,1.911,1.911,1.911,1.911,1.911,1.911,1.9104,1.9142,1.9142,1.9136,1.9174,1.9174,1.9174,1.9174,1.9174,1.9174,1.9174,1.9174,1.9174,1.9174,0.0,0.0,0.0,0.0,0.0,0.0,0.0,0.0,0.0,0.0,1.5396,1.4642,1.5515,1.5547,1.5167,0.0,0.0,0.0,0.0,0.0,0.0,0.0,0.0,0.0,0.0,1.5945,1.5891,1.5891,1.5891,1.5891,1.5891,1.5891,1.5651,1.5196,1.5062,1.4525,0.0,0.0,0.0,0.0,0.0,0.0,0.0,0.0,0.0,0.0,1.1646,1.1837,0.0,0.0,0.0,0.0,0.0,0.0,0.0,0.0,1.4519,1.4396,1.5319,0.0,1.5784,1.6648,1.7059,1.7038,0.0,1.5065,1.4053,1.3754,1.3934,1.4351,1.5035,1.6437,1.7514,1.7514,1.7514,1.7581,1.778,1.8282,1.8747,1.9068,1.911,1.911,1.911,1.911,1.911,1.911,1.911,1.911,1.911,1.911,1.911,1.911,1.911,1.911,1.911,1.911,1.911,1.911,1.911,1.911,1.911,1.911,1.9232,1.9482,1.9482,1.9616,1.9851,1.9851,1.9851,1.9851,1.9851,1.9851,1.9851,1.9851,1.9851,1.9851,0.0,0.0,0.0,0.0,0.0,0.0,0.0,0.0,0.0,0.0,0.0,0.0,0.0,0.0,0.0,0.0,0.0,0.0,0.0,0.0,0.0,0.0,0.0,1.5891,1.5891,1.5891,1.5891,1.5891,1.5891,1.5891,1.5891,1.5624,1.5303,1.4987,1.4444,1.3883,0.0,0.0,0.0,0.0,1.2822,0.0,0.0,0.0,0.0,0.0,1.1705,1.2137,0.0,1.2055,1.2599,1.3662,0.0,0.0,0.0,0.0,1.4353,1.5003,1.5083,1.5648,1.6331,1.679,1.7201,1.7185,1.59,1.4619,1.3695,1.3695,1.3695,1.4083,1.5362,1.6649,1.7514,1.7514,1.7611,1.7828,1.8221,1.853,1.8814,1.9074,1.911,1.911,1.911,1.911,1.911,1.911,1.911,1.911,1.911,1.911,1.911,1.911,1.9264,1.9264,1.911,1.9264,1.9328,1.9328,1.9494,1.9558,1.9558,1.9558,1.9654,1.9839,1.9839,1.9941,2.0106,2.0106,2.0106,2.0106,2.0106,2.0106,2.0106,2.0106,2.0106,2.0106,0.0,0.0,0.0,0.0,0.0,0.0,0.0,0.0,0.0,0.0,0.0,0.0,0.0,0.0,0.0,0.0,0.0,0.0,0.0,0.0,0.0,0.0,0.0,1.5891,1.5891,1.5891,1.5891,1.5891,1.5891,1.5891,1.5891,1.5277,1.4907,1.4686,1.3721,1.3261,0.0,0.0,0.0,0.0,1.3261,0.0,0.0,0.0,0.0,0.0,0.0,0.0,0.0,1.2649,1.3029,1.3975,1.3452,0.0,0.0,0.0,0.0,0.0,1.4725,1.56,1.6644,1.647,1.6949,1.7126,1.5634,1.4619,1.3934,1.3725,1.3844,1.4321,1.5391,1.6649,1.7526,1.7562,1.7828,1.8191,1.8651,1.8753,1.8862,1.908,1.911,1.911,1.911,1.911,1.911,1.911,1.911,1.911,1.911,1.911,1.911,1.911,1.9392,1.9424,1.9168,1.945,1.9577,1.9514,1.9813,1.9979,2.0011,2.0011,2.0074,2.017,2.017,2.0202,2.0265,2.0265,2.0265,2.0265,2.0265,2.0265,2.0265,2.0265,2.0265,2.0265,0.0,0.0,0.0,0.0,0.0,0.0,0.0,0.0,0.0,0.0,0.0,0.0,0.0,0.0,0.0,0.0,0.0,0.0,0.0,0.0,0.0,0.0,1.5891,1.5891,1.5891,1.5891,1.5891,1.5891,1.5891,1.5891,1.5891,1.5277,1.4498,1.3559,1.3369,1.3012,1.2577,0.0,0.0,0.0,1.3098,0.0,0.0,0.0,0.0,0.0,0.0,0.0,0.0,1.1955,1.2254,1.3425,1.3317,0.0,0.0,0.0,0.0,0.0,1.5695,1.6342,1.6442,1.5361,1.6304,1.6885,1.453,1.4679,1.5006,1.3934,1.456,1.5362,1.5575,1.6649,1.7581,1.781,1.8264,1.862,1.8705,1.8911,1.9062,1.9104,1.911,1.911,1.911,1.911,1.911,1.911,1.911,1.911,1.911,1.911,1.911,1.911,1.9136,1.9296,1.9514,1.9577,1.945,1.9168,1.9238,1.9392,1.9673,1.9673,1.9998,2.0513,2.0513,2.0672,2.0951,2.0951,2.0951,2.0951,2.0951,2.0951,2.0951,2.0951,2.0951,2.0951,0.0,0.0,0.0,0.0,0.0,0.0,0.0,0.0,0.0,0.0,0.0,0.0,0.0,0.0,0.0,0.0,0.0,0.0,0.0,0.0,0.0,1.5865,1.5598,1.5571,1.5891,1.5891,1.5891,1.5891,1.5571,1.541,1.5384,1.4498,1.3802,1.3288,1.3288,1.3337,1.3386,1.3657,0.0,0.0,0.0,0.0,0.0,0.0,0.0,0.0,0.0,0.0,0.0,0.0,1.3236,1.3673,1.3019,0.0,0.0,0.0,0.0,0.0,1.556,1.6245,1.6621,1.5321,1.6257,1.7003,1.5154,1.5184,1.5421,1.4857,1.5184,1.5811,1.6496,1.712,1.7647,1.8064,1.8426,1.8766,1.8911,1.9032,1.911,1.911,1.911,1.911,1.911,1.911,1.911,1.911,1.9264,1.9354,1.9354,1.9526,1.9622,1.9622,1.9813,1.9909,1.9877,2.0062,2.0062,1.9909,2.0094,2.0253,2.0405,2.0405,2.057,2.0856,2.0856,2.0951,2.1109,2.1109,2.1109,2.1109,2.1109,2.1109,2.1109,2.1109,2.1109,2.1109,0.0,0.0,0.0,0.0,0.0,0.0,0.0,0.0,0.0,0.0,0.0,0.0,0.0,0.0,0.0,0.0,0.0,0.0,0.0,0.0,1.4433,1.5458,1.5057,1.5089,1.5678,1.5565,1.5485,1.5485,1.5035,1.474,1.4579,1.3721,1.3288,1.3288,1.3288,1.3635,1.4196,1.4196,1.4196,0.0,0.0,0.0,0.0,0.0,0.0,0.0,0.0,0.0,0.0,0.0,0.0,0.0,0.0,0.0,0.0,1.1885,1.3598,1.5821,1.5197,1.6035,1.6817,1.5614,1.6418,1.7185,1.59,1.5841,1.6048,1.6048,1.6048,1.6366,1.741,1.7708,1.7931,1.8318,1.8607,1.888,1.908,1.911,1.911,1.911,1.911,1.911,1.911,1.911,1.9142,1.92,1.945,1.9641,1.9711,1.9973,2.0106,2.0106,2.0361,2.0386,2.0234,2.0482,2.0545,2.0488,2.0729,2.0926,2.0982,2.0982,2.1014,2.1109,2.1109,2.1109,2.1109,2.1109,2.1109,2.1109,2.1109,2.1109,2.1109,2.1109,2.1109,2.1109,0.0,0.0,0.0,0.0,0.0,0.0,0.0,0.0,0.0,0.0,0.0,0.0,0.0,0.0,0.0,0.0,0.0,0.0,0.0,0.0,1.3646,1.4304,1.4277,1.4519,1.5035,1.4573,1.4326,1.4326,1.4277,1.3981,1.3423,1.3342,1.3288,1.3288,1.3288,1.3635,1.4196,1.4196,1.4196,1.425,0.0,0.0,0.0,0.0,0.0,0.0,0.0,0.0,0.0,0.0,0.0,0.0,0.0,0.0,1.1344,1.2358,1.3737,1.4958,1.5133,1.6114,1.6859,1.5818,1.6544,1.7185,1.59,1.6496,1.7361,1.7361,1.7361,1.7469,1.7799,1.8288,1.8639,1.865,1.8911,1.9086,1.9104,1.911,1.911,1.911,1.911,1.911,1.911,1.911,1.9232,1.9545,1.9577,1.9743,2.0043,2.0074,2.0106,2.0106,2.0106,2.0265,2.0545,2.0577,2.045,2.0138,2.017,2.0329,2.064,2.064,2.0799,2.1109,2.1109,2.1109,2.1109,2.1109,2.1109,2.1109,2.1109,2.1109,2.1109,2.1109,2.1109,2.1109,0.0,0.0,0.0,0.0,0.0,0.0,0.0,0.0,0.0,0.0,0.0,0.0,0.0,0.0,0.0,0.0,0.0,0.0,0.0,1.2694,1.3398,1.4169,1.3851,1.3743,1.3932,1.4116,1.4196,1.4196,1.3824,1.3337,1.274,1.274,1.3147,1.3851,1.3472,1.3824,1.4686,1.4331,1.4385,1.4713,1.4928,0.0,0.0,0.0,0.0,0.0,0.0,0.0,0.0,0.0,1.2617,1.1532,1.1888,1.211,1.2493,1.3925,1.4695,1.5288,1.6349,1.6383,1.6259,1.668,1.715,1.7361,1.6885,1.7156,1.7514,1.7514,1.7641,1.7841,1.8113,1.8438,1.8686,1.8686,1.8941,1.911,1.911,1.911,1.9168,1.9392,1.9424,1.9488,1.9686,1.9717,1.9781,1.9909,2.0094,2.0284,2.0386,2.0609,2.0736,2.0736,2.0736,2.0767,2.0926,2.0926,2.0856,2.0736,2.0736,2.0792,2.0926,2.0926,2.0982,2.1109,2.1109,2.1109,2.1109,2.1109,2.1109,2.1109,2.1109,2.1109,2.1109,2.1109,2.1109,2.1109,0.0,0.0,0.0,0.0,0.0,0.0,0.0,0.0,0.0,0.0,0.0,0.0,0.0,0.0,0.0,0.0,0.0,0.0,1.2028,1.2078,1.2508,1.3603,1.3229,1.3012,1.3012,1.3413,1.363,1.363,1.3229,1.2794,1.2414,1.2414,1.2925,1.39,1.3283,1.3662,1.4713,1.4358,1.4519,1.5009,1.5196,1.547,0.0,0.0,0.0,0.0,0.0,0.0,0.0,0.0,1.3002,1.2181,1.2739,1.3022,1.3418,1.4866,1.5297,1.5545,1.6598,1.6555,1.6319,1.6767,1.7214,1.7514,1.7514,1.7514,1.7532,1.7617,1.7913,1.8221,1.8384,1.8663,1.8838,1.8838,1.8989,1.911,1.911,1.911,1.9206,1.9418,1.945,1.9584,1.9909,1.9941,2.0043,2.0234,2.0482,2.064,2.0767,2.0982,2.1109,2.1109,2.1109,2.1109,2.1109,2.1109,2.1109,2.1109,2.1109,2.1109,2.1109,2.1109,2.1109,2.1109,2.1109,2.1109,2.1109,2.1109,2.1109,2.1109,2.1109,2.1109,2.1109,2.1109,2.1109,2.1109,0.0,0.0,0.0,0.0,0.0,0.0,0.0,0.0,0.0,0.0,0.0,0.0,0.0,0.0,0.0,0.0,0.0,0.0,1.1432,1.0719,1.0852,1.2327,1.2414,1.2414,1.2382,1.2382,1.2382,1.2414,1.2414,1.2414,1.2414,1.2414,1.2713,1.3261,1.2659,1.3061,1.4196,1.4196,1.4519,1.5035,1.5645,1.5728,0.0,0.0,0.0,0.0,0.0,0.0,0.0,0.0,1.3623,1.4419,1.3504,1.3317,1.3664,1.4948,1.5439,1.5604,1.5604,1.6526,1.7179,1.593,1.6555,1.7514,1.7485,1.7485,1.7593,1.7859,1.8336,1.8686,1.8686,1.8929,1.911,1.911,1.911,1.911,1.911,1.911,1.911,1.911,1.911,1.9232,1.9577,1.9609,1.9896,2.0545,2.0609,2.0767,2.1077,2.1109,2.1109,2.1109,2.1109,2.1109,2.1109,2.1109,2.1109,2.1109,2.1109,2.1109,2.1109,2.1109,2.1109,2.1109,2.1109,2.1109,2.1109,2.1109,2.1109,2.1109,2.1109,2.1109,2.1109,2.1109,2.1109,2.1109,0.0,0.0,0.0,0.0,0.0,0.0,0.0,0.0,0.0,0.0,0.0,0.0,0.0,0.0,0.0,0.0,0.0,0.0,1.1126,1.0994,1.1291,1.2355,1.2414,1.2114,1.1509,1.1482,1.1782,1.2414,1.2414,1.2414,1.2414,1.2414,1.2713,1.3261,1.2659,1.3061,1.4196,1.4196,1.4519,1.5051,1.5449,1.5565,1.5375,0.0,0.0,0.0,0.0,0.0,0.0,0.0,0.0,0.0,1.4471,1.4797,1.5197,1.647,1.6257,1.5811,1.6703,1.6555,1.629,1.6826,1.7214,1.7562,1.7744,1.7786,1.7919,1.8379,1.8602,1.8772,1.8959,1.9056,1.911,1.911,1.911,1.911,1.911,1.911,1.9206,1.9418,1.9654,1.9947,2.0253,2.0507,2.0729,2.0951,2.0951,2.1014,2.1077,2.1109,2.1109,2.1109,2.1109,2.1109,2.1109,2.1109,2.1109,2.1109,2.1109,2.1109,2.1109,2.1109,2.1109,2.1109,2.1109,2.1109,2.1109,2.1109,2.1109,2.1109,2.1109,2.1109,2.1109,2.1109,2.1109,2.1109,0.0,0.0,0.0,0.0,0.0,0.0,0.0,0.0,0.0,0.0,0.0,0.0,0.0,0.0,0.0,0.0,0.0,0.0,0.0,1.1291,1.1318,1.1864,1.1891,1.1646,1.1099,1.1099,1.1537,1.2414,1.2414,1.2414,1.2414,1.2414,1.2577,1.293,1.255,1.279,1.3521,1.4008,1.433,1.4583,1.5246,1.5372,1.5145,0.0,0.0,0.0,0.0,0.0,0.0,0.0,0.0,0.0,1.5909,1.6254,1.6496,1.7273,1.6973,1.6526,1.7303,1.6944,1.6526,1.7303,1.7514,1.7611,1.7986,1.8149,1.8318,1.8613,1.8764,1.8917,1.908,1.911,1.911,1.911,1.92,1.9296,1.9296,1.9398,1.9558,1.9775,1.9973,2.0234,2.0577,2.0767,2.0951,2.1077,2.1109,2.1109,2.1109,2.1109,2.1109,2.1109,2.1109,2.1109,2.1109,2.1109,2.1109,2.1109,2.1109,2.1109,2.1109,2.1109,2.1109,2.1109,2.1109,2.1109,2.1109,2.1109,2.1109,2.1109,2.1109,2.1109,2.1109,2.1109,2.1109,2.1109,0.0,0.0,0.0,0.0,0.0,0.0,0.0,0.0,0.0,0.0,0.0,0.0,0.0,0.0,0.0,0.0,0.0,0.0,0.0,0.0,1.0989,1.0989,1.0907,1.0907,1.0989,1.0989,1.14,1.2278,1.2359,1.2414,1.2414,1.2414,1.24,1.2358,1.2377,1.24,1.244,1.3673,1.4062,1.3893,1.5001,1.5179,1.481,1.5461,0.0,0.0,0.0,0.0,0.0,0.0,0.0,0.0,1.7406,1.7514,1.7514,1.7514,1.7514,1.7514,1.7514,1.7514,1.7514,1.7514,1.755,1.7726,1.8215,1.8529,1.8753,1.8753,1.8941,1.911,1.911,1.9104,1.9136,1.9136,1.9418,1.9641,1.9641,1.9909,2.0106,2.0106,2.0138,2.0265,2.0577,2.064,2.0767,2.1077,2.1109,2.1109,2.1109,2.1109,2.1109,2.1109,2.1109,2.1109,2.1109,2.1109,2.1109,2.1109,2.1109,2.1109,2.1109,2.1109,2.1109,2.1109,2.1109,2.1109,2.1109,2.1109,2.1109,2.1109,2.1109,2.1109,2.1109,2.1109,2.1109,2.1109,0.0,0.0,0.0,0.0,0.0,0.0,0.0,0.0,0.0,0.0,0.0,0.0,0.0,0.0,0.0,0.0,0.0,0.0,0.0,0.0,1.0076,1.0076,0.942,0.9392,1.0045,1.0076,1.0515,1.1373,1.2055,1.2414,1.2414,1.2414,1.2329,1.2161,1.2343,1.2297,1.2241,1.3606,1.4062,1.3882,1.4808,1.5125,1.4963,1.4454,1.5039,0.0,0.0,0.0,0.0,0.0,0.0,0.0,1.7467,1.7514,1.7514,1.7514,1.7514,1.7514,1.7514,1.7514,1.7514,1.7514,1.7835,1.8203,1.8529,1.8832,1.9019,1.9019,1.9068,1.911,1.911,1.9328,1.9482,1.9482,1.9775,1.9973,1.9973,2.0043,2.0106,2.0106,2.0329,2.0513,2.0577,2.0824,2.1014,2.1077,2.1109,2.1109,2.1109,2.1109,2.1109,2.1109,2.1109,2.1109,2.1109,2.1109,2.1109,2.1109,2.1109,2.1109,2.1109,2.1109,2.1109,2.1109,2.1109,2.1109,2.1109,2.1109,2.1109,2.1109,2.1109,2.1109,2.1109,2.1109,2.1109,2.1109,0.0,0.0,0.0,0.0,0.0,0.0,0.0,0.0,0.0,0.0,0.0,0.0,0.0,0.0,0.0,0.0,0.0,0.0,0.0,0.0,0.9605,0.9196,0.8343,0.8478,0.977,0.9798,1.0433,1.1728,1.2191,1.2414,1.2414,1.2414,1.233,1.2258,1.234,1.2325,1.2344,1.3632,1.4062,1.3888,1.4884,1.5294,1.5259,1.5076,1.5627,1.6466,1.6379,0.0,0.0,0.0,0.0,0.0,0.0,0.0,1.7514,1.7514,1.7514,1.7514,1.7514,1.7514,1.7538,1.7671,1.7986,1.836,1.8625,1.9043,1.9322,1.9322,1.92,1.9136,1.9296,1.9482,1.9641,1.9807,2.0132,2.0323,2.0323,2.0482,2.0577,2.0577,2.0736,2.0824,2.0824,2.1014,2.1109,2.1109,2.1109,2.1109,2.1109,2.1109,2.1109,2.1109,2.1109,2.1109,2.1109,2.1109,2.1109,2.1109,2.1109,2.1109,2.1109,2.1109,2.1109,2.1109,2.1109,2.1109,2.1109,2.1109,2.1109,2.1109,2.1109,2.1109,2.1109,2.1109,2.1109,2.1109,0.0,0.0,0.0,0.0,0.0,0.0,0.0,0.0,0.0,0.0,0.0,0.0,0.0,0.0,0.0,0.0,0.0,0.0,0.0,0.0,0.0,0.8318,0.7598,0.8008,0.977,0.9798,1.0648,1.2414,1.2246,1.2173,1.214,1.2313,1.2309,1.214,1.2313,1.239,1.2416,1.3393,1.3816,1.3877,1.4803,1.535,1.5626,1.6151,1.6525,1.6833,1.731,1.7514,1.7514,1.7514,0.0,0.0,0.0,0.0,1.7514,1.7514,1.7514,1.7514,1.7514,1.7543,1.7646,1.7985,1.827,1.8557,1.8874,1.9327,1.9673,1.9673,1.9456,1.936,1.9641,1.9737,1.9871,2.0132,2.0482,2.0704,2.0704,2.0919,2.1109,2.1109,2.1109,2.1109,2.1109,2.1109,2.1109,2.1109,2.1109,2.1109,2.1109,2.1109,2.1109,2.1109,2.1109,2.1109,2.1109,2.1109,2.1109,2.1109,2.1109,2.1109,2.1109,2.1109,2.1109,2.1109,2.1109,2.1109,2.1109,2.1109,2.1109,2.1109,2.1109,2.1109,2.1109,2.1109,2.1109,2.1109,0.0,0.0,0.0,0.0,0.0,0.0,0.0,0.0,0.0,0.0,0.0,0.0,0.0,0.0,0.0,0.0,0.0,0.0,0.0,0.0,0.0,0.7376,0.7265,0.8008,0.977,0.9798,1.0648,1.2414,1.1646,1.1205,1.1126,1.2,1.1905,1.1046,1.2004,1.2288,1.2164,1.2243,1.2868,1.3809,1.3907,1.4715,1.5924,1.6441,1.6809,1.708,1.7405,1.7514,1.7514,1.7514,1.7514,0.0,0.0,0.0,1.7514,1.7514,1.7514,1.7514,1.7514,1.7696,1.8061,1.8562,1.8924,1.9302,1.9802,1.9985,2.0043,2.0043,2.0011,1.9979,2.0011,2.0259,2.0482,2.0513,2.0824,2.1014,2.1014,2.1077,2.1109,2.1109,2.1109,2.1109,2.1109,2.1109,2.1109,2.1109,2.1109,2.1109,2.1109,2.1109,2.1109,2.1109,2.1109,2.1109,2.1109,2.1109,2.1109,2.1109,2.1109,2.1109,2.1109,2.1109,2.1109,2.1109,2.1109,2.1109,2.1109,2.1109,2.1109,2.1109,2.1109,2.1109,2.1109,2.1109,2.1109,2.1109,0.0,0.0,0.0,0.0,0.0,0.0,0.0,0.0,0.0,0.0,0.0,0.0,0.0,0.0,0.0,0.0,0.0,0.0,0.0,0.0,0.0,0.721,0.721,0.8008,0.977,0.9333,0.9939,1.1673,1.0794,1.0043,0.9475,1.087,1.1216,1.0721,1.1653,1.1754,1.1339,1.2391,1.3065,1.3501,1.4512,1.5602,1.6585,1.6827,1.708,1.7328,1.7472,1.7514,1.7514,1.7514,1.7514,1.7514,1.7514,0.0,0.0,0.0,1.7631,1.7813,1.7954,1.8101,1.8348,1.8946,1.9307,1.9622,2.0011,2.0265,2.0393,2.0393,2.0513,2.0609,2.0418,2.0513,2.0672,2.0856,2.1014,2.1109,2.1109,2.1109,2.1109,2.1109,2.1109,2.1109,2.1109,2.1109,2.1109,2.1109,2.1109,2.1109,2.1109,2.1109,2.1109,2.1109,2.1109,2.1109,2.1109,2.1109,2.1109,2.1109,2.1109,2.1109,2.1109,2.1109,2.1109,2.1109,2.1109,2.1109,2.1109,2.1109,2.1109,2.1109,2.1109,2.1109,2.1109,2.1109,2.1109,2.1109,0.0,0.0,0.0,0.0,0.0,0.0,0.0,0.0,0.0,0.0,0.0,0.0,0.0,0.0,0.0,0.0,0.0,0.0,0.0,0.0,0.0,0.721,0.7404,0.8149,0.944,0.9058,0.9475,1.0766,0.9911,0.904,0.8291,0.9732,1.0199,0.9893,1.0992,1.117,1.0685,1.2035,1.278,1.3241,1.4789,1.6098,1.7098,1.7165,1.7345,1.7514,1.7514,1.7514,1.7514,1.7514,1.7514,1.7514,1.7514,1.7514,0.0,0.0,0.0,1.8154,1.8452,1.8593,1.8774,1.9371,1.9738,2.0025,2.029,2.0545,2.0736,2.0736,2.0919,2.1014,2.0767,2.0736,2.0799,2.1046,2.1109,2.1109,2.1109,2.1109,2.1109,2.1109,2.1109,2.1109,2.1109,2.1109,2.1109,2.1109,2.1109,2.1109,2.1109,2.1109,2.1109,2.1109,2.1109,2.1109,2.1109,2.1109,2.1109,2.1109,2.1109,2.1109,2.1109,2.1109,2.1109,2.1109,2.1109,2.1109,2.1109,2.1109,2.1109,2.1109,2.1109,2.1109,2.1109,2.1109,2.1109,2.1109,0.0,0.0,0.0,0.0,0.0,0.0,0.0,0.0,0.0,0.0,0.0,0.0,0.0,0.721,0.721,0.721,0.0,0.0,0.0,0.0,0.0,0.721,0.7986,0.0,0.8567,0.9333,0.977,0.988,0.9006,0.8421,0.8141,0.8928,0.8738,0.7841,0.9796,1.0629,1.0572,1.0239,1.1252,1.3172,1.3835,1.5302,1.7117,1.737,1.7502,1.7514,1.7514,1.7514,1.7514,1.7514,1.7514,1.7514,1.7514,1.7514,1.7573,0.0,0.0,0.0,1.8775,1.906,1.9412,1.9991,2.0389,2.0724,2.0979,2.1046,2.1077,2.1077,2.1077,2.1077,2.1077,2.1077,2.1077,2.1109,2.1109,2.1109,2.1109,2.1109,2.1109,2.1109,2.1109,2.1109,2.1109,2.1109,2.1109,2.1109,2.1109,2.1109,2.1109,2.1109,2.1109,2.1109,2.1109,2.1109,2.1109,2.1109,2.1109,2.1109,2.1109,2.1109,2.1109,2.1109,2.1109,2.1109,2.1109,2.1109,2.1109,2.1109,2.1109,2.1109,2.1109,2.1109,2.1109,2.1109,2.1109,2.1109,0.0,0.0,0.0,0.0,0.0,0.0,0.0,0.0,0.0,0.0,0.0,0.0,0.0,0.696,0.721,0.721,0.721,0.0,0.0,0.0,0.0,0.721,0.7487,0.7931,0.8484,0.826,0.8395,0.8978,0.8094,0.7865,0.8241,0.8365,0.847,0.8621,0.9727,1.0068,0.9873,1.0568,1.1891,1.3646,1.4682,1.5988,1.7381,1.7449,1.7514,1.7514,1.7514,1.7514,1.7514,1.7514,1.7514,1.7514,1.7514,1.7514,1.7602,1.8106,1.8305,1.8573,1.9269,1.9545,1.978,2.0359,2.0753,2.0982,2.1082,2.1109,2.1109,2.1109,2.1109,2.1109,2.1109,2.1109,2.1109,2.1109,2.1109,2.1109,2.1109,2.1109,2.1109,2.1109,2.1109,2.1109,2.1109,2.1109,2.1109,2.1109,2.1109,2.1109,2.1109,2.1109,2.1109,2.1109,2.1109,2.1109,2.1109,2.1109,2.1109,2.1109,2.1109,2.1109,2.1109,2.1109,2.1109,2.1122,2.1341,2.1289,2.1109,2.1109,2.1109,2.1109,2.1109,2.1109,2.1109,2.1109,2.1109,2.1109,0.0,0.0,0.0,0.0,0.0,0.0,0.0,0.0,0.0,0.0,0.0,0.0,0.0,0.0,0.668,0.6877,0.7071,0.721,0.721,0.721,0.721,0.721,0.7487,0.7765,0.8069,0.7792,0.7765,0.8069,0.7487,0.7422,0.7864,0.7944,0.8089,0.8296,0.9015,0.9346,0.9481,1.0547,1.2087,1.3905,1.5156,1.6408,1.7514,1.7514,1.7514,1.7514,1.7514,1.7514,1.7514,1.7514,1.7514,1.7514,1.7514,1.7625,1.7889,1.8275,1.8567,1.8894,1.9601,1.987,2.007,2.057,2.0895,2.1109,2.1109,2.1109,2.1109,2.1109,2.1109,2.1109,2.1109,2.1109,2.1109,2.1109,2.1109,2.1109,2.1109,2.1109,2.1109,2.1109,2.1109,2.1109,2.1109,2.1109,2.1109,2.1109,2.1109,2.1109,2.1109,2.1109,2.1109,2.1109,2.1109,2.1109,2.1109,2.1109,2.1109,2.1109,2.1109,2.1162,2.1256,2.1256,2.1309,2.1416,2.1642,2.1562,2.1263,2.1363,2.1403,2.1403,2.1403,2.1343,2.1256,2.1256,2.1196,2.1109,0.0,0.0,0.0,0.0,0.0,0.0,0.0,0.0,0.0,0.5343,0.0,0.0,0.0,0.0,0.0,0.6235,0.6849,0.7182,0.721,0.721,0.721,0.721,0.0,0.0,0.721,0.8042,0.8042,0.721,0.721,0.7152,0.707,0.7682,0.7496,0.6687,0.7563,0.8519,0.9448,0.9995,1.1624,1.3956,1.5138,1.6366,1.7514,1.7514,1.7514,1.7514,1.7514,1.7514,1.7514,1.7514,1.7514,1.7514,1.7514,1.7918,1.8392,1.8392,1.8865,1.9461,0.0,0.0,0.0,2.0632,2.0895,2.1109,2.1109,2.1109,2.1109,2.1109,2.1109,2.1109,2.1109,2.1109,2.1109,2.1109,2.1109,2.1109,2.1109,2.1109,2.1109,2.1109,2.1109,2.1109,2.1109,2.1109,2.1109,2.1109,2.1109,2.1109,2.1109,2.1109,2.1109,2.1109,2.1109,2.1109,2.1109,2.1109,2.1109,2.1122,2.1122,2.1276,2.1602,2.1602,2.1749,2.1984,2.1997,2.187,2.1629,2.191,2.1984,2.1984,2.1984,2.1843,2.1602,2.1602,2.1415,2.1136,0.0,0.0,0.0,0.0,0.0,0.0,0.0,0.0,0.4089,0.0,0.0,0.0,0.4758,0.5148,0.565,0.6235,0.6457,0.6735,0.7182,0.721,0.721,0.721,0.7432,0.746,0.721,0.7432,0.7432,0.721,0.721,0.7498,0.8066,0.7431,0.7381,0.7807,0.7451,0.8275,1.0003,1.0232,1.2183,1.5138,1.5454,1.6366,1.7514,1.7514,1.7514,1.7514,1.7514,1.7514,1.7514,1.7514,1.7514,1.7514,1.7514,1.7784,1.8142,1.8334,1.8706,1.915,1.9654,0.0,0.0,0.0,0.0,0.0,2.1109,2.1109,2.1109,2.1109,2.1109,2.1109,2.1109,2.1109,2.1109,2.1109,2.1109,2.1109,2.1109,2.1109,2.1109,2.1109,2.1109,2.1109,2.1109,2.1109,2.1109,2.1109,2.1109,2.1109,2.1109,2.1109,2.1109,2.1109,2.1109,2.1109,2.1109,2.1109,2.1216,2.1462,2.1462,2.1616,2.1897,2.1897,2.1943,2.1997,2.2211,2.2251,2.2171,2.2038,2.1984,2.1984,2.1984,2.1937,2.1897,2.1897,2.1817,2.171,0.0,0.0,0.0,0.0,0.0,0.0,0.3536,0.3571,0.3587,0.0,0.0,0.0,0.4117,0.4674,0.5176,0.5511,0.6012,0.6457,0.6791,0.7071,0.721,0.721,0.721,0.721,0.721,0.721,0.716,0.7111,0.7111,0.7358,0.7765,0.7106,0.713,0.7738,0.7304,0.8295,1.0281,1.0051,1.182,1.4873,1.565,1.6272,1.6767,1.7303,1.7514,1.7514,1.7514,1.7514,1.7514,1.7514,1.7514,1.7514,1.7514,1.7813,1.8194,1.8363,1.8742,1.9189,1.9543,1.9833,2.012,2.0421,0.0,0.0,2.1082,2.1109,2.1109,2.1109,2.1109,2.1109,2.1109,2.1109,2.1109,2.1109,2.1109,2.1109,2.1109,2.1109,2.1109,2.1109,2.1109,2.1109,2.1109,2.1109,2.1109,2.1109,2.1109,2.1109,2.1109,2.1109,2.1109,2.1109,2.1109,2.1109,2.1109,2.1229,2.1415,2.1582,2.1709,2.1917,2.2164,2.2164,2.2231,2.2392,2.2532,2.2605,2.2592,2.2452,2.2385,2.2385,2.2385,2.2278,2.2164,2.2164,2.2091,2.1997,0.0,0.0,0.0,0.3294,0.3355,0.3441,0.3497,0.3552,0.3587,0.0,0.3582,0.3578,0.3578,0.4071,0.4399,0.4483,0.5509,0.6201,0.6257,0.685,0.7191,0.7191,0.7191,0.7191,0.7191,0.7149,0.7092,0.6967,0.6967,0.6915,0.6823,0.6823,0.692,0.7087,0.7241,0.8406,1.0276,0.968,1.1034,1.369,1.5486,1.5994,1.5752,1.7003,1.7514,1.7514,1.7514,1.7514,1.7514,1.7514,1.7514,1.7514,1.7514,1.7895,1.8363,1.8392,1.8858,1.9336,1.9395,1.9609,1.9867,2.013,2.0454,0.0,2.1042,2.1109,2.1109,2.1109,2.1109,2.1109,2.1109,2.1109,2.1109,2.1109,2.1109,2.1109,2.1109,2.1109,2.1109,2.1109,2.1109,2.1109,2.1109,2.1109,2.1109,2.1109,2.1109,2.1109,2.1109,2.1109,2.1109,2.1109,2.1109,2.1122,2.1156,2.1455,2.1616,2.1689,2.1943,2.2184,2.2465,2.2465,2.2612,2.2893,2.2893,2.2893,2.2893,2.2893,2.2893,2.2893,2.2893,2.2733,2.2465,2.2465,2.2305,2.2078,0.0,0.0,0.3297,0.3358,0.3441,0.35,0.3561,0.3579,0.3587,0.3587,0.3545,0.3514,0.3514,0.3581,0.3822,0.4303,0.4945,0.5534,0.6015,0.6664,0.7046,0.7046,0.7046,0.7046,0.7046,0.6921,0.6861,0.6836,0.6836,0.6877,0.695,0.695,0.7199,0.7632,0.74,0.8202,0.9787,1.0195,1.1185,1.2607,1.4009,1.4966,1.5752,1.7003,1.7514,1.7514,1.7514,1.7514,1.7514,1.7514,1.7514,1.7514,1.7514,1.7784,1.8112,1.8334,1.8684,1.9062,1.9336,1.9609,1.9867,2.013,2.0454,0.0,2.1042,2.1109,2.1109,2.1109,2.1109,2.1109,2.1109,2.1109,2.1109,2.1109,2.1109,2.1109,2.1109,2.1109,2.1109,2.1109,2.1109,2.1109,2.1109,2.1109,2.1109,2.1109,2.1109,2.1109,2.1109,2.1109,2.1109,2.1109,2.1109,2.1223,2.1495,2.1555,2.1823,2.2251,2.2305,2.2492,2.2813,2.2813,2.284,2.2893,2.2893,2.2893,2.2893,2.2893,2.2893,2.2893,2.2893,2.286,2.2813,2.2813,2.2773,2.2693,0.3244,0.3274,0.3315,0.3375,0.3436,0.3465,0.3496,0.35,0.3511,0.3538,0.3542,0.3542,0.3542,0.3516,0.3757,0.4452,0.5033,0.563,0.6265,0.6909,0.7225,0.7163,0.716,0.713,0.7098,0.7037,0.6977,0.6893,0.6893,0.6923,0.7013,0.721,0.7865,0.8819,0.8267,0.8993,1.0621,0.9996,1.0699,1.2363,1.4128,1.5149,1.5752,1.7003,1.7514,1.7514,1.7514,1.7514,1.7514,1.7514,1.7514,1.7514,1.7514,1.7726,1.8054,1.8305,1.8648,1.8968,1.9307,1.9502,1.9686,2.0097,2.0341,0.0,0.0,2.1109,2.1109,2.1109,2.1109,2.1109,2.1109,2.1109,2.1109,2.1109,2.1109,2.1109,2.1109,2.1109,2.1109,2.1109,2.1109,2.1109,2.1109,2.1109,2.1109,2.1109,2.1109,2.1109,2.1109,2.1109,2.1109,2.1109,2.1256,2.1435,2.1582,2.1877,2.2131,2.2385,2.2572,2.2753,2.2893,2.2893,2.2893,2.2893,2.2893,2.2893,2.2893,2.2893,2.2893,2.2893,2.2893,2.2893,2.2893,2.2893,2.2893,2.2873,0.3286,0.3305,0.3328,0.3403,0.3413,0.3416,0.3427,0.3428,0.3448,0.3506,0.3556,0.3643,0.3783,0.3783,0.408,0.4773,0.5386,0.5963,0.6489,0.7111,0.7411,0.7311,0.7308,0.7262,0.722,0.7196,0.7136,0.7046,0.7046,0.7057,0.7056,0.7427,0.8332,0.9663,0.9183,0.9802,1.1113,0.9865,1.0492,1.2491,1.4445,1.5391,1.5752,1.7003,1.7514,1.7514,1.7514,1.7514,1.7514,1.7514,1.7514,1.7514,1.7514,1.7726,1.8025,1.8252,1.8561,1.8881,1.9214,1.9347,1.9514,2.007,2.0244,2.0424,0.0,0.0,0.0,2.1109,2.1109,2.1109,2.1109,2.1109,2.1089,2.1036,2.1076,2.1089,2.1036,2.1076,2.1109,2.1109,2.1109,2.1109,2.1109,2.1109,2.1109,2.1109,2.1109,2.1109,2.1109,2.1109,2.1136,2.1196,2.1462,2.1642,2.1749,2.2184,2.2411,2.2505,2.278,2.2893,2.2893,2.2893,2.2893,2.2893,2.2893,2.2893,2.2893,2.2893,2.2893,2.2893,2.2893,2.2893,2.2893,2.2893,2.2893,2.2893,0.3294,0.3339,0.3403,0.3412,0.3413,0.3429,0.3478,0.0,0.3508,0.357,0.3583,0.3839,0.4424,0.448,0.4706,0.5273,0.5922,0.6278,0.6257,0.6932,0.7322,0.7308,0.7308,0.73,0.7286,0.7239,0.7204,0.7191,0.7191,0.7218,0.727,0.7421,0.7985,0.886,0.9604,0.974,0.947,1.0447,1.1622,1.2892,1.3614,1.4589,1.5752,1.7003,1.7514,1.7514,1.7514,1.7514,1.7514,1.7514,1.7514,1.7514,1.7514,1.7726,1.8002,1.8025,1.8252,1.8532,1.8881,1.9122,1.945,2.0056,2.0434,2.0708,2.1036,0.0,2.1109,2.1109,0.0,2.1109,2.1109,0.0,0.0,2.0768,2.0942,2.1022,2.0793,2.0949,2.1109,2.1109,2.1109,2.1109,2.1109,2.1109,2.1109,2.1109,2.1109,2.1109,2.1109,2.1109,2.1229,2.1529,2.1569,2.183,2.2311,2.2385,2.2552,2.2847,2.288,2.2893,2.2893,2.2893,2.2893,2.2893,2.2893,2.2893,2.2893,2.2893,2.2893,2.2893,2.2893,2.2893,2.2893,2.2893,2.2893,2.2893,0.3342,0.334,0.3355,0.345,0.3435,0.3431,0.3488,0.3526,0.3571,0.3661,0.3699,0.3836,0.4095,0.4124,0.453,0.5551,0.5878,0.6371,0.7148,0.7474,0.7616,0.7522,0.7519,0.7484,0.7416,0.7394,0.7366,0.7366,0.7366,0.7429,0.7548,0.7774,0.8473,0.9558,1.0416,1.0911,1.1093,1.1351,1.249,1.4153,1.3836,1.4917,1.6762,1.7303,1.7514,1.7514,1.7514,1.7514,1.7514,1.7514,1.7514,1.7514,1.7514,1.7602,1.7755,1.7937,1.8083,1.8313,1.8965,1.9207,1.9499,2.0283,2.0612,2.0786,2.1042,2.1109,2.1109,2.1109,0.0,0.0,0.0,0.0,0.0,0.0,2.1029,2.1069,2.0942,2.1036,2.1109,2.1109,2.1109,2.1109,2.1109,2.1109,2.1109,2.1109,2.1109,2.1109,2.1109,2.1109,2.1243,2.1575,2.1749,2.1997,2.2412,2.2585,2.2773,2.2893,2.2893,2.2893,2.2893,2.2893,2.2893,2.2893,2.2893,2.2893,2.2893,2.2893,2.2893,2.2893,2.2893,2.2893,2.2893,2.2893,2.2893,2.2893,0.3427,0.3361,0.3351,0.3478,0.345,0.3437,0.3511,0.3587,0.3681,0.3726,0.3786,0.3883,0.4059,0.4252,0.4841,0.5957,0.6254,0.68,0.779,0.7883,0.7864,0.775,0.7747,0.7706,0.7616,0.7616,0.7616,0.7616,0.7616,0.7646,0.7701,0.7973,0.8629,0.9586,1.1033,1.181,1.2079,1.2571,1.3687,1.5084,1.4475,1.5545,1.7514,1.7514,1.7514,1.7514,1.7514,1.7514,1.7514,1.7514,1.7514,1.7514,1.7514,1.7514,1.7556,1.7876,1.796,1.8133,1.8926,1.9264,1.9613,2.0383,2.0704,2.0848,2.1062,2.1109,2.1109,2.1109,2.1109,0.0,0.0,0.0,2.1082,2.1002,0.0,2.1082,2.1002,2.1056,2.1109,2.1109,2.1109,2.1109,2.1109,2.1109,2.1109,2.1109,2.1109,2.1109,2.1109,2.1109,2.1283,2.1696,2.191,2.2164,2.2539,2.2786,2.2893,2.2893,2.2893,2.2893,2.2893,2.2893,2.2893,2.2893,2.2893,2.2893,2.2893,2.2893,2.2893,2.2893,2.2893,2.2893,2.2893,2.2893,2.2893,2.2893,0.3493,0.3448,0.3428,0.3486,0.345,0.3451,0.3567,0.3714,0.3794,0.3795,0.385,0.4128,0.4697,0.5394,0.605,0.6628,0.7377,0.779,0.7714,0.784,0.79,0.7897,0.7897,0.7894,0.7889,0.7889,0.7889,0.7889,0.7889,0.7837,0.7703,0.7842,0.7952,0.8201,1.1268,1.2031,1.115,1.4192,1.5405,1.5293,1.5478,1.6319,1.7514,1.7514,1.7514,1.7514,1.7514,1.7514,1.7514,1.7514,1.7514,1.7514,1.7514,1.7514,1.7562,1.7816,1.7889,1.801,1.8581,1.9186,1.9767,2.0116,2.0669,2.1096,2.1109,2.1109,2.1109,2.1109,2.1109,2.1109,2.1109,2.1109,2.1022,2.0766,2.0922,0.0,0.0,2.0935,2.1109,2.1109,2.1109,2.1109,2.1109,2.1109,2.1109,2.1109,2.1109,2.1109,2.1109,2.1109,2.1376,2.1984,2.2017,2.2298,2.288,2.2893,2.2893,2.2893,2.2893,2.2893,2.2893,2.2893,2.2893,2.2893,2.2893,2.2893,2.2893,2.2893,2.2893,2.2893,2.2893,2.2893,2.2893,2.2893,2.2893,2.2893,0.3541,0.3541,0.3534,0.3553,0.3541,0.3582,0.3773,0.3832,0.4022,0.4484,0.4539,0.4799,0.547,0.5737,0.6141,0.678,0.7083,0.7396,0.7815,0.7881,0.7903,0.7903,0.7903,0.7903,0.7903,0.7903,0.7903,0.7903,0.7903,0.7842,0.7703,0.7741,0.773,0.7813,1.1091,1.2337,1.2124,1.4576,1.6057,1.6757,1.6821,1.7126,1.7514,1.7514,1.7514,1.7514,1.7514,1.7514,1.7514,1.7514,1.7514,1.7538,1.772,1.7768,1.7822,1.8101,1.8149,1.8301,1.8871,1.9194,1.9562,2.0287,2.0488,2.0625,2.1006,2.0962,2.0882,2.1069,2.1109,2.1109,2.1109,2.1109,2.1076,2.0982,2.1042,2.1076,0.0,2.1049,2.1109,2.1109,2.1109,2.1109,2.1109,2.1109,2.1109,2.1109,2.1109,2.1109,2.1109,2.1109,2.1383,2.1964,2.1984,2.2298,2.2887,2.2893,2.2893,2.2893,2.2893,2.2893,2.2893,2.2893,2.2893,2.2893,2.2893,2.2893,2.2893,2.2893,2.2893,2.2893,2.2893,2.2893,2.2893,2.2893,2.2893,2.2893,0.3665,0.368,0.368,0.368,0.3699,0.3753,0.3872,0.4088,0.4419,0.4828,0.5109,0.5416,0.5845,0.6121,0.6429,0.6858,0.7103,0.7441,0.7869,0.7903,0.7903,0.7903,0.7903,0.7903,0.7903,0.7903,0.7903,0.7903,0.7903,0.7842,0.7703,0.7741,0.7676,0.7641,1.0568,1.2115,1.2651,1.4725,1.6349,1.7514,1.7514,1.7514,1.7514,1.7514,1.7514,1.7514,1.7514,1.7514,1.7514,1.7514,1.7575,1.7683,1.7853,1.7974,1.8076,1.8354,1.8432,1.8549,1.9029,1.9254,1.9487,2.0081,2.0188,2.0293,2.0816,2.078,2.0757,2.1037,2.1109,2.1109,2.1109,2.1109,2.1109,2.1109,2.1109,2.1109,0.0,2.1109,2.1109,2.1109,2.1109,2.1109,2.1109,2.1109,2.1109,2.1109,2.1109,2.1109,2.1109,2.1109,2.1383,2.1964,2.1984,2.2298,2.2887,2.2893,2.2893,2.2893,2.2893,2.2893,2.2893,2.2893,2.2893,2.2893,2.2893,2.2893,2.2893,2.2893,2.2893,2.2893,2.2893,2.2893,2.2893,2.2893,2.2893,2.2893,0.3803,0.3806,0.3807,0.3807,0.3856,0.3894,0.3894,0.4457,0.4926,0.4957,0.5538,0.5968,0.5998,0.658,0.695,0.695,0.7533,0.7903,0.7903,0.7903,0.7903,0.7903,0.7903,0.7903,0.7903,0.7903,0.7903,0.7903,0.7903,0.7842,0.7703,0.7842,0.7741,0.7596,0.9819,1.1391,1.2547,1.47,1.6349,1.7514,1.7514,1.7514,1.7514,1.7514,1.7514,1.7514,1.7514,1.7514,1.7485,1.7526,1.7695,1.7907,1.7937,1.8094,1.8366,1.8625,1.8735,1.879,1.9038,1.9328,1.9577,1.9609,1.9833,2.0151,2.0513,2.0564,2.0652,2.1014,2.1077,2.1109,2.1109,2.1109,2.1109,2.1109,2.1109,2.1109,2.1109,2.1109,2.1109,2.1109,2.1109,2.1109,2.1109,2.1109,2.1109,2.1109,2.1109,2.1109,2.1109,2.1109,2.1383,2.1964,2.1984,2.2298,2.2887,2.2893,2.2893,2.2893,2.2893,2.2893,2.2893,2.2893,2.2893,2.2893,2.2893,2.2893,2.2893,2.2893,2.2893,2.2893,2.2893,2.2893,2.2893,2.2893,2.2893,2.2893,0.3858,0.3873,0.3873,0.3873,0.3886,0.3897,0.3897,0.4458,0.5078,0.5569,0.6215,0.6827,0.7319,0.7533,0.7655,0.7655,0.7808,0.7903,0.7903,0.7903,0.7903,0.7903,0.7903,0.7903,0.7903,0.7903,0.7903,0.7903,0.7903,0.7842,0.7701,0.7731,0.7712,0.7746,0.9753,1.0867,1.1427,1.4346,1.6349,1.7514,1.7514,1.7514,1.7514,1.7514,1.7514,1.7514,1.7514,1.7514,1.7538,1.7738,1.7847,1.7974,1.8379,1.8523,1.8638,1.8929,1.9007,1.9019,1.9086,1.9168,1.9296,1.9545,1.9492,1.9525,2.0087,2.0263,2.0386,2.0658,2.0919,2.1109,2.1109,2.1109,2.1109,2.1109,2.1109,2.1109,2.1109,2.1109,2.1109,2.1109,2.1109,2.1109,2.1109,2.1109,2.1109,2.1109,2.1109,2.1109,2.1109,2.1109,2.1383,2.1964,2.1984,2.2298,2.2887,2.2893,2.2893,2.2893,2.2893,2.2893,2.2893,2.2893,2.2893,2.2893,2.2893,2.2893,2.2893,2.2893,2.2893,2.2893,2.2893,2.2893,2.2893,2.2893,2.2893,2.2893,0.3892,0.3896,0.398,0.4286,0.4347,0.4347,0.4347,0.4897,0.5569,0.6245,0.6919,0.749,0.7945,0.7982,0.8003,0.8024,0.8012,0.7982,0.7982,0.793,0.7903,0.7903,0.7903,0.7903,0.7903,0.7903,0.7903,0.7903,0.7903,0.787,0.7774,0.7774,0.7774,0.7834,0.9237,1.0535,1.1844,1.5055,1.6856,1.7514,1.7514,1.7514,0.0,1.7514,1.7581,1.7683,1.7683,1.7683,1.7708,1.7853,1.8064,1.8312,1.8589,1.8796,1.8917,1.9068,1.911,1.911,1.911,1.911,1.9136,1.9328,1.9244,1.9233,1.9776,1.9916,2.0067,2.0513,2.0767,2.0919,2.1077,2.1109,2.1109,2.1109,2.1109,2.1109,2.1109,2.1109,2.1109,2.1109,2.1109,2.1109,2.1109,2.1109,2.1109,2.1109,2.1109,2.1109,2.1109,2.1109,2.1383,2.1964,2.1984,2.2298,2.2887,2.2893,2.2893,2.2893,2.2893,2.2893,2.2893,2.2893,2.2893,2.2893,2.2893,2.2893,2.2893,2.2893,2.2893,2.2893,2.2893,2.2893,2.2893,2.2893,2.2893,2.2893,0.4011,0.4104,0.4347,0.4926,0.5018,0.5082,0.5184,0.5679,0.6263,0.6848,0.7508,0.799,0.8096,0.811,0.8154,0.8193,0.8138,0.811,0.811,0.8009,0.7943,0.7927,0.7924,0.7919,0.7903,0.7903,0.7903,0.7903,0.7903,0.7903,0.7903,0.8022,0.8083,0.8116,0.897,1.0744,1.3248,1.6066,1.7361,1.7485,1.755,1.7562,1.7569,1.7605,1.7762,1.7955,1.7955,1.7955,1.7968,1.7998,1.8324,1.8723,1.8753,1.8923,1.911,1.911,1.911,1.911,1.911,1.911,1.911,1.911,1.911,1.9168,1.9482,1.9577,1.9769,2.0354,2.0545,2.0704,2.0982,2.1077,2.1109,2.1109,2.1109,2.1109,2.1109,2.1109,2.1109,2.1109,2.1109,0.0,2.1109,2.1109,2.1109,2.1109,2.1109,2.1109,2.1109,2.1109,2.1383,2.1964,2.1984,2.2298,2.2887,2.2893,2.2893,2.2893,2.2893,2.2893,2.2893,2.2893,2.2893,2.2893,2.2893,2.2893,2.2893,2.2893,2.2893,2.2893,2.2893,2.2893,2.2893,2.2893,2.2893,2.2893,0.4621,0.5172,0.5602,0.5692,0.5722,0.5964,0.6603,0.6801,0.6928,0.7051,0.7697,0.8147,0.8169,0.8172,0.818,0.8202,0.8183,0.8172,0.8172,0.8153,0.8125,0.8058,0.8053,0.8006,0.7905,0.7903,0.7903,0.7903,0.7903,0.7903,0.7903,0.8696,0.9062,0.9122,1.0834,1.2903,1.5119,1.5688,1.6526,1.7532,1.7744,1.7835,1.7859,1.8094,1.8179,1.8221,1.8221,1.8221,1.8251,1.85,1.8607,1.8753,1.8971,1.9074,1.911,1.911,1.911,1.911,1.911,1.911,1.911,1.911,1.911,1.9104,1.9168,1.9386,1.9641,1.9737,2.0221,2.0609,2.0672,2.0919,2.1109,2.1109,2.1109,2.1109,2.1109,2.1109,2.1109,2.1109,2.1109,2.1109,2.1109,2.1109,2.1109,2.1109,2.1109,2.1109,2.1109,2.1109,2.1383,2.1964,2.1984,2.2298,2.2887,2.2893,2.2893,2.2893,2.2893,2.2893,2.2893,2.2893,2.2893,2.2893,2.2893,2.2893,2.2893,2.2893,2.2893,2.2893,2.2893,2.2893,2.2893,2.2893,2.2893,2.2893,0.5356,0.5729,0.6102,0.6474,0.658,0.6852,0.7567,0.7723,0.7739,0.768,0.7975,0.8226,0.8291,0.8296,0.8321,0.8413,0.8331,0.8296,0.8296,0.8239,0.8177,0.8149,0.8118,0.8058,0.7998,0.7935,0.7903,0.7903,0.8391,0.8635,0.8665,0.9933,1.0536,1.0626,1.2753,1.4401,1.5639,1.6455,1.7143,1.7738,1.8016,1.8119,1.8106,1.8239,1.8378,1.8499,1.8499,1.8614,1.8698,1.8686,1.8776,1.8941,1.9068,1.911,1.911,1.911,1.911,1.911,1.911,1.911,1.911,1.911,1.911,1.911,1.911,1.9232,1.9386,1.9577,1.9864,2.0189,2.0545,2.0856,2.1109,2.1109,2.1109,2.1109,2.1109,2.1109,2.1109,2.1109,2.1109,2.1109,2.1109,2.1109,2.1109,2.1109,2.1109,2.1109,2.1109,2.1109,2.1383,2.1964,2.1984,2.2298,2.2887,2.2893,2.2893,2.2893,2.2893,2.2893,2.2893,2.2893,2.2893,2.2893,2.2893,2.2893,2.2893,2.2893,2.2893,2.2893,2.2893,2.2893,2.2893,2.2893,2.2893,2.2893,0.6152,0.6353,0.6704,0.7239,0.7407,0.7666,0.8173,0.8323,0.835,0.8256,0.8264,0.8313,0.8443,0.8454,0.8489,0.8579,0.8505,0.8454,0.8454,0.8331,0.8267,0.8242,0.8182,0.8151,0.8124,0.8003,0.7971,0.8033,0.8677,0.9031,0.9156,1.0895,1.2062,1.2813,1.4609,1.5655,1.6166,1.7386,1.7937,1.8016,1.8263,1.8378,1.8384,1.8438,1.8589,1.8802,1.8802,1.8929,1.9074,1.8868,1.8941,1.911,1.911,1.911,1.911,1.911,1.911,1.911,1.911,1.911,1.911,1.911,1.911,1.911,1.911,1.911,1.9168,1.945,1.9545,1.9801,2.0482,2.0824,2.1014,2.1077,2.1109,2.1109,2.1109,2.1109,2.1109,2.1109,2.1109,2.1109,2.1109,2.1109,2.1109,2.1109,2.1109,2.1109,2.1109,2.1109,2.1383,2.1964,2.1984,2.2298,2.2887,2.2893,2.2893,2.2893,2.2893,2.2893,2.2893,2.2893,2.2893,2.2893,2.2893,2.2893,2.2893,2.2893,2.2893,2.2893,2.2893,2.2893,2.2893,2.2893,2.2893,2.2893,0.7002,0.7533,0.8026,0.809,0.81,0.8175,0.835,0.8378,0.838,0.8369,0.8489,0.856,0.8571,0.8571,0.8576,0.8587,0.8579,0.8571,0.8571,0.856,0.8508,0.8372,0.8391,0.8299,0.8188,0.8129,0.8191,0.8437,0.817,0.818,0.8522,1.0683,1.3262,1.6053,1.6266,1.6865,1.7685,1.7829,1.8052,1.8275,1.8541,1.865,1.8674,1.8947,1.905,1.9074,1.9074,1.9086,1.9104,1.908,1.9086,1.911,1.911,1.911,1.911,1.911,1.911,1.911,1.911,1.911,1.911,1.911,1.911,1.911,1.911,1.911,1.911,1.9136,1.9386,1.9801,2.0482,2.064,2.0767,2.1046,2.1109,2.1109,2.1109,2.1109,2.1109,2.1109,2.1109,2.1109,2.1109,2.1109,2.1109,2.1109,2.1109,2.1109,2.1109,2.1109,2.1383,2.1964,2.1984,2.2298,2.2887,2.2893,2.2893,2.2893,2.2893,2.2893,2.2893,2.2893,2.2893,2.2893,2.2893,2.2893,2.2893,2.2893,2.2893,2.2893,2.2893,2.2893,2.2893,2.2893,2.2893,2.2893,0.7748,0.8068,0.8313,0.8313,0.8402,0.8465,0.8513,0.8519,0.8519,0.8519,0.856,0.8587,0.8587,0.8587,0.8587,0.8587,0.8587,0.8587,0.8587,0.8587,0.8568,0.8522,0.8454,0.8364,0.8313,0.9265,0.9818,0.9944,1.087,1.1589,1.2077,1.3421,1.5233,1.7327,1.7327,1.7625,1.8137,1.8324,1.8426,1.8553,1.8813,1.8953,1.8965,1.9068,1.911,1.911,1.911,1.911,1.911,1.911,1.911,1.911,1.911,1.911,1.911,1.911,1.911,1.911,1.911,1.911,1.911,1.911,1.911,1.911,1.911,1.911,1.911,1.911,1.9354,1.9737,2.0195,2.045,2.0704,2.1046,2.1109,2.1109,2.1109,2.1109,2.1109,2.1109,2.1109,2.1109,2.1109,2.1109,2.1109,2.1109,2.1109,2.1109,2.1109,2.1109,2.1383,2.1964,2.1984,2.2298,2.2887,2.2893,2.2893,2.2893,2.2893,2.2893,2.2893,2.2893,2.2893,2.2893,2.2893,2.2893,2.2893,2.2893,2.2893,2.2893,2.2893,2.2893,2.2893,2.2893,2.2893,2.2893,0.8256,0.8353,0.8467,0.8467,0.8532,0.8587,0.8587,0.8587,0.8587,0.8587,0.8587,0.8587,0.8587,0.8587,0.8587,0.8587,0.8587,0.8587,0.8587,0.8587,0.8587,0.8587,0.8511,0.85,0.8599,1.0141,1.1047,1.1238,1.2821,1.3837,1.4359,1.5256,1.6515,1.8028,1.8028,1.8185,1.842,1.8607,1.876,1.8813,1.9032,1.911,1.911,1.911,1.911,1.911,1.911,1.911,1.911,1.911,1.911,1.911,1.911,1.911,1.911,1.911,1.911,1.911,1.911,1.911,1.911,1.911,1.911,1.911,1.911,1.911,1.911,1.911,1.9296,1.9584,2.0011,2.0297,2.0577,2.1014,2.1109,2.1109,2.1109,2.1109,2.1109,2.1109,2.1109,2.1109,2.1109,2.1109,2.1109,2.1109,2.1109,2.1109,2.1109,2.1109,2.1383,2.1964,2.1984,2.2298,2.2887,2.2893,2.2893,2.2893,2.2893,2.2893,2.2893,2.2893,2.2893,2.2893,2.2893,2.2893,2.2893,2.2893,2.2893,2.2893,2.2893,2.2893,2.2893,2.2893,2.2893,2.2893,0.8383,0.8508,0.8587,0.8587,0.8587,0.8587,0.8587,0.8587,0.8587,0.8587,0.8587,0.8587,0.8587,0.8587,0.8587,0.8587,0.8587,0.8587,0.8587,0.8587,0.8587,0.8587,0.8587,0.8751,0.9081,1.0355,1.1343,1.2089,1.3045,1.3671,1.4015,1.5287,1.6764,1.8287,1.8287,1.8432,1.8711,1.8686,1.8868,1.9104,1.911,1.911,1.911,1.911,1.911,1.911,1.911,1.911,1.911,1.911,1.911,1.911,1.911,1.911,1.911,1.911,1.911,1.911,1.911,1.911,1.911,1.911,1.911,1.911,1.911,1.911,1.911,1.911,1.911,1.9302,1.9979,2.0106,2.0329,2.0982,2.1109,2.1109,2.1109,2.1109,2.1109,2.1109,2.1109,2.1109,2.1109,2.1109,2.1109,2.1109,2.1109,2.1109,2.1109,2.1109,2.1383,2.1964,2.1984,2.2298,2.2887,2.2893,2.2893,2.2893,2.2893,2.2893,2.2893,2.2893,2.2893,2.2893,2.2893,2.2893,2.2893,2.2893,2.2893,2.2893,2.2893,2.2893,2.2893,2.2893,2.2893,2.2893,0.8532,0.8562,0.8587,0.8587,0.8587,0.8587,0.8587,0.8587,0.8687,0.8917,0.895,0.9053,0.9325,0.8889,0.8587,0.8587,0.8587,0.8587,0.8587,0.8587,0.8687,0.8917,0.9869,1.0525,1.0855,1.3416,1.4849,1.5113,1.5964,1.6311,1.6274,1.712,1.7909,1.8559,1.8559,1.8735,1.8983,1.8983,1.9032,1.911,1.911,1.911,1.911,1.911,1.911,1.911,1.911,1.911,1.911,1.911,1.911,1.911,1.911,1.911,1.911,1.911,1.911,1.911,1.911,1.911,1.911,1.911,1.911,1.911,1.911,1.911,1.911,1.911,1.911,1.9302,1.9979,2.0106,2.0329,2.0982,2.1109,2.1109,2.1109,2.1109,2.1109,2.1109,2.1109,2.1109,2.1109,2.1109,2.1109,2.1109,2.1109,2.1109,2.1109,2.1335,2.1616,2.1977,2.2178,2.2465,2.2893,2.2893,2.2893,2.2893,2.2893,2.2893,2.2893,2.2893,2.2893,2.2893,2.2893,2.2893,2.2893,2.2893,2.2893,2.2893,2.2893,2.2893,2.2893,2.2893,2.2893,2.2893,0.8587,0.8587,0.8653,0.8753,0.8784,0.8853,0.8989,0.9023,0.9089,0.9289,0.9319,0.9422,0.9661,0.9748,0.9576,0.9056,0.9023,0.922,0.9739,0.9772,1.0101,1.0819,1.1706,1.2357,1.2722,1.5204,1.6549,1.6678,1.7714,1.8141,1.8003,1.839,1.8674,1.8862,1.8862,1.8953,1.911,1.911,1.911,1.911,1.911,1.911,1.911,1.911,1.911,1.911,1.911,1.911,1.911,1.911,1.911,1.911,1.911,1.911,1.911,1.911,1.911,1.911,1.911,1.911,1.911,1.911,1.911,1.911,1.911,1.911,1.911,1.911,1.911,1.9302,1.9979,2.0106,2.0329,2.0982,2.1109,2.1109,2.1109,2.1109,2.1109,2.1109,2.1109,2.1109,2.1109,2.1109,2.1109,2.1109,2.1109,2.1109,2.1109,2.1422,2.1716,2.1977,2.2265,2.2565,2.2893,2.2893,2.2893,2.2893,2.2893,2.2893,2.2893,2.2893,2.2893,2.2893,2.2893,2.2893,2.2893,2.2893,2.2893,2.2893,2.2893,2.2893,2.2893,2.2893,2.2893,2.2893,0.862,0.862,0.8753,0.9084,0.915,0.9253,0.9628,0.9694,0.9697,0.9728,0.9728,0.9728,0.9761,1.0866,1.1127,0.9891,0.9894,1.0475,1.1607,1.1805,1.2422,1.3794,1.3925,1.4157,1.4553,1.5961,1.6845,1.7141,1.8451,1.911,1.911,1.911,1.911,1.911,1.911,1.911,1.911,1.911,1.911,1.911,1.911,1.911,1.911,1.911,1.911,1.911,1.911,1.911,1.911,1.911,1.911,1.911,1.911,1.911,1.911,1.911,1.911,1.911,1.911,1.911,1.911,1.911,1.911,1.911,1.911,1.911,1.911,1.9142,1.9142,1.9334,1.9979,2.0106,2.0323,2.0951,2.1077,2.1109,2.1109,2.1109,2.1109,2.1109,2.1109,2.1109,2.1109,2.1109,2.1109,2.1109,2.1109,2.1116,2.1136,2.1455,2.1743,2.1977,2.2285,2.2579,2.2893,2.2893,2.2893,2.2893,2.2893,2.2893,2.2893,2.2893,2.2893,2.2893,2.2893,2.2893,2.2893,2.2893,2.2893,2.2893,2.2893,2.2893,2.2893,2.2893,2.2893,2.2893,0.8917,0.8984,0.912,0.9492,0.9558,0.9594,0.9694,0.9694,0.9794,1.006,1.0093,1.019,1.0455,1.0747,1.0813,1.0489,1.1919,1.2496,1.1739,1.2718,1.3602,1.4227,1.5302,1.6026,1.6387,1.7759,1.8515,1.8617,1.8944,1.911,1.911,1.911,1.911,1.911,1.911,1.911,1.911,1.911,1.911,1.911,1.911,1.911,1.911,1.911,1.911,1.911,1.911,1.911,1.911,1.911,1.911,1.911,1.911,1.911,1.911,1.911,1.911,1.911,1.911,1.911,1.911,1.911,1.911,1.911,1.911,1.911,1.9168,1.9418,1.9482,1.9616,2.0011,2.0297,2.0513,2.0704,2.0919,2.1109,2.1109,2.1109,2.1109,2.1109,2.1109,2.1109,2.1109,2.1109,2.1109,2.1109,2.1109,2.1209,2.1468,2.1756,2.1943,2.2017,2.2525,2.2827,2.2893,2.2893,2.2893,2.2893,2.2893,2.2893,2.2893,2.2893,2.2893,2.2893,2.2893,2.2893,2.2893,2.2893,2.2893,2.2893,2.2893,2.2893,2.2893,2.2893,2.2893,2.2893,0.9289,0.9389,0.9489,0.9861,0.9927,0.9994,1.0123,1.016,1.0226,1.0389,1.0422,1.0489,1.0688,1.1277,1.1409,1.0754,1.1725,1.2339,1.2212,1.2927,1.3713,1.46,1.5966,1.6813,1.7012,1.8387,1.911,1.911,1.911,1.911,1.911,1.911,1.911,1.911,1.911,1.911,1.911,1.911,1.911,1.911,1.911,1.911,1.911,1.911,1.911,1.911,1.911,1.911,1.911,1.911,1.911,1.911,1.911,1.911,1.911,1.911,1.911,1.911,1.911,1.911,1.911,1.911,1.911,1.911,1.911,1.9232,1.9392,1.9545,1.9711,1.9934,2.0265,2.0482,2.064,2.0799,2.0982,2.1109,2.1109,2.1109,2.1109,2.1109,2.1109,2.1109,2.1109,2.1109,2.1109,2.1109,2.1109,2.1236,2.1569,2.1856,2.2044,2.2178,2.2659,2.2893,2.2893,2.2893,2.2893,2.2893,2.2893,2.2893,2.2893,2.2893,2.2893,2.2893,2.2893,2.2893,2.2893,2.2893,2.2893,2.2893,2.2893,2.2893,2.2893,2.2893,2.2893,2.2893,0.9694,0.9761,0.9894,1.0226,1.0289,1.0455,1.0949,1.0853,1.0787,1.0982,1.0817,1.0688,1.0688,1.1769,1.1996,1.0787,1.0883,1.1604,1.3013,1.3304,1.4054,1.5461,1.6689,1.7335,1.7335,1.8483,1.911,1.911,1.911,1.911,1.911,1.911,1.911,1.911,1.911,1.911,1.911,1.911,1.911,1.911,1.911,1.911,1.911,1.911,1.911,1.911,1.911,1.911,1.911,1.911,1.911,1.911,1.911,1.911,1.911,1.911,1.911,1.911,1.911,1.911,1.911,1.911,1.911,1.9104,1.9168,1.9386,1.9641,1.9737,1.9973,2.0265,2.0545,2.064,2.0767,2.0982,2.1077,2.1109,2.1109,2.1109,2.1109,2.1109,2.1109,2.1109,2.1109,2.1109,2.1109,2.1109,2.1109,2.1256,2.1629,2.1883,2.2138,2.2472,2.2766,2.2893,2.2893,2.2893,2.2893,2.2893,2.2893,2.2893,2.2893,2.2893,2.2893,2.2893,2.2893,2.2893,2.2893,2.2893,2.2893,2.2893,2.2893,2.2893,2.2893,2.2893,2.2893,2.2893,1.006,1.0127,1.0223,1.0555,1.0621,1.1049,1.2293,1.1475,1.1115,1.2326,1.1442,1.0688,1.0688,1.0916,1.0949,1.0721,1.1802,1.3079,1.4483,1.5684,1.698,1.8393,1.865,1.8778,1.8778,1.8976,1.911,1.911,1.911,1.911,1.911,1.911,1.911,1.911,1.911,1.911,1.911,1.911,1.911,1.911,1.911,1.911,1.911,1.911,1.911,1.911,1.911,1.911,1.911,1.911,1.911,1.911,1.911,1.911,1.911,1.911,1.911,1.911,1.911,1.911,1.911,1.911,1.911,1.9168,1.945,1.9577,1.9769,2.0316,2.0482,2.0545,2.0577,2.0831,2.0951,2.0736,2.0919,2.1109,2.1109,2.1109,2.1109,2.1109,2.1109,2.1109,2.1109,2.1109,2.1109,2.1109,2.1109,2.1349,2.1923,2.1997,2.2231,2.2813,2.2873,2.2893,2.2893,2.2893,2.2893,2.2893,2.2893,2.2893,2.2893,2.2893,2.2893,2.2893,2.2893,2.2893,2.2893,2.2893,2.2893,2.2893,2.2893,2.2893,2.2893,2.2893,2.2893,2.2893,1.0389,1.0455,1.0522,1.0654,1.0688,1.0916,1.1571,1.1115,1.0916,1.1571,1.1111,1.0982,1.1736,1.1835,1.2128,1.2914,1.3567,1.4544,1.5944,1.5944,1.6171,1.6796,1.7571,1.8317,1.9072,1.911,1.911,1.911,1.911,1.911,1.911,1.911,1.911,1.911,1.911,1.911,1.911,1.911,1.911,1.911,1.911,1.911,1.911,1.911,1.911,1.911,1.911,1.911,1.911,1.911,1.911,1.911,1.911,1.911,1.9142,1.9328,1.9232,1.9136,1.9328,1.9354,1.9424,1.959,1.9622,1.9686,1.9845,1.9998,2.0221,2.0545,2.0729,2.0856,2.0856,2.1014,2.1046,2.0887,2.1014,2.1109,2.1109,2.1109,2.1109,2.1109,2.1109,2.1109,2.1109,2.1109,2.1109,2.1109,2.1256,2.1537,2.1964,2.2131,2.2418,2.288,2.2893,2.2893,2.2893,2.2893,2.2893,2.2893,2.2893,2.2893,2.2893,2.2893,2.2893,2.2893,2.2893,2.2893,2.2893,2.2893,2.2893,2.2893,2.2893,2.2893,2.2893,2.2893,2.2893,2.2893,1.0654,1.0688,1.0787,1.1115,1.1178,1.1409,1.2058,1.1604,1.131,1.1637,1.1111,1.1244,1.2655,1.2816,1.3374,1.4777,1.5201,1.5846,1.6947,1.6305,1.5884,1.5884,1.692,1.799,1.9078,1.911,1.911,1.911,1.911,1.911,1.911,1.911,1.911,1.911,1.911,1.911,1.911,1.911,1.911,1.911,1.911,1.911,1.911,1.911,1.911,1.911,1.911,1.911,1.911,1.911,1.911,1.9104,1.92,1.9232,1.9264,1.9616,1.952,1.9398,1.9647,1.9711,1.9775,2.0043,2.0106,2.0106,2.0202,2.0418,2.0609,2.0704,2.0919,2.1109,2.1109,2.1109,2.1109,2.1109,2.1109,2.1109,2.1109,2.1109,2.1109,2.1109,2.1109,2.1109,2.1109,2.1109,2.1109,2.1109,2.1422,2.1709,2.2004,2.2258,2.2552,2.2887,2.2893,2.2893,2.2893,2.2893,2.2893,2.2893,2.2893,2.2893,2.2893,2.2893,2.2893,2.2893,2.2893,2.2893,2.2893,2.2893,2.2893,2.2893,2.2893,2.2893,2.2893,2.2893,2.2893,2.2893,1.0688,1.0688,1.1111,1.2425,1.2655,1.3534,1.6133,1.4311,1.3112,1.4418,1.2326,1.1244,1.2655,1.2816,1.3374,1.4777,1.6106,1.6877,1.6974,1.8124,1.8784,1.8784,1.888,1.8976,1.911,1.911,1.911,1.911,1.911,1.911,1.911,1.911,1.911,1.911,1.911,1.911,1.911,1.911,1.911,1.911,1.911,1.911,1.911,1.911,1.911,1.911,1.911,1.911,1.911,1.911,1.911,1.9136,1.9482,1.9577,1.9641,1.9973,2.0043,2.0043,2.0074,2.0074,2.0074,2.0074,2.0106,2.017,2.0482,2.0577,2.0704,2.1014,2.1077,2.1109,2.1109,2.1109,2.1109,2.1109,2.1109,2.1109,2.1109,2.1109,2.1109,2.1109,2.1109,2.1109,2.1109,2.1109,2.1109,2.1109,2.1422,2.1709,2.2004,2.2258,2.2552,2.2887,2.2893,2.2893,2.2893,2.2893,2.2893,2.2893,2.2893,2.2893,2.2893,2.2893,2.2893,2.2893,2.2893,2.2893,2.2893,2.2893,2.2893,2.2893,2.2893,2.2893,2.2893,2.2893,2.2893,2.2893,1.0688,1.0688,1.1144,1.2557,1.2816,1.3177,1.4213,1.3501,1.2684,1.2326,1.2128,1.2553,1.396,1.487,1.5971,1.7383,1.7995,1.8285,1.8285,1.881,1.911,1.911,1.911,1.911,1.911,1.911,1.911,1.911,1.911,1.911,1.911,1.911,1.911,1.911,1.911,1.911,1.911,1.911,1.911,1.911,1.911,1.911,1.911,1.911,1.911,1.911,1.911,1.911,1.9142,1.9322,1.9424,1.9488,1.9813,1.9909,1.9973,2.0323,2.0545,2.0736,2.0736,2.0577,2.0456,2.0672,2.0736,2.0767,2.0894,2.0926,2.0951,2.1077,2.1109,2.1109,2.1109,2.1109,2.1109,2.1109,2.1109,2.1109,2.1109,2.1109,2.1109,2.1109,2.1109,2.1109,2.1109,2.1109,2.1109,2.1109,2.155,2.1903,2.1977,2.2438,2.278,2.2893,2.2893,2.2893,2.2893,2.2893,2.2893,2.2893,2.2893,2.2893,2.2893,2.2893,2.2893,2.2893,2.2893,2.2893,2.2893,2.2893,2.2893,2.2893,2.2893,2.2893,2.2893,2.2893,2.2893,2.2893,1.0688,1.0688,1.1144,1.2557,1.2816,1.2947,1.3407,1.3079,1.2618,1.2095,1.2458,1.3501,1.5359,1.643,1.7566,1.8976,1.911,1.911,1.911,1.911,1.911,1.911,1.911,1.911,1.911,1.911,1.911,1.911,1.911,1.911,1.911,1.911,1.911,1.911,1.911,1.911,1.911,1.911,1.911,1.911,1.911,1.911,1.911,1.911,1.911,1.9104,1.9232,1.9264,1.9296,1.9647,1.9775,1.9807,2.0164,2.0329,2.0456,2.0704,2.0919,2.1109,2.1109,2.0919,2.0799,2.1046,2.1109,2.1109,2.1109,2.1109,2.1109,2.1109,2.1109,2.1109,2.1109,2.1109,2.1109,2.1109,2.1109,2.1109,2.1109,2.1109,2.1109,2.1109,2.1109,2.1109,2.1109,2.1109,2.1109,2.1109,2.165,2.2064,2.2285,2.2679,2.2893,2.2893,2.2893,2.2893,2.2893,2.2893,2.2893,2.2893,2.2893,2.2893,2.2893,2.2893,2.2893,2.2893,2.2893,2.2893,2.2893,2.2893,2.2893,2.2893,2.2893,2.2893,2.2893,2.2893,2.2893,2.2893,1.0721,1.0721,1.1144,1.2557,1.2816,1.3276,1.4679,1.3702,1.3309,1.4712,1.3665,1.389,1.6683,1.7012,1.7566,1.8976,1.911,1.911,1.911,1.911,1.911,1.911,1.911,1.911,1.911,1.911,1.911,1.911,1.911,1.911,1.911,1.911,1.911,1.911,1.911,1.911,1.911,1.911,1.911,1.911,1.911,1.911,1.911,1.911,1.911,1.9136,1.9482,1.9609,1.9673,1.9973,2.0106,2.017,2.0513,2.0831,2.1109,2.1109,2.1109,2.1109,2.1109,2.1109,2.1109,2.1109,2.1109,2.1109,2.1109,2.1109,2.1109,2.1109,2.1109,2.1109,2.1109,2.1109,2.1109,2.1109,2.1109,2.1109,2.1109,2.1109,2.1109,2.1109,2.1109,2.1109,2.1109,2.1109,2.1109,2.1109,2.165,2.2271,2.2867,2.2893,2.2893,2.2893,2.2893,2.2893,2.2893,2.2893,2.2893,2.2893,2.2893,2.2893,2.2893,2.2893,2.2893,2.2893,2.2893,2.2893,2.2893,2.2893,2.2893,2.2893,2.2893,2.2893,2.2893,2.2893,2.2893,2.2893,1.1967,1.1376,1.1475,1.3862,1.3468,1.2947,1.3374,1.3079,1.2947,1.337,1.3927,1.4968,1.6813,1.7893,1.865,1.9072,1.911,1.911,1.911,1.911,1.911,1.911,1.911,1.911,1.911,1.911,1.911,1.911,1.911,1.911,1.911,1.911,1.911,1.911,1.911,1.9232,1.945,1.945,1.945,1.9488,1.9717,1.9526,1.9136,1.9622,1.9654,1.9482,1.9845,1.9941,2.0004,2.0323,2.045,2.0513,2.0856,2.1014,2.1109,2.1109,2.1109,2.1109,2.1109,2.1109,2.1109,2.1109,2.1109,2.1109,2.1109,2.1109,2.1109,2.1109,2.1109,2.1109,2.1109,2.1109,2.1109,2.1109,2.1109,2.1109,2.1109,2.1109,2.1109,2.1109,2.1109,2.1109,2.1109,2.1109,2.1109,2.1109,2.165,2.2271,2.2867,2.2893,2.2893,2.2893,2.2893,2.2893,2.2893,2.2893,2.2893,2.2893,2.2893,2.2893,2.2893,2.2893,2.2893,2.2893,2.2893,2.2893,2.2893,2.2893,2.2893,2.2893,2.2893,2.2893,2.2893,2.2893,2.2893,2.2893,1.1802,1.1277,1.1244,1.2947,1.252,1.2161,1.2717,1.2816,1.3206,1.4311,1.5196,1.6268,1.7662,1.8579,1.911,1.911,1.911,1.911,1.911,1.911,1.911,1.911,1.911,1.911,1.911,1.911,1.911,1.911,1.911,1.911,1.911,1.9232,1.9296,1.9296,1.943,1.952,1.9609,1.9743,1.9711,1.9641,1.9979,1.9851,1.9526,1.9947,1.9979,1.9839,2.0164,2.0297,2.0361,2.0672,2.0799,2.0831,2.1046,2.1109,2.1109,2.1109,2.1109,2.1109,2.1109,2.1109,2.1109,2.1109,2.1109,2.1109,2.1109,2.1109,2.1109,2.1109,2.1109,2.1109,2.1109,2.1109,2.1109,2.1109,2.1109,2.1109,2.1109,2.1109,2.1109,2.1109,2.1109,2.1109,2.1109,2.1109,2.1203,2.1436,2.1784,2.2271,2.2867,2.2893,2.2893,2.2893,2.2893,2.2893,2.2893,2.2893,2.2893,2.2893,2.2893,2.2893,2.2893,2.2893,2.2893,2.2893,2.2893,2.2893,2.2893,2.2893,2.2893,2.2893,2.2893,2.2893,2.2893,2.2893,2.2893,2.2962,1.1049,1.1082,1.1082,1.1082,1.0982,1.131,1.2589,1.2816,1.3825,1.6619,1.7012,1.7534,1.8944,1.911,1.911,1.911,1.911,1.911,1.911,1.911,1.911,1.911,1.911,1.911,1.911,1.911,1.9104,1.9136,1.9136,1.9174,1.9206,1.9488,1.9641,1.9673,1.9973,1.9941,1.9705,2.0004,1.9973,1.9705,2.0036,2.0138,2.0106,2.017,2.017,2.0202,2.0513,2.064,2.0704,2.1014,2.1109,2.1109,2.1109,2.1109,2.1109,2.1109,2.1109,2.1109,2.1109,2.1109,2.1109,2.1109,2.1109,2.1109,2.1109,2.1109,2.1109,2.1109,2.1109,2.1109,2.1109,2.1109,2.1109,2.1109,2.1109,2.1109,2.1109,2.1109,2.1109,2.1109,2.1109,2.1109,2.1109,2.1109,2.1356,2.1944,2.1984,2.2271,2.2867,2.2893,2.2893,2.2893,2.2893,2.2893,2.2893,2.2893,2.2893,2.2893,2.2893,2.2893,2.2893,2.2893,2.2893,2.2893,2.2893,2.2893,2.2893,2.2893,2.2893,2.2893,2.2893,2.2893,2.2893,2.2893,2.2893,2.3133,1.3763,1.3993,1.3993,1.3993,1.3079,1.2454,1.275,1.2816,1.3825,1.6619,1.7012,1.7534,1.8944,1.911,1.911,1.911,1.911,1.911,1.911,1.911,1.911,1.911,1.911,1.911,1.911,1.911,1.9232,1.9482,1.9482,1.9616,1.9877,1.9947,1.9973,1.9973,2.0074,2.0202,2.038,2.045,2.045,2.0412,2.0761,2.0577,2.017,2.0672,2.0736,2.0545,2.0856,2.0982,2.1014,2.1077,2.1109,2.1109,2.1109,2.1109,2.1109,2.1109,2.1109,2.1109,2.1109,2.1109,2.1109,2.1109,2.1109,2.1109,2.1109,2.1109,2.1109,2.1109,2.1109,2.1109,2.1109,2.1109,2.1109,2.1109,2.1109,2.1109,2.1109,2.1109,2.1109,2.1109,2.1109,2.1109,2.1109,2.1109,2.1356,2.1944,2.1984,2.2271,2.2867,2.2893,2.2893,2.2893,2.2893,2.2893,2.2893,2.2893,2.2893,2.2893,2.2893,2.2893,2.2893,2.2893,2.2893,2.2893,2.2893,2.2893,2.2893,2.2893,2.2893,2.2893,2.2893,2.2893,2.2893,2.2893,2.2893,2.3263,1.3632,1.3894,1.4124,1.4777,1.4287,1.4025,1.4702,1.48,1.5581,1.7732,1.799,1.8285,1.9008,1.911,1.911,1.911,1.911,1.911,1.911,1.911,1.911,1.911,1.9264,1.9322,1.9322,1.9494,1.9584,1.9609,1.9775,1.9941,2.0106,2.0265,2.0323,2.0361,2.0513,2.0577,2.0609,2.0767,2.0767,2.064,2.0982,2.0887,2.0609,2.0982,2.0982,2.0862,2.1046,2.1109,2.1109,2.1109,2.1109,2.1109,2.1109,2.1109,2.1109,2.1109,2.1109,2.1109,2.1109,2.1109,2.1109,2.1109,2.1109,2.1109,2.1109,2.1109,2.1109,2.1109,2.1109,2.1109,2.1109,2.1109,2.1109,2.1109,2.1109,2.1109,2.1109,2.1109,2.1109,2.1109,2.1109,2.1109,2.1109,2.1109,2.1356,2.1944,2.1984,2.2271,2.2867,2.2893,2.2893,2.2893,2.2893,2.2893,2.2893,2.2893,2.2893,2.2893,2.2893,2.2893,2.2893,2.2893,2.2893,2.2893,2.2893,2.2893,2.2893,2.2893,2.2893,2.2893,2.2893,2.2893,2.2893,2.2893,2.3331,2.4203,1.2882,1.3337,1.389,1.507,1.5266,1.5651,1.6813,1.7012,1.7501,1.8912,1.911,1.911,1.911,1.911,1.911,1.911,1.911,1.911,1.911,1.911,1.9142,1.9168,1.945,1.9641,1.9673,2.0004,2.0036,1.9769,2.0036,2.0202,2.0265,2.0545,2.0704,2.0704,2.0982,2.0951,2.0704,2.0982,2.0951,2.0704,2.0982,2.1109,2.1109,2.1109,2.1109,2.1109,2.1109,2.1109,2.1109,2.1109,2.1109,2.1109,2.1109,2.1109,2.1109,2.1109,2.1109,2.1109,2.1109,2.1109,2.1109,2.1109,2.1109,2.1109,2.1109,2.1109,2.1109,2.1109,2.1109,2.1109,2.1109,2.1109,2.1109,2.1109,2.1109,2.1109,2.1109,2.1109,2.1109,2.1109,2.1109,2.1109,2.1109,2.1109,2.1356,2.1944,2.1984,2.2271,2.2867,2.2893,2.2893,2.2893,2.2893,2.2893,2.2893,2.2893,2.2893,2.2893,2.2893,2.2893,2.2893,2.2893,2.2893,2.2893,2.2893,2.2893,2.2893,2.2893,2.2893,2.2893,2.2893,2.2893,2.2934,2.316,2.4135,2.5566,1.4352,1.5586,1.6489,1.6683,1.6721,1.678,1.698,1.7012,1.7501,1.8912,1.911,1.911,1.911,1.911,1.911,1.911,1.911,1.911,1.911,1.911,1.9232,1.9514,1.9577,1.9743,2.0043,2.0354,2.0513,2.045,2.0513,2.0672,2.0982,2.1014,2.1014,2.1014,2.1077,2.1077,2.1046,2.1077,2.1077,2.1046,2.1077,2.1109,2.1109,2.1109,2.1109,2.1109,2.1109,2.1109,2.1109,2.1109,2.1109,2.1109,2.1109,2.1109,2.1109,2.1109,2.1109,2.1109,2.1109,2.1109,2.1109,2.1109,2.1109,2.1109,2.1109,2.1109,2.1109,2.1109,2.1109,2.1109,2.1109,2.1109,2.1109,2.1109,2.1109,2.1109,2.1109,2.1109,2.1109,2.1109,2.1109,2.1109,2.1109,2.1109,2.1356,2.1944,2.1984,2.2271,2.2867,2.2893,2.2893,2.2893,2.2893,2.2893,2.2893,2.2893,2.2893,2.2893,2.2893,2.2893,2.2893,2.2893,2.2893,2.2893,2.2893,2.2893,2.2893,2.2893,2.2893,2.2893,2.2893,2.2893,2.3065,2.427,2.5599,2.7021,1.4483,1.5396,1.6333,1.7893,1.8156,1.8156,1.8156,1.8156,1.8387,1.9008,1.911,1.911,1.911,1.911,1.911,1.911,1.911,1.911,1.911,1.911,1.9264,1.9577,1.9775,2.0036,2.0354,2.0704,2.0894,2.0894,2.0894,2.0951,2.1109,2.1109,2.1109,2.1109,2.1109,2.1109,2.1109,2.1109,2.1109,2.1109,2.1109,2.1109,2.1109,2.1109,2.1109,2.1109,2.1109,2.1109,2.1109,2.1109,2.1109,2.1109,2.1109,2.1109,2.1109,2.1109,2.1109,2.1109,2.1109,2.1109,2.1109,2.1109,2.1109,2.1109,2.1109,2.1109,2.1109,2.1109,2.1109,2.1109,2.1109,2.1109,2.1109,2.1109,2.1109,2.1109,2.1109,2.1109,2.1109,2.1109,2.1109,2.1109,2.1109,2.1109,2.1356,2.1944,2.1984,2.2271,2.2867,2.2893,2.2893,2.2893,2.2893,2.2893,2.2893,2.2893,2.2893,2.29,2.37,2.3665,2.2893,2.2893,2.2893,2.2893,2.2893,2.2893,2.2893,2.2893,2.3365,2.4074,2.4074,2.4568,2.5424,2.6871,2.7262,2.7312]},{"header":{"parameterUnit":"m.s-1","parameterCategory":1,"la1":30.6,"la2":28.766,"lo1":-90.7593,"lo2":-88.6598,"dy":0.0162,"dx":0.0183,"nx":116,"ny":114,"refTime":"2023-05-30T06:00:00:Z","depth":0,"parameterNumber":3,"parameterNumberName":"V-component_of_WINDS"},"data":[0.0,0.0,0.0,0.0,0.0,0.0,0.0,0.0,0.0,0.0,0.0,0.0,0.0,0.0,0.0,0.0,0.0,0.0,0.0,0.0,0.0,0.0,0.0,0.0,0.0,0.0,0.0,0.0,0.0,0.0,0.0,0.0,0.0,0.0,0.0,0.0,0.0,0.0,0.0,0.0,0.0,0.0,0.0,0.0,0.0,0.0,0.0,0.0,0.0,0.0,0.0,0.0,0.0,0.0,0.0,0.0,0.0,0.0,0.0,0.0,0.0,0.0,0.0,0.0,0.0,0.0,0.0,0.0,0.0,0.0,0.0,0.0,0.0,0.0,0.0,0.0,0.0,0.0,0.0,0.0,0.0,0.0,0.0,0.0,0.0,0.0,0.0,0.0,0.0,0.0,0.0,0.0,0.0,0.0,0.0,0.0,0.0,0.0,0.0,0.0,0.0,0.0,0.0,0.0,0.0,0.0,0.0,0.0,0.0,0.0,0.0,0.0,0.0,0.0,0.0,0.0,0.0,0.0,0.0,0.0,0.0,0.0,0.0,0.0,0.0,0.0,0.0,0.0,0.0,0.0,0.0,0.0,0.0,0.0,0.0,0.0,0.0,0.0,0.0,0.0,0.0,0.0,0.0,0.0,0.0,0.0,0.0,0.0,0.0,0.0,0.0,0.0,0.0,0.0,0.0,0.0,0.0,0.0,0.0,0.0,0.0,0.0,0.0,0.0,0.0,0.0,0.0,0.0,0.0,0.0,0.0,0.0,0.0,0.0,0.0,0.0,0.0,0.0,0.0,0.0,0.0,0.0,0.0,0.0,0.0,0.0,0.0,0.0,0.0,0.0,0.0,0.0,0.0,0.0,0.0,0.0,0.0,0.0,0.0,0.0,0.0,0.0,0.0,0.0,0.0,0.0,0.0,0.0,0.0,0.0,0.0,0.0,0.0,0.0,0.0,0.0,0.0,0.0,0.0,0.0,0.0,0.0,0.0,0.0,0.0,0.0,0.0,0.0,0.0,0.0,0.0,0.0,0.0,0.0,0.0,0.0,0.0,0.0,0.0,0.0,0.0,0.0,0.0,0.0,0.0,0.0,0.0,0.0,0.0,0.0,0.0,0.0,0.0,0.0,0.0,0.0,0.0,0.0,0.0,0.0,0.0,0.0,0.0,0.0,0.0,0.0,0.0,0.0,0.0,0.0,0.0,0.0,0.0,0.0,0.0,0.0,0.0,0.0,0.0,0.0,0.0,0.0,0.0,0.0,0.0,0.0,0.0,0.0,0.0,0.0,0.0,0.0,0.0,0.0,0.0,0.0,0.0,0.0,0.0,0.0,0.0,0.0,0.0,0.0,0.0,0.0,0.0,0.0,0.0,0.0,0.0,0.0,0.0,0.0,0.0,0.0,0.0,0.0,0.0,0.0,0.0,0.0,0.0,0.0,0.0,0.0,0.0,0.0,0.0,0.0,0.0,0.0,0.0,0.0,0.0,0.0,0.0,0.0,0.0,0.0,0.0,0.0,0.0,0.0,0.0,0.0,0.0,0.0,0.0,0.0,0.0,0.0,0.0,0.0,0.0,0.0,0.0,0.0,0.0,0.0,0.0,0.0,0.0,0.0,0.0,0.0,0.0,0.0,0.0,0.0,0.0,0.0,0.0,0.0,0.0,0.0,0.0,0.0,0.0,0.0,0.0,0.0,0.0,0.0,0.0,0.0,0.0,0.0,0.0,0.0,0.0,0.0,0.0,0.0,0.0,0.0,0.0,0.0,0.0,0.0,0.0,0.0,0.0,0.0,0.0,0.0,0.0,0.0,0.0,0.0,0.0,0.0,0.0,0.0,0.0,0.0,0.0,0.0,0.0,0.0,0.0,0.0,0.0,0.0,0.0,0.0,0.0,0.0,0.0,0.0,0.0,0.0,0.0,0.0,0.0,0.0,0.0,0.0,0.0,0.0,0.0,0.0,0.0,0.0,0.0,0.0,0.0,0.0,0.0,0.0,0.0,0.0,0.0,0.0,0.0,0.0,0.0,0.0,0.0,0.0,0.0,0.0,0.0,0.0,0.0,0.0,0.0,0.0,0.0,0.0,0.0,0.0,0.0,0.0,0.0,0.0,0.0,0.0,0.0,0.0,0.0,0.0,0.0,0.0,0.0,0.0,0.0,0.0,0.0,0.0,0.0,0.0,0.0,0.0,0.0,0.0,0.0,0.0,0.0,0.0,0.0,0.0,0.0,0.0,0.0,0.0,0.0,0.0,0.0,0.0,0.0,0.0,0.0,0.0,0.0,0.0,0.0,0.0,0.0,0.0,0.0,0.0,0.0,0.0,0.0,0.0,0.0,0.0,0.0,0.0,0.0,0.0,0.0,0.0,0.0,0.0,0.0,0.0,0.0,0.0,0.0,0.0,0.0,0.0,0.0,0.0,0.0,0.0,0.0,0.0,0.0,0.0,0.0,0.0,0.0,0.0,0.0,0.0,0.0,0.0,0.0,0.0,0.0,0.0,0.0,0.0,0.0,0.0,0.0,0.0,0.0,0.0,0.0,0.0,0.0,0.0,0.0,0.0,0.0,0.0,0.0,0.0,0.0,0.0,0.0,0.0,0.0,0.0,0.0,0.0,0.0,0.0,0.0,0.0,0.0,0.0,0.0,0.0,0.0,0.0,0.0,0.0,0.0,0.0,0.0,0.0,0.0,0.0,0.0,0.0,0.0,0.0,0.0,0.0,0.0,0.0,0.0,0.0,0.0,0.0,0.0,0.0,0.0,0.0,0.0,0.0,0.0,0.0,0.0,0.0,0.0,0.0,0.0,0.0,0.0,0.0,0.0,0.0,0.0,0.0,0.0,0.0,0.0,0.0,0.0,0.0,0.0,0.0,0.0,0.0,0.0,0.0,0.0,0.0,0.0,0.0,0.0,0.0,0.0,0.0,0.0,0.0,0.0,0.0,0.0,0.0,0.0,0.0,0.0,0.0,0.0,0.0,0.0,0.0,0.0,0.0,0.0,0.0,0.0,0.0,0.0,0.0,0.0,0.0,0.0,0.0,0.0,0.0,0.0,0.0,0.0,0.0,0.0,0.0,0.0,0.0,0.0,0.0,0.0,0.0,0.0,0.0,0.0,0.0,0.0,0.0,0.0,0.0,0.0,0.0,0.0,0.0,0.0,0.0,0.0,0.0,0.0,0.0,0.0,0.0,0.0,0.0,0.0,0.0,0.0,0.0,0.0,0.0,0.0,0.0,0.0,0.0,0.0,0.0,0.0,0.0,0.0,0.0,0.0,0.0,0.0,0.0,0.0,0.0,0.0,0.0,0.0,0.0,0.0,0.0,0.0,0.0,0.0,0.0,0.0,0.0,0.0,0.0,0.0,0.0,0.0,0.0,0.0,0.0,0.0,0.0,0.0,0.0,0.0,0.0,0.0,0.0,0.0,0.0,0.0,0.0,0.0,0.0,0.0,0.0,0.0,0.0,0.0,0.0,0.0,0.0,0.0,0.0,0.0,0.0,0.0,0.0,0.0,0.0,0.0,0.0,0.0,0.0,0.0,0.0,0.0,0.0,0.0,0.0,0.0,0.0,0.0,0.0,0.0,0.0,0.0,0.0,0.0,0.0,0.0,0.0,0.0,0.0,0.0,0.0,0.0,0.0,0.0,0.0,0.0,0.0,0.0,0.0,0.0,0.0,0.0,0.0,0.0,0.0,0.0,0.0,0.0,0.0,0.0,0.0,0.0,0.0,0.0,0.0,0.0,0.0,0.0,0.0,0.0,0.0,0.0,0.0,0.0,0.0,0.0,0.0,0.0,0.0,0.0,0.0,0.0,0.0,0.0,0.0,0.0,0.0,0.0,0.0,0.0,0.0,0.0,0.0,0.0,0.0,0.0,0.0,0.0,0.0,0.0,0.0,0.0,0.0,0.0,0.0,0.0,0.0,0.0,0.0,0.0,0.0,0.0,0.0,0.0,0.0,0.0,0.0,0.0,0.0,0.0,0.0,0.0,0.0,0.0,0.0,0.0,0.0,0.0,0.0,0.0,0.0,0.0,0.0,0.0,0.0,0.0,0.0,0.0,0.0,0.0,0.0,0.0,0.0,0.0,0.0,0.0,0.0,0.0,0.0,0.0,0.0,0.0,0.0,0.0,0.0,0.0,0.0,0.0,0.0,0.0,0.0,0.0,0.0,0.0,0.0,0.0,0.0,0.0,0.0,0.0,0.0,0.0,0.0,0.0,0.0,0.0,0.0,0.0,0.0,0.0,0.0,0.0,0.0,0.0,0.0,0.0,0.0,0.0,0.0,0.0,0.0,0.0,0.0,0.0,0.0,0.0,0.0,0.0,0.0,0.0,0.0,0.0,0.0,0.0,0.0,0.0,0.0,0.0,0.0,0.0,0.0,0.0,0.0,0.0,0.0,0.0,0.0,0.0,0.0,0.0,0.0,0.0,0.0,0.0,0.0,0.0,0.0,0.0,0.0,0.0,0.0,0.0,0.0,0.0,0.0,0.0,0.0,0.0,0.0,0.0,0.0,0.0,0.0,0.0,0.0,0.0,0.0,0.0,0.0,0.0,0.0,0.0,0.0,0.0,0.0,0.0,0.0,0.0,0.0,0.0,0.0,0.0,0.0,0.0,0.0,0.0,0.0,0.0,0.0,0.0,0.0,0.0,0.0,0.0,0.0,0.0,0.0,0.0,0.0,0.0,0.0,0.0,0.0,0.0,0.0,0.0,0.0,0.0,0.0,0.0,0.0,0.0,0.0,0.0,0.0,0.0,0.0,0.0,0.0,0.0,0.0,0.0,0.0,0.0,0.0,0.0,0.0,0.0,0.0,0.0,0.0,0.0,0.0,0.0,0.0,0.0,0.0,0.0,0.0,0.0,0.0,0.0,0.0,0.0,0.0,0.0,0.0,0.0,0.0,0.0,0.0,0.0,0.0,0.0,0.0,0.0,0.0,0.0,0.0,0.0,0.0,0.0,0.0,0.0,0.0,0.0,0.0,0.0,0.0,0.0,0.0,0.0,0.0,0.0,0.0,0.0,0.0,0.0,0.0,0.0,0.0,0.0,0.0,0.0,0.0,0.0,0.0,0.0,0.0,0.0,0.0,0.0,0.0,0.0,0.0,0.0,0.0,0.0,0.0,0.0,0.0,0.0,0.0,0.0,0.0,0.0,0.0,0.0,0.0,0.0,0.0,0.0,0.0,0.0,0.0,0.0,0.0,0.0,0.0,0.0,0.0,0.0,0.0,0.0,0.0,0.0,0.0,0.0,0.0,0.0,0.0,0.0,0.0,0.0,0.0,0.0,0.0,0.0,0.0,0.0,0.0,0.0,0.0,0.0,0.0,0.0,0.0,0.0,0.0,0.0,0.0,0.0,0.0,0.0,0.0,0.0,0.0,0.0,0.0,0.0,0.0,0.0,0.0,0.0,0.0,0.0,0.0,0.0,0.0,0.0,0.0,0.0,0.0,0.0,0.0,0.0,0.0,0.0,0.0,0.0,0.0,0.0,0.0,0.0,0.0,0.0,0.0,0.0,0.0,0.0,0.0,0.0,0.0,0.0,0.0,0.0,0.0,0.0,0.0,0.0,0.0,0.0,0.0,0.0,0.0,0.0,0.0,0.0,0.0,0.0,0.0,0.0,0.0,0.0,0.0,0.0,0.0,0.0,0.0,0.0,0.0,0.0,0.0,0.0,0.0,0.0,0.0,0.0,0.0,0.0,0.0,0.0,0.0,0.0,0.0,0.0,0.0,0.0,0.0,0.0,0.0,0.0,0.0,0.0,0.0,0.0,0.0,0.0,0.0,0.0,0.0,0.0,0.0,0.0,0.0,0.0,0.0,0.0,0.0,0.0,0.0,0.0,0.0,0.0,0.0,0.0,0.0,0.0,0.0,0.0,0.0,0.0,0.0,0.0,0.0,0.0,0.0,0.0,0.0,0.0,0.0,0.0,0.0,0.0,0.0,0.0,0.0,0.0,0.0,0.0,0.0,0.0,0.0,0.0,0.0,0.0,0.0,0.0,0.0,0.0,0.0,0.0,0.0,0.0,0.0,0.0,0.0,0.0,0.0,0.0,0.0,0.0,0.0,0.0,0.0,0.0,0.0,0.0,0.0,0.0,0.0,4.4317,4.4279,0.0,0.0,0.0,0.0,0.0,0.0,0.0,0.0,0.0,0.0,0.0,0.0,0.0,0.0,0.0,0.0,0.0,0.0,0.0,0.0,0.0,0.0,0.0,0.0,0.0,0.0,0.0,0.0,0.0,0.0,0.0,0.0,0.0,0.0,0.0,0.0,0.0,0.0,4.5082,4.4361,4.3109,4.325,4.3253,4.3151,0.0,0.0,0.0,0.0,0.0,0.0,0.0,0.0,0.0,0.0,0.0,0.0,0.0,0.0,0.0,0.0,0.0,0.0,0.0,0.0,0.0,0.0,0.0,0.0,0.0,0.0,0.0,0.0,0.0,0.0,0.0,0.0,0.0,0.0,0.0,0.0,0.0,0.0,0.0,0.0,0.0,0.0,0.0,0.0,0.0,0.0,0.0,0.0,0.0,0.0,0.0,0.0,0.0,0.0,0.0,0.0,0.0,0.0,0.0,0.0,0.0,0.0,0.0,0.0,0.0,0.0,0.0,0.0,0.0,0.0,4.5102,4.4966,0.0,0.0,0.0,0.0,0.0,0.0,0.0,0.0,0.0,0.0,0.0,0.0,0.0,0.0,0.0,0.0,0.0,0.0,0.0,0.0,0.0,0.0,0.0,0.0,4.6246,4.6135,4.6112,4.6049,0.0,0.0,0.0,0.0,0.0,0.0,0.0,4.5654,4.5247,4.4578,4.4154,4.3295,4.2023,4.1869,4.2278,4.3092,4.2779,0.0,0.0,0.0,0.0,0.0,0.0,0.0,0.0,0.0,0.0,0.0,0.0,0.0,0.0,0.0,0.0,0.0,0.0,0.0,0.0,0.0,0.0,0.0,0.0,0.0,0.0,0.0,0.0,0.0,0.0,0.0,0.0,0.0,0.0,0.0,0.0,0.0,0.0,0.0,0.0,0.0,0.0,0.0,0.0,0.0,0.0,0.0,0.0,0.0,0.0,0.0,0.0,0.0,0.0,0.0,0.0,0.0,0.0,0.0,0.0,0.0,0.0,0.0,4.5594,4.5594,4.5594,4.5594,4.5327,4.4878,4.5371,4.5129,4.4385,4.505,0.0,0.0,0.0,0.0,0.0,0.0,0.0,0.0,0.0,0.0,0.0,0.0,0.0,0.0,0.0,0.0,0.0,0.0,0.0,0.0,0.0,4.6201,4.6231,4.6275,4.617,4.6098,0.0,0.0,0.0,0.0,0.0,0.0,4.59,4.5079,4.4621,4.4518,4.2919,4.2416,4.2912,4.2158,4.2278,4.3034,4.1512,4.0843,4.085,0.0,0.0,0.0,0.0,0.0,0.0,0.0,0.0,0.0,0.0,0.0,0.0,0.0,0.0,0.0,0.0,0.0,0.0,0.0,0.0,0.0,0.0,0.0,0.0,0.0,0.0,0.0,0.0,0.0,0.0,0.0,0.0,0.0,0.0,0.0,0.0,0.0,0.0,0.0,0.0,0.0,4.5594,4.5594,0.0,0.0,0.0,0.0,0.0,0.0,0.0,0.0,0.0,0.0,0.0,0.0,0.0,4.5705,4.5693,4.5631,4.5594,4.5594,4.5594,4.5594,4.5594,4.5594,4.5564,4.549,4.5568,0.0,4.3761,4.4371,0.0,0.0,0.0,0.0,0.0,0.0,0.0,0.0,0.0,0.0,0.0,0.0,0.0,0.0,0.0,0.0,0.0,0.0,0.0,0.0,0.0,4.5701,4.5537,4.5981,4.5034,4.4791,4.5709,4.5318,0.0,0.0,0.0,4.557,4.5005,4.5113,4.4936,4.4434,4.3203,4.2765,4.3085,4.272,4.2728,4.3075,4.2309,4.1966,4.1956,4.199,0.0,0.0,0.0,0.0,0.0,0.0,0.0,0.0,0.0,0.0,0.0,0.0,0.0,0.0,0.0,0.0,0.0,0.0,0.0,0.0,0.0,0.0,0.0,0.0,0.0,0.0,0.0,0.0,0.0,0.0,0.0,0.0,0.0,0.0,0.0,0.0,0.0,0.0,0.0,4.5594,4.5603,4.5648,4.5652,4.5669,0.0,0.0,0.0,0.0,0.0,0.0,0.0,0.0,0.0,4.5691,4.569,4.5688,4.5644,4.5603,4.5594,4.5594,4.5594,4.5594,4.5594,4.5594,4.5513,4.5371,4.5495,4.5039,4.4263,4.4824,4.4973,4.4826,0.0,0.0,0.0,0.0,4.4669,4.4663,0.0,0.0,0.0,0.0,0.0,0.0,0.0,0.0,0.0,0.0,0.0,0.0,4.5886,4.519,4.4885,4.522,4.3965,4.3713,4.4962,4.4498,0.0,0.0,4.5534,4.5337,4.4771,4.5179,4.495,4.4046,4.3462,4.3258,4.3412,4.3412,4.3528,4.3739,4.3739,4.351,4.3096,4.3107,4.3131,4.3184,0.0,0.0,0.0,0.0,0.0,0.0,0.0,0.0,0.0,0.0,0.0,0.0,0.0,0.0,0.0,0.0,0.0,0.0,0.0,0.0,0.0,0.0,0.0,0.0,0.0,0.0,0.0,0.0,0.0,0.0,0.0,0.0,0.0,0.0,0.0,0.0,0.0,4.5594,4.5627,4.568,4.5665,4.5682,0.0,0.0,0.0,0.0,0.0,0.0,4.5692,4.5711,4.5691,4.5665,4.5665,4.5648,4.5594,4.5594,4.5594,4.5594,4.5594,4.5594,4.5594,4.5594,4.5495,4.5312,4.5452,4.5297,4.4938,4.5222,4.5231,4.5059,4.4957,4.4981,4.5081,4.4981,4.4957,4.4957,0.0,0.0,0.0,0.0,0.0,0.0,0.0,0.0,0.0,0.0,0.0,4.5887,4.505,4.4911,4.4566,4.3779,4.3518,4.3492,4.3772,4.364,4.3992,4.4983,4.5035,4.533,4.6006,4.5059,4.4063,4.3079,4.3092,4.3498,4.4239,4.4239,4.4686,4.5475,4.5475,4.459,4.3094,4.3096,4.3096,4.3104,4.3176,0.0,0.0,0.0,0.0,0.0,0.0,0.0,0.0,0.0,0.0,0.0,0.0,0.0,0.0,0.0,0.0,0.0,0.0,0.0,0.0,0.0,0.0,0.0,0.0,0.0,0.0,0.0,0.0,0.0,0.0,0.0,0.0,0.0,0.0,0.0,0.0,0.0,0.0,4.5594,4.5614,0.0,0.0,0.0,0.0,4.5704,4.5704,4.5707,4.5705,4.5705,4.5665,4.5618,4.5614,4.5594,4.5594,4.5594,4.5594,4.5594,4.5594,4.5594,4.5594,4.5594,4.5586,4.5577,4.5586,4.5531,4.5429,4.5074,4.4967,4.4996,4.4933,4.5091,4.5381,4.5365,4.5364,4.5359,0.0,0.0,0.0,0.0,0.0,0.0,0.0,0.0,4.6197,4.6197,4.571,4.5243,4.4933,4.373,4.3299,4.4115,4.2958,4.2927,4.4672,4.4291,4.4392,4.5223,4.5337,4.5463,4.5653,4.478,4.4419,4.4611,4.4629,4.4809,4.5148,4.5148,4.5302,4.5594,4.5594,4.5263,4.4705,4.4703,4.4728,4.4776,4.4804,4.4828,0.0,0.0,0.0,0.0,0.0,0.0,0.0,0.0,0.0,0.0,0.0,0.0,0.0,0.0,0.0,0.0,0.0,0.0,0.0,0.0,0.0,0.0,0.0,0.0,0.0,0.0,0.0,0.0,0.0,0.0,0.0,0.0,0.0,0.0,0.0,0.0,0.0,4.5652,4.5657,0.0,4.5699,4.5698,4.5705,4.5702,4.5658,4.5633,4.564,4.5635,4.5631,4.5594,4.5594,4.5594,4.5594,4.5594,4.5594,4.5594,4.5594,4.5594,4.559,4.5559,4.5546,4.5527,4.5495,4.5467,4.5419,4.527,4.5237,4.5253,4.5175,4.5232,4.5339,4.5338,4.5333,4.5328,0.0,0.0,0.0,0.0,0.0,0.0,0.0,0.0,4.6189,4.6142,4.5632,4.5133,4.4809,4.3571,4.3111,4.3991,4.2808,4.2764,4.4543,4.4164,4.4232,4.5049,4.5413,4.5547,4.5446,4.4892,4.4892,4.5472,4.5467,4.549,4.5527,4.5527,4.5527,4.5527,4.5527,4.5555,4.5568,4.5568,4.5594,4.568,4.5693,4.5734,4.5708,0.0,0.0,0.0,0.0,0.0,0.0,0.0,0.0,0.0,0.0,0.0,0.0,0.0,0.0,0.0,0.0,0.0,0.0,0.0,0.0,0.0,0.0,0.0,0.0,0.0,0.0,0.0,0.0,0.0,0.0,0.0,0.0,0.0,0.0,4.5568,4.5586,4.5652,4.5676,4.5669,4.5679,4.5673,4.5676,4.5676,4.5631,4.5725,4.6013,4.6033,4.6167,4.6436,4.6436,4.6436,4.6436,4.6436,4.6436,4.6436,4.6436,4.6428,4.641,4.6358,4.633,4.635,4.6297,4.61,4.5793,4.5796,4.5623,4.5353,4.5317,4.5302,4.5302,4.5302,4.5302,4.5302,0.0,0.0,0.0,0.0,0.0,0.0,0.0,4.6197,4.615,4.6015,4.598,4.5587,4.4611,4.4474,4.4119,4.3301,4.3119,4.3111,4.3264,4.3131,4.3509,4.4473,4.5209,4.5556,4.5492,4.5437,4.5395,4.5403,4.54,4.5405,4.5405,4.5405,4.5405,4.5405,4.5405,4.5434,4.5499,4.5499,4.5527,4.5594,4.568,4.5701,4.5705,0.0,0.0,0.0,0.0,0.0,0.0,0.0,0.0,0.0,0.0,0.0,0.0,0.0,0.0,0.0,0.0,0.0,0.0,0.0,0.0,0.0,0.0,0.0,0.0,0.0,0.0,0.0,0.0,0.0,0.0,0.0,0.0,0.0,4.549,4.5499,4.5517,4.5586,4.5629,4.5648,4.5629,4.5667,4.5691,4.5691,4.5691,4.6052,4.6889,4.6947,4.7293,4.8082,4.8101,4.8101,4.8101,4.8101,4.8101,4.8101,4.8101,4.8058,4.7991,4.8006,4.799,4.7992,4.7992,4.7482,4.6637,4.6637,4.6146,4.5378,4.5321,4.5302,4.5302,4.5302,4.5302,4.5302,0.0,0.0,0.0,0.0,0.0,0.0,0.0,4.616,4.615,4.6015,4.5455,4.4924,4.4533,4.3855,4.3546,4.3908,4.3803,4.4001,4.4672,4.4696,4.4796,4.5069,4.5266,4.5371,4.5356,4.533,4.5339,4.5403,4.5399,4.5409,4.5405,4.5405,4.5405,4.5405,4.5405,4.5415,4.5424,4.5424,4.5434,4.5476,4.5577,4.5652,4.5701,0.0,0.0,0.0,0.0,0.0,0.0,0.0,0.0,0.0,0.0,0.0,0.0,0.0,0.0,0.0,0.0,0.0,0.0,0.0,0.0,0.0,0.0,0.0,0.0,0.0,0.0,0.0,0.0,0.0,0.0,0.0,4.5419,4.5404,4.5419,4.5424,4.5443,4.5513,4.6094,4.6487,4.6543,4.7067,4.7413,4.7413,4.7413,4.7528,4.7755,4.7774,4.787,4.8082,4.8101,4.8101,4.8101,4.8101,4.8101,4.8101,4.8049,4.8025,4.8006,4.7945,4.7932,4.7916,4.7873,4.7718,4.7472,4.7472,4.7327,4.6991,4.5779,4.5302,4.5302,4.5302,4.5302,4.5378,0.0,0.0,0.0,0.0,0.0,0.0,0.0,4.6044,4.5985,4.5841,4.5314,4.4893,4.4778,4.423,4.4078,4.4542,4.4529,4.4725,4.5227,4.5291,4.5302,4.5302,4.5302,4.5302,4.5302,4.5302,4.5317,4.5353,4.5353,4.5369,4.5361,4.5361,4.5361,4.5361,4.5361,4.537,4.539,4.539,4.5405,4.541,4.549,4.555,4.5573,4.5573,4.5631,4.5692,4.5692,4.5763,4.5838,4.5799,0.0,0.0,0.0,0.0,0.0,0.0,0.0,0.0,0.0,0.0,0.0,0.0,0.0,0.0,0.0,0.0,0.0,0.0,0.0,0.0,0.0,0.0,0.0,0.0,4.588,4.599,4.6341,4.6117,4.6056,4.6494,4.6992,4.7328,4.7357,4.7785,4.8054,4.8054,4.8054,4.8207,4.8534,4.8553,4.8731,4.9096,4.9115,4.9115,4.9115,4.9115,4.9115,4.9096,4.9066,4.9035,4.8991,4.896,4.8936,4.8889,4.8861,4.8653,4.8334,4.8334,4.8138,4.7693,0.0,0.0,0.0,0.0,4.6347,4.6405,0.0,0.0,0.0,0.0,0.0,0.0,0.0,4.5872,4.5742,4.5585,4.5408,4.5245,4.5112,4.5103,4.5103,4.5103,4.5153,4.5186,4.5186,4.5235,4.5281,4.5281,4.5281,4.5281,4.5281,4.5281,4.5281,4.5281,4.5281,4.5281,4.5281,4.5281,4.5281,4.5281,4.5281,4.5312,4.5388,4.5388,4.538,4.5386,4.5386,4.5395,4.5405,4.5405,4.5504,4.5673,4.5673,4.5747,4.5833,4.5833,0.0,0.0,0.0,0.0,0.0,0.0,0.0,0.0,0.0,0.0,0.0,0.0,0.0,0.0,0.0,0.0,0.0,0.0,0.0,0.0,0.0,0.0,0.0,0.0,4.6603,4.68,4.7679,4.7264,4.7126,4.7771,4.8006,4.8083,4.8017,4.817,4.8323,4.8419,4.8419,4.8745,4.944,4.9479,0.0,0.0,0.0,5.0505,5.0505,5.0505,5.0505,5.0505,5.0495,5.0462,5.0401,5.0396,5.0367,5.0302,5.0302,4.9882,4.9238,4.9238,4.8774,4.8061,4.787,4.7794,4.7794,4.7794,4.7794,4.7813,0.0,0.0,0.0,0.0,0.0,0.0,0.0,4.5776,4.5694,4.5393,4.5323,4.5245,4.5112,4.5103,4.5103,4.5103,4.5114,4.5125,4.5125,4.5136,4.5142,4.5142,4.5142,4.5142,4.5142,4.5142,4.5142,4.5142,4.5142,4.5142,4.5142,4.5142,4.5142,4.5142,4.5142,4.5175,4.5249,4.5249,4.5262,4.5314,4.5314,4.5351,4.5405,4.5405,4.5414,4.5456,4.5456,4.5469,4.5509,4.5509,4.5567,4.5656,4.5656,4.5741,0.0,0.0,0.0,0.0,0.0,0.0,0.0,0.0,0.0,0.0,0.0,0.0,0.0,0.0,0.0,0.0,0.0,0.0,0.0,4.7428,4.6959,4.68,4.7679,4.8269,4.8182,4.7011,4.805,4.8645,4.806,4.9215,5.0284,5.093,5.1026,5.1108,5.1198,5.1218,5.0993,5.0525,5.0505,5.0505,5.0505,5.0505,5.0505,5.05,5.0451,0.0,5.0401,5.0337,5.0314,5.0302,5.0302,5.0206,5.0073,5.0073,4.9977,4.9685,4.8329,4.7794,4.7794,4.7794,4.7794,4.7908,0.0,0.0,0.0,0.0,0.0,0.0,0.0,4.5554,4.5432,4.5268,4.515,4.5071,4.5009,4.4991,4.4991,4.4991,4.502,4.5055,4.5103,4.5103,4.5103,4.5103,4.5103,4.5103,4.5103,4.5103,4.5103,4.5103,4.5103,4.5103,4.5103,4.5103,4.5103,4.5103,4.5103,4.512,4.5153,4.5153,4.517,4.5197,4.5249,4.5272,4.5305,4.5336,4.5361,4.5404,4.5404,4.5405,4.5405,4.5405,4.5432,4.5494,4.5494,4.5595,4.5701,0.0,0.0,0.0,0.0,0.0,0.0,0.0,0.0,0.0,0.0,0.0,0.0,0.0,0.0,4.6672,4.7087,0.0,4.7564,4.8844,4.8691,4.885,5.013,5.0684,5.0333,4.866,4.9922,5.0818,5.0451,5.1159,5.1829,5.2225,5.2288,5.2288,5.2244,5.2244,5.2078,5.1656,5.1255,5.1044,5.1044,5.0623,5.0393,5.0393,5.0379,5.0342,5.0342,5.0314,5.0302,5.0302,5.0302,5.0302,5.0302,5.0302,5.0302,5.0225,4.9379,4.9054,4.9054,4.9054,4.9054,4.9112,0.0,0.0,0.0,0.0,0.0,0.0,0.0,4.5267,4.5129,4.5114,4.4979,4.4895,4.4895,4.4895,4.4895,4.4895,4.4938,4.4955,4.5009,4.5014,4.5014,4.5014,4.5057,4.5068,4.5068,4.5068,4.5068,4.5068,4.5068,4.5068,4.5068,4.5068,4.5068,4.5068,4.5068,4.5074,4.5085,4.5085,4.5091,4.5089,4.5159,4.5181,4.5186,4.5265,4.5323,4.5388,4.5388,4.538,4.5376,4.5376,4.5376,4.5376,4.5376,4.5446,4.5559,4.5675,4.571,0.0,0.0,0.0,0.0,0.0,0.0,0.0,0.0,4.6322,4.6743,4.6743,4.7316,4.7908,4.8233,4.829,4.8825,5.0512,5.0512,5.0837,5.2346,5.2575,5.2117,5.0932,5.1983,5.2734,5.2581,5.2715,5.2868,5.3034,5.3059,5.3059,5.3059,5.3059,5.2964,5.2811,5.2174,5.1767,5.1595,5.0907,5.0474,5.0302,5.0302,5.0296,5.0284,5.0284,5.0278,5.0261,5.0261,5.0261,5.0261,5.0261,5.0261,5.0261,5.0261,5.0261,5.0261,5.0278,5.0175,5.0063,0.0,0.0,0.0,0.0,0.0,0.0,0.0,0.0,4.4893,4.477,4.4833,4.4895,4.4895,4.4895,4.4895,4.4895,4.4808,4.4744,4.4732,4.4732,4.4732,4.4732,4.4852,4.4913,4.4913,4.4913,4.4913,4.4913,4.4913,4.4913,4.4913,4.4913,4.4913,4.4913,4.4913,4.4968,4.5003,4.5003,4.5057,4.5103,4.5114,4.5114,4.512,4.5181,4.524,4.5312,4.5312,4.5317,4.5304,4.5304,4.5304,4.5304,4.5304,4.5319,4.5345,4.5346,4.5356,4.5361,4.5366,4.5446,4.5667,4.6246,4.6522,4.6796,0.0,4.7608,4.7654,4.7654,4.7736,4.8252,4.9742,5.0015,5.0569,5.2257,5.1276,5.064,5.1595,5.1729,5.1926,5.2467,5.2696,5.2518,5.1805,5.2384,5.3116,5.3894,5.3951,5.3951,5.3951,5.3951,5.3588,5.283,5.2709,5.2327,5.1614,5.1499,5.106,5.0302,5.0302,5.0273,5.02,5.02,5.0188,5.012,5.012,5.012,5.012,5.012,5.012,5.012,5.012,5.012,5.0133,5.0194,4.9757,4.9195,0.0,0.0,0.0,0.0,0.0,0.0,0.0,0.0,0.0,4.4592,4.4632,4.4672,4.4672,4.4672,4.4672,4.4672,4.4612,4.4578,4.4578,4.4578,4.4578,4.4578,4.4639,4.4672,4.4672,4.4672,4.4672,4.4672,4.4672,4.4712,4.4777,4.4777,4.484,4.4895,4.4895,4.4926,4.4937,4.4937,4.4949,4.4998,4.5033,4.5032,4.5057,4.512,4.5159,4.5192,4.5281,4.5302,0.0,4.5302,4.5302,4.5302,4.5302,4.5302,4.5328,4.5395,4.5366,4.5397,4.587,4.6033,4.6271,4.7051,4.7329,4.7467,4.7734,4.8558,4.9245,4.9245,5.0029,5.0913,5.162,5.1372,5.1442,5.262,5.1781,5.1464,5.2819,5.2959,5.3238,5.4045,5.4141,5.4052,5.3824,5.4116,5.4467,5.483,5.4868,5.481,5.474,5.4734,5.4561,5.416,5.3677,5.327,5.2946,5.245,5.1764,5.0945,5.0945,5.0665,5.0145,5.0145,5.0133,5.0101,5.0101,5.0101,5.0101,5.0101,5.0101,5.0101,5.0101,4.9959,4.9792,5.005,4.9928,4.9665,0.0,0.0,0.0,0.0,0.0,0.0,0.0,0.0,0.0,0.0,4.448,4.4501,4.4501,4.4501,4.4501,4.4501,4.4473,4.4451,4.4451,4.4451,4.4451,4.4451,4.4487,4.4501,4.4501,4.4501,4.4501,4.4501,4.4501,4.4544,4.4646,4.4646,4.4705,4.4783,4.4821,4.484,4.484,4.4877,4.4895,4.4901,4.4943,4.4967,4.4973,4.5057,4.5061,4.5097,4.5219,4.5281,4.5281,4.5297,4.5302,4.5302,4.5302,4.5302,4.5314,4.541,4.5539,4.5755,4.6347,4.6686,4.7068,4.7946,4.8329,4.8552,4.8764,4.9929,5.0954,5.0936,5.1909,5.2825,5.3054,5.2628,5.2494,5.3302,5.2711,5.2653,5.4102,5.4062,5.4199,5.5005,5.5101,5.5154,5.5293,5.5325,5.5325,5.5325,5.5325,5.5267,5.5182,5.5182,5.5155,5.5101,5.4535,5.4116,5.39,5.3272,5.2549,5.1738,5.1738,5.1382,5.0754,5.0735,5.0728,5.0728,5.0728,5.0728,5.0728,5.0728,5.0728,5.0728,5.0728,5.0555,5.0337,5.0635,5.0384,4.99,0.0,0.0,0.0,0.0,0.0,0.0,0.0,0.0,0.0,0.0,0.0,0.0,0.0,4.4501,4.4501,4.4501,4.438,4.4307,4.4307,4.4307,4.4307,4.4307,4.4437,4.4501,4.4501,4.4501,4.4501,4.4501,4.4501,4.4508,4.4508,4.4508,4.4515,4.4522,4.4652,4.4712,4.4706,4.484,4.4895,4.4895,4.4895,4.4895,4.4901,4.4986,4.4997,4.5009,4.5153,4.5197,4.5208,4.5286,4.5302,4.5302,4.5302,4.5302,4.5302,4.5293,4.5856,4.6476,4.6495,4.7125,4.7966,4.8837,4.9652,5.0437,5.1217,5.2018,5.2609,5.2531,5.2575,5.286,5.3717,5.385,5.4085,5.4891,5.4351,5.4116,5.4948,5.439,5.4192,5.5005,5.5101,5.5101,5.5107,5.5107,5.5107,5.5107,5.5107,5.5101,5.5101,5.5101,5.5101,5.5101,5.5082,5.4694,5.39,5.3862,5.3424,5.2549,5.2549,5.2523,5.2417,5.2359,5.2324,5.2324,5.2324,5.2324,5.2324,5.2324,5.2324,5.2324,5.2324,5.2317,5.231,5.2336,5.1103,4.9429,0.0,0.0,0.0,0.0,0.0,0.0,0.0,0.0,0.0,0.0,0.0,0.0,0.0,0.0,0.0,0.0,4.4139,4.409,4.409,4.409,4.409,4.409,4.4136,4.4166,4.4166,4.4166,4.4166,4.4166,4.4166,4.4244,4.4373,4.4373,4.4416,4.4508,4.4556,4.4565,4.459,4.4718,4.4776,4.4783,4.4858,4.4895,4.4895,4.4938,4.4925,4.4956,0.0,4.5103,4.5142,4.5159,4.517,4.517,4.517,4.517,4.5279,4.585,4.6212,4.6689,4.7788,4.8303,4.8874,5.0265,5.0837,5.125,5.2043,5.2894,5.3496,5.3469,5.3888,5.4351,5.4637,5.4268,5.4002,5.4268,5.3543,5.3268,5.413,5.3967,5.4064,5.4868,5.4963,5.4963,5.4963,5.5057,5.5101,5.5101,5.5101,5.5073,5.5042,5.5023,5.5014,5.4963,5.4963,5.4849,5.4577,5.4558,5.4159,5.3324,5.2729,5.2456,5.2428,5.2407,5.2393,5.2393,5.2393,5.2393,5.2393,5.2393,5.2393,5.2393,5.2393,5.2393,5.2371,5.2152,5.1787,5.1389,0.0,0.0,0.0,0.0,0.0,0.0,0.0,0.0,0.0,0.0,0.0,0.0,0.0,0.0,0.0,0.0,0.0,4.4792,4.4792,4.4792,4.4792,4.4792,4.4792,4.4792,4.4792,4.4792,4.479,4.483,4.4533,4.4474,4.4658,4.4341,4.4237,4.4325,4.4401,4.443,4.4437,4.4572,4.4659,4.4712,4.4789,4.4852,4.4895,4.4895,4.4895,0.0,4.4943,4.4985,4.5045,4.5072,4.5103,4.5103,4.5103,4.5312,4.5679,4.625,4.6815,4.7538,4.8604,4.9346,5.0044,5.1129,5.1852,5.2416,5.2922,5.3676,5.4296,5.4268,5.4667,5.5035,5.5035,5.461,5.4261,5.4261,5.3751,5.3552,5.4102,5.4153,5.4325,5.4844,5.4901,5.4901,5.4901,5.4978,5.5035,5.5035,5.5035,5.5014,5.4982,5.4956,5.4934,5.4901,5.4901,5.4901,5.4901,5.4901,5.4628,5.4117,5.3567,5.3283,5.3283,5.3283,5.3283,5.3283,5.3283,5.3283,5.3283,5.3283,5.3283,5.3283,5.3283,5.3283,5.3247,5.2895,5.298,5.3186,0.0,0.0,0.0,0.0,0.0,0.0,0.0,0.0,0.0,0.0,0.0,0.0,0.0,0.0,0.0,0.0,0.0,0.0,4.6197,4.6197,4.6197,4.6197,4.6197,4.6197,4.6197,4.6197,4.6231,4.6296,4.5519,4.5235,4.5342,4.4506,4.4116,4.4068,4.4266,4.4322,4.4292,4.4437,4.4565,4.4692,4.4705,4.477,4.4895,4.4895,4.4895,4.4895,4.4895,4.4895,4.4913,4.5057,4.5097,4.5097,4.5135,4.5725,4.641,4.6486,4.7641,4.8915,4.8991,5.0184,5.1401,5.1496,5.2714,5.3873,5.3855,5.4442,5.4971,5.4916,5.4901,5.4901,5.4901,5.4901,5.4901,5.4901,5.4901,5.4901,5.4901,5.4901,5.4901,5.4901,5.4901,5.4901,5.4901,5.4901,5.4901,5.4901,5.4901,5.4901,5.4901,5.4901,5.4901,5.4901,5.4901,5.4901,5.4901,5.4901,5.4901,5.4901,5.4901,5.4901,5.4901,5.4901,5.4894,5.4886,5.4886,5.4879,5.4871,5.4871,5.4871,5.4871,5.4871,5.4871,5.4841,5.4451,5.4533,5.4566,0.0,0.0,0.0,0.0,0.0,0.0,0.0,0.0,0.0,0.0,0.0,0.0,0.0,0.0,0.0,0.0,0.0,0.0,4.6197,4.6197,4.6197,4.6197,4.6197,4.6197,4.6197,4.6197,4.6206,4.6241,4.6077,4.6017,4.6042,4.5923,4.5547,4.4979,4.5018,4.4688,4.4082,4.4266,4.4437,4.4551,4.4666,4.477,4.4895,4.4895,4.4895,4.4895,4.4895,4.4895,4.492,4.4931,4.4943,4.5057,4.5708,4.6069,4.6505,4.7758,4.8422,4.9029,5.0268,5.0932,5.1558,5.2791,5.3436,5.391,5.4495,5.4779,5.4923,5.4901,5.4901,5.4901,5.4901,5.4901,5.4901,5.4901,5.4901,5.4901,5.4901,5.4901,5.4901,5.4901,5.4901,5.4901,5.4901,5.4901,5.4901,5.4901,5.4901,5.4901,5.4901,5.4901,5.4901,5.4901,5.4901,5.4901,5.4901,5.4901,5.4901,5.4901,5.4901,5.4901,5.4901,5.4901,5.4814,5.4687,5.4687,5.4616,5.4524,5.4524,5.4524,5.4524,5.4524,5.4524,5.4516,5.4405,5.4251,5.4008,0.0,0.0,0.0,0.0,0.0,0.0,0.0,0.0,0.0,0.0,0.0,0.0,0.0,0.0,0.0,0.0,0.0,0.0,0.0,4.7132,4.7132,4.7132,4.7132,4.7132,4.7132,4.7132,4.715,4.7205,4.688,4.6774,4.686,4.6559,4.6201,4.5825,4.5825,4.5361,4.4589,4.469,4.4651,0.0,0.0,4.4738,4.4895,4.4895,4.4895,4.4895,4.4895,4.4895,4.4895,4.4895,4.5141,4.5558,4.6057,4.6702,4.7479,4.8414,4.8945,4.9431,5.0372,5.1168,5.1957,5.2885,5.3681,5.4352,5.4806,5.4901,5.4901,5.4901,5.4901,5.4901,5.4901,5.4901,5.4901,5.4901,5.4901,5.4901,5.4901,5.4901,5.4901,5.4901,5.4901,5.4901,5.4901,5.4901,5.4901,5.4901,5.4901,5.4901,5.4901,5.4901,5.4901,5.4901,5.4901,5.4901,5.4901,5.4814,5.4776,5.4776,5.4698,5.4686,5.4686,5.4686,5.4611,5.4503,5.4503,5.4464,5.4409,5.4409,5.4409,5.4409,5.4409,5.4409,5.4356,5.399,5.3851,5.3729,0.0,0.0,0.0,0.0,0.0,0.0,0.0,0.0,0.0,0.0,0.0,0.0,0.0,0.0,0.0,0.0,0.0,0.0,0.0,0.0,4.8296,4.8296,4.8296,4.8296,4.8296,4.8296,4.8363,4.8466,4.7813,4.7563,4.7722,4.6999,4.6642,4.6661,4.6661,4.6205,4.5462,4.5462,4.5151,4.4623,4.4623,4.4726,4.4864,0.0,4.4877,4.4895,4.4895,4.4895,4.4914,4.5028,4.5577,4.6228,4.6323,4.7441,4.8711,4.8831,4.9362,4.9924,5.0038,5.113,5.2298,5.2525,5.3662,5.4769,5.4882,5.4901,5.4901,5.4901,5.4901,5.4901,5.4901,5.4901,5.4901,5.4901,5.4901,5.4901,5.4901,5.4901,5.4901,5.4901,5.4879,5.4909,5.5015,5.5019,5.5042,5.5147,5.5147,5.5076,5.4913,5.4901,5.4886,5.4871,5.4849,5.4833,5.4833,5.4664,5.4573,5.4565,5.4466,5.4409,5.4409,5.4409,5.44,5.4356,5.4356,5.4339,5.4313,5.4313,5.4313,5.4313,5.4313,5.4313,5.4252,5.3537,5.3461,5.3587,0.0,0.0,0.0,0.0,0.0,0.0,0.0,0.0,0.0,0.0,4.6728,4.6755,0.0,0.0,0.0,0.0,0.0,0.0,0.0,0.0,0.0,4.8296,4.8296,4.8296,4.8296,4.8296,4.8306,4.8325,4.8357,4.8384,4.842,4.8442,4.8111,4.7497,4.7497,4.7051,4.629,4.629,4.5919,4.5339,4.5339,4.5082,4.4725,4.4725,0.0,0.0,4.4895,4.4895,4.5009,4.5729,4.6076,4.6323,4.698,4.7896,4.8831,4.9488,4.9798,5.0057,5.0789,5.118,5.1748,5.3139,5.3688,5.4079,5.475,5.4901,5.4901,5.4901,5.4901,5.4901,5.4901,5.4901,5.4901,5.4901,5.4901,5.4901,5.4901,5.4901,5.4901,5.4901,5.475,5.4947,5.5657,5.5574,5.5744,5.6431,5.6469,5.6022,5.4962,5.4901,5.4822,5.4653,5.4546,5.4483,5.4483,5.4458,5.4441,5.4441,5.4407,5.4409,5.4409,5.4409,5.4313,5.4154,5.4154,5.4055,5.3898,5.3898,5.3898,5.3898,5.3898,5.3898,5.3898,5.3756,5.3553,5.3353,0.0,0.0,0.0,0.0,0.0,0.0,0.0,4.5691,4.6388,4.7581,4.7728,4.7728,4.7728,4.8076,0.0,0.0,0.0,0.0,0.0,0.0,0.0,0.0,4.8296,4.8296,4.8296,4.8296,4.8296,4.8296,0.0,4.8578,4.8596,4.8777,4.8661,4.8314,4.8314,4.7887,4.7125,4.7125,4.6741,4.6115,4.6115,4.6008,4.5859,0.0,0.0,0.0,4.6203,4.5918,4.5691,4.655,4.6809,4.6967,4.7801,4.8654,4.9393,4.9798,4.9905,4.9981,5.041,5.0846,5.1483,5.2715,5.3359,5.3916,5.4731,5.4901,5.4901,5.4901,5.4901,5.4901,5.4901,5.4901,5.4901,5.4901,5.4814,5.4742,5.4742,5.4683,5.4638,5.4638,5.4923,5.5279,5.5693,5.604,5.6372,5.6766,5.6804,5.6527,5.5915,5.5885,5.5645,5.5137,5.5071,5.4813,5.4409,5.4295,5.4458,5.4861,5.4753,5.495,5.5398,5.5398,5.5352,5.5239,5.5239,5.4921,5.4416,5.4416,5.4174,5.3803,5.3803,5.3803,5.3784,5.36,5.3451,5.3287,0.0,0.0,0.0,0.0,0.0,0.0,0.0,4.6571,4.7388,4.8186,4.8296,4.8296,4.8296,4.8296,4.8296,0.0,0.0,0.0,0.0,0.0,0.0,0.0,0.0,0.0,4.8296,0.0,0.0,4.8335,4.8457,0.0,0.0,0.0,0.0,0.0,4.8909,4.8556,4.7961,4.7961,4.7554,0.0,0.0,4.6883,4.6873,0.0,0.0,0.0,0.0,4.6986,4.6588,4.7403,4.7687,4.7839,4.8692,4.94,4.9943,5.0113,5.0057,4.9943,5.0132,5.0542,5.1161,5.2146,5.2904,5.3681,5.4674,5.4901,5.4901,5.4901,5.4901,5.4886,5.4837,5.483,5.4841,5.4803,5.4656,5.4568,5.4568,5.4464,5.4465,5.4634,5.5173,5.569,5.6047,5.6601,5.7014,5.7183,5.7201,5.7088,5.6814,5.6768,5.645,5.5813,5.5758,5.5441,5.4813,5.4651,5.4895,5.552,5.5358,5.5642,5.6302,5.6302,5.6302,5.6302,5.6302,5.5912,5.527,5.527,5.4899,5.4351,5.4351,5.4212,5.4034,5.3751,5.3517,5.3248,0.0,0.0,0.0,0.0,0.0,0.0,0.0,4.6571,4.7388,4.8186,4.8296,4.8296,4.8296,4.8296,4.8296,0.0,0.0,0.0,0.0,0.0,0.0,0.0,0.0,0.0,0.0,0.0,0.0,4.8476,4.8541,0.0,0.0,0.0,0.0,0.0,0.0,4.8872,4.8797,4.8797,0.0,0.0,0.0,0.0,0.0,0.0,0.0,0.0,0.0,4.7346,4.7422,4.8294,4.8585,4.8711,4.9526,4.9829,5.0057,5.0846,5.0523,5.0075,5.0858,5.0561,5.0398,5.1995,5.2468,5.2942,5.4541,5.4901,5.4901,5.4901,5.4901,5.4837,5.4653,5.4629,5.4592,5.4466,5.4424,5.4415,5.4415,5.4399,5.4672,5.5395,5.5395,5.593,5.7453,5.7502,5.7746,5.8471,5.8527,5.8018,5.6852,5.6631,5.65,5.6426,5.63,5.6203,5.6138,5.6118,5.6127,5.622,5.62,5.6227,5.6302,5.6302,5.6302,5.6302,5.6302,5.6246,5.619,5.619,5.6134,5.6079,5.6079,5.5586,5.4899,5.4869,5.4189,5.3308,0.0,0.0,0.0,0.0,0.0,0.0,4.5847,4.6994,4.7948,4.826,4.8296,4.8296,4.8296,4.8296,4.8296,0.0,0.0,0.0,0.0,0.0,0.0,0.0,0.0,0.0,0.0,0.0,4.8447,4.8503,4.8661,0.0,0.0,0.0,0.0,0.0,0.0,4.8909,4.8909,4.8909,0.0,0.0,0.0,0.0,0.0,0.0,0.0,0.0,0.0,0.0,4.83,4.9045,4.9035,4.8843,4.964,4.9905,4.9962,5.0322,5.017,4.9981,5.0322,5.0151,5.0303,5.1976,5.2301,5.267,5.4341,5.4659,5.4598,5.4598,5.4598,5.4581,5.4489,5.448,5.4455,5.4399,5.4304,5.4216,5.4216,5.4128,5.4344,5.5137,5.5631,5.6346,5.7518,5.7977,5.8353,5.8669,5.8706,5.8481,5.7972,5.7875,5.7612,5.7128,5.7048,5.6785,5.6302,5.6302,5.6543,5.7026,5.7026,5.7276,5.774,5.774,5.774,5.774,5.774,5.7472,5.7026,5.7026,5.6747,5.6302,5.6302,5.6097,5.5782,5.5782,5.5498,5.5109,0.0,0.0,0.0,0.0,0.0,4.5975,4.6214,4.7416,4.8296,4.8296,4.8296,4.8296,4.8296,4.8296,4.8296,4.8296,0.0,0.0,0.0,0.0,0.0,0.0,0.0,0.0,0.0,0.0,4.855,4.8578,4.8724,4.8804,0.0,0.0,4.8909,4.8909,0.0,0.0,0.0,0.0,0.0,0.0,0.0,0.0,0.0,0.0,0.0,0.0,0.0,0.0,0.0,0.0,0.0,4.9153,4.9715,4.9905,4.9943,5.0208,5.0094,5.0,5.0492,5.0473,5.0668,5.2278,5.2579,5.2846,5.4231,5.4464,5.4424,5.4505,5.4466,5.4407,5.4447,5.4382,5.4295,5.4234,5.41,5.4009,5.4009,5.4084,5.4453,5.5289,5.6143,5.697,5.7788,5.8372,5.8706,5.8706,5.8706,5.8706,5.8706,5.8706,5.8427,5.7881,5.7852,5.7573,5.7026,5.7008,5.7286,5.7852,5.7852,5.8149,5.8706,5.8706,5.8706,5.8706,5.8706,5.8372,5.7852,5.7852,5.7517,5.7008,5.7008,5.6859,5.6655,5.6655,5.6506,5.6302,0.0,0.0,0.0,0.0,0.0,0.0,4.6966,4.7783,4.8296,4.8296,4.8296,4.8296,4.8296,4.8296,4.8296,4.8296,0.0,0.0,0.0,0.0,0.0,0.0,0.0,0.0,0.0,0.0,4.866,4.8796,4.8796,4.8821,4.8909,4.8909,4.8909,4.8909,0.0,0.0,0.0,0.0,0.0,0.0,0.0,0.0,0.0,0.0,0.0,0.0,0.0,0.0,0.0,0.0,0.0,0.0,0.0,4.9905,5.0075,5.0933,5.058,5.0265,5.1919,5.1786,5.1542,5.3013,5.3398,5.3558,5.4244,5.439,5.4472,5.475,5.4573,5.4449,5.4573,5.4335,5.4036,5.3851,5.3794,5.3794,5.3794,5.45,5.5307,5.619,5.7008,5.7796,5.8613,5.8706,5.8706,5.8706,5.8706,5.8706,5.8706,5.8706,5.8706,5.8687,5.8687,5.8669,5.8669,5.8669,5.8669,5.8687,5.8687,5.8687,5.8706,5.8706,5.8706,5.8706,5.8706,5.8706,5.8687,5.8687,5.8669,5.8669,5.8669,5.8186,5.748,5.748,5.6989,5.6302,0.0,0.0,0.0,0.0,0.0,0.0,0.0,4.7783,4.8296,4.8296,4.8296,4.8296,4.8296,4.8296,4.8296,4.8296,0.0,0.0,0.0,0.0,0.0,0.0,0.0,0.0,0.0,0.0,4.876,4.8796,4.8857,4.8883,4.8909,4.8909,4.8909,4.8909,4.8909,4.8909,0.0,0.0,0.0,0.0,0.0,0.0,4.9823,0.0,0.0,0.0,0.0,0.0,0.0,0.0,0.0,0.0,0.0,0.0,0.0,5.0085,5.0031,5.0112,5.1108,5.1193,5.1356,5.2833,5.3097,5.3202,5.4011,5.4258,5.4291,5.4152,5.4231,5.4274,5.409,5.3972,5.387,5.3813,5.3803,5.3803,5.3803,5.449,5.5326,5.6209,5.7509,5.8409,5.8669,5.8706,5.8706,5.8706,5.8706,5.8706,5.8706,5.8706,5.8706,5.8706,5.8706,5.8706,5.8706,5.8706,5.8706,5.8706,5.8706,5.8706,5.8706,5.8706,5.8706,5.8706,5.8706,5.8706,5.8706,5.8706,5.8706,5.8706,5.8706,5.8539,5.8316,5.8316,5.8149,5.7945,0.0,0.0,0.0,0.0,0.0,0.0,0.0,4.7984,4.8296,4.8296,4.8296,4.8296,4.8296,4.8353,4.8372,4.8372,0.0,0.0,0.0,0.0,0.0,0.0,0.0,0.0,0.0,4.8777,4.884,4.884,4.8883,4.8909,4.8909,4.8909,4.8909,4.8909,4.8986,4.9012,0.0,0.0,0.0,0.0,0.0,0.0,4.9898,0.0,0.0,0.0,0.0,0.0,0.0,0.0,0.0,0.0,0.0,0.0,0.0,0.0,4.9659,4.9861,5.0625,5.1046,5.1565,5.2728,5.3161,5.341,5.3869,5.4152,5.4281,5.4194,5.4246,5.4281,5.4186,5.3972,5.3803,5.3803,5.3803,5.3803,5.3803,5.4769,5.592,5.7082,5.8093,5.8706,5.8706,5.8706,5.8706,5.8706,5.8706,5.8706,5.8706,5.8706,5.8706,5.8706,5.8706,5.8706,5.8706,5.8706,5.8706,5.8706,5.8706,5.8706,5.8706,5.8706,5.8706,5.8706,5.8706,5.8706,0.0,5.8706,5.8706,5.8706,5.8706,5.8706,5.8706,5.8706,5.8706,5.8706,0.0,0.0,0.0,0.0,0.0,0.0,0.0,0.0,4.8373,4.8335,4.8354,4.8383,4.8363,4.8467,4.855,4.8578,0.0,0.0,0.0,0.0,0.0,0.0,0.0,0.0,0.0,4.8865,4.8909,4.8909,4.8909,4.8909,4.8909,4.8909,4.8909,4.8935,4.9113,4.9203,0.0,0.0,0.0,0.0,0.0,0.0,0.0,0.0,0.0,0.0,0.0,0.0,0.0,0.0,0.0,0.0,0.0,0.0,0.0,0.0,0.0,0.0,0.0,5.1212,5.2034,5.2715,5.3484,5.4036,5.387,5.4098,0.0,5.4739,5.4552,5.4422,5.4708,5.4238,5.3803,5.3803,5.3803,5.3822,5.3877,5.5336,5.697,5.852,5.8706,5.8706,5.8706,5.8706,5.8706,5.8706,5.8706,5.8706,5.8706,5.8706,5.8706,5.8706,5.8706,5.8706,5.8706,5.8706,5.8706,5.8706,5.8706,5.8706,5.8706,5.8706,5.8687,5.8696,5.8696,5.8677,5.8685,5.8685,5.8685,5.8685,5.8685,5.8685,5.8685,5.8685,5.8685,5.8685,0.0,0.0,0.0,0.0,0.0,0.0,0.0,0.0,0.0,0.0,4.8924,4.9134,4.8927,4.8937,4.9036,0.0,0.0,0.0,0.0,0.0,0.0,0.0,0.0,0.0,0.0,4.8891,4.8909,4.8909,4.8909,4.8909,4.8909,4.8909,4.8986,4.9129,4.917,4.9332,0.0,0.0,0.0,0.0,0.0,0.0,0.0,0.0,0.0,0.0,5.007,5.0025,0.0,0.0,0.0,0.0,0.0,0.0,0.0,0.0,4.9313,4.939,4.9336,0.0,5.1829,5.2502,5.3293,5.3935,0.0,5.4438,5.4708,5.4784,5.4739,5.4631,5.4446,5.408,5.3803,5.3803,5.3803,5.4007,5.462,5.6162,5.7592,5.8576,5.8706,5.8706,5.8706,5.8706,5.8706,5.8706,5.8706,5.8706,5.8706,5.8706,5.8706,5.8706,5.8706,5.8706,5.8706,5.8706,5.8706,5.8706,5.8706,5.8706,5.8706,5.8706,5.8646,5.8543,5.8543,5.8519,5.848,5.848,5.848,5.848,5.848,5.848,5.848,5.848,5.848,5.848,0.0,0.0,0.0,0.0,0.0,0.0,0.0,0.0,0.0,0.0,0.0,0.0,0.0,0.0,0.0,0.0,0.0,0.0,0.0,0.0,0.0,0.0,0.0,4.8909,4.8909,4.8909,4.8909,4.8909,4.8909,4.8909,4.8909,4.8995,4.9096,4.9214,4.9355,4.9536,0.0,0.0,0.0,0.0,4.9802,0.0,0.0,0.0,0.0,0.0,5.0076,4.9953,0.0,4.9973,4.9838,4.9578,0.0,0.0,0.0,0.0,4.9342,4.9168,4.9144,5.0298,5.1598,5.1964,5.294,5.3889,5.422,5.456,5.4799,5.4799,5.4799,5.47,5.4355,5.4036,5.3803,5.3803,5.41,5.4769,5.5976,5.6923,5.7796,5.8595,5.8706,5.8706,5.8706,5.8706,5.8706,5.8706,5.8706,5.8706,5.8706,5.8706,5.8706,5.8706,5.8635,5.8635,5.8706,5.8635,5.8614,5.8614,5.858,5.8558,5.8558,5.8558,5.8526,5.8443,5.8443,5.8429,5.8393,5.8393,5.8393,5.8393,5.8393,5.8393,5.8393,5.8393,5.8393,5.8393,0.0,0.0,0.0,0.0,0.0,0.0,0.0,0.0,0.0,0.0,0.0,0.0,0.0,0.0,0.0,0.0,0.0,0.0,0.0,0.0,0.0,0.0,0.0,4.8909,4.8909,4.8909,4.8909,4.8909,4.8909,4.8909,4.8909,4.9104,4.9238,4.9284,4.9582,4.9707,0.0,0.0,0.0,0.0,4.9707,0.0,0.0,0.0,0.0,0.0,0.0,0.0,0.0,4.9805,4.9707,4.945,4.9554,0.0,0.0,0.0,0.0,0.0,4.9415,5.0435,5.1416,5.1452,5.2652,5.3907,5.4298,5.456,5.4739,5.4791,5.4761,5.4639,5.4347,5.4036,5.384,5.3952,5.4769,5.5883,5.7295,5.761,5.7945,5.8613,5.8706,5.8706,5.8706,5.8706,5.8706,5.8706,5.8706,5.8706,5.8706,5.8706,5.8706,5.8706,5.8593,5.8582,5.8667,5.8553,5.8511,5.8532,5.8473,5.8437,5.8426,5.8426,5.8404,5.8371,5.8371,5.836,5.8338,5.8338,5.8338,5.8338,5.8338,5.8338,5.8338,5.8338,5.8338,5.8338,0.0,0.0,0.0,0.0,0.0,0.0,0.0,0.0,0.0,0.0,0.0,0.0,0.0,0.0,0.0,0.0,0.0,0.0,0.0,0.0,0.0,0.0,4.8909,4.8909,4.8909,4.8909,4.8909,4.8909,4.8909,4.8909,4.8909,4.9104,4.934,4.9626,4.9678,4.9752,4.9864,0.0,0.0,0.0,4.975,0.0,0.0,0.0,0.0,0.0,0.0,0.0,0.0,4.9916,4.9844,4.9561,4.9591,0.0,0.0,0.0,0.0,0.0,4.9874,5.0672,5.1461,5.1753,5.2814,5.3963,5.4583,5.4544,5.4455,5.4739,5.4576,5.4355,5.4315,5.4036,5.4007,5.4713,5.6106,5.7202,5.7462,5.8093,5.8557,5.8687,5.8706,5.8706,5.8706,5.8706,5.8706,5.8706,5.8706,5.8706,5.8706,5.8706,5.8706,5.8706,5.8677,5.8625,5.8532,5.8511,5.8553,5.8667,5.8664,5.8593,5.8479,5.8479,5.8389,5.8231,5.8231,5.8174,5.8054,5.8054,5.8054,5.8054,5.8054,5.8054,5.8054,5.8054,5.8054,5.8054,0.0,0.0,0.0,0.0,0.0,0.0,0.0,0.0,0.0,0.0,0.0,0.0,0.0,0.0,0.0,0.0,0.0,0.0,0.0,0.0,0.0,4.8917,4.9003,4.9012,4.8909,4.8909,4.8909,4.8909,4.9012,4.9062,4.9071,4.934,4.9559,4.9699,4.9699,4.9666,4.9633,4.9559,0.0,0.0,0.0,0.0,0.0,0.0,0.0,0.0,0.0,0.0,0.0,0.0,4.9612,4.9514,4.967,0.0,0.0,0.0,0.0,0.0,5.0795,5.1523,5.2121,5.2457,5.3176,5.3926,5.4413,5.4405,5.4338,5.4495,5.4405,5.4246,5.4063,5.3889,5.4212,5.5493,5.671,5.7647,5.8093,5.8465,5.8706,5.8706,5.8706,5.8706,5.8706,5.8706,5.8706,5.8706,5.8635,5.8585,5.8585,5.8569,5.8537,5.8537,5.8473,5.844,5.8451,5.8367,5.8367,5.844,5.8356,5.8301,5.8227,5.8227,5.819,5.8088,5.8088,5.8054,5.7997,5.7997,5.7997,5.7997,5.7997,5.7997,5.7997,5.7997,5.7997,5.7997,0.0,0.0,0.0,0.0,0.0,0.0,0.0,0.0,0.0,0.0,0.0,0.0,0.0,0.0,0.0,0.0,0.0,0.0,0.0,0.0,4.9318,4.9027,4.9152,4.9162,4.8978,4.8993,4.9018,4.9018,4.9179,4.9268,4.9316,4.9582,4.9699,4.9699,4.9699,4.9585,4.9407,4.9407,4.9407,0.0,0.0,0.0,0.0,0.0,0.0,0.0,0.0,0.0,0.0,0.0,0.0,0.0,0.0,0.0,0.0,5.1097,5.0971,5.0755,5.1822,5.2345,5.2735,5.3246,5.3596,5.3889,5.422,5.4238,5.4177,5.4177,5.4177,5.4163,5.4083,5.4397,5.5085,5.6376,5.7268,5.8,5.8613,5.8706,5.8706,5.8706,5.8706,5.8706,5.8706,5.8706,5.8696,5.8656,5.8553,5.8489,5.8486,5.8418,5.8393,5.8393,5.8305,5.8275,5.8349,5.8242,5.8219,5.826,5.8133,5.8084,5.8042,5.8042,5.8031,5.7997,5.7997,5.7997,5.7997,5.7997,5.7997,5.7997,5.7997,5.7997,5.7997,5.7997,5.7997,5.7997,0.0,0.0,0.0,0.0,0.0,0.0,0.0,0.0,0.0,0.0,0.0,0.0,0.0,0.0,0.0,0.0,0.0,0.0,0.0,0.0,4.9521,4.9376,4.9384,4.9313,4.9179,4.9297,4.9349,4.9349,4.9384,4.9468,4.9663,4.9685,4.9699,4.9699,4.9699,4.9585,4.9407,4.9407,4.9407,4.9391,0.0,0.0,0.0,0.0,0.0,0.0,0.0,0.0,0.0,0.0,0.0,0.0,0.0,0.0,5.13,5.1105,5.1379,5.1952,5.2775,5.2811,5.2865,5.3939,5.4007,5.3889,5.422,5.4063,5.3832,5.3832,5.3832,5.4064,5.4779,5.618,5.7257,5.7398,5.8093,5.8632,5.8687,5.8706,5.8706,5.8706,5.8706,5.8706,5.8706,5.8706,5.8646,5.8521,5.8511,5.8476,5.8415,5.8404,5.8393,5.8393,5.8393,5.8338,5.8219,5.8208,5.8253,5.8382,5.8371,5.8316,5.8186,5.8186,5.8129,5.7997,5.7997,5.7997,5.7997,5.7997,5.7997,5.7997,5.7997,5.7997,5.7997,5.7997,5.7997,5.7997,0.0,0.0,0.0,0.0,0.0,0.0,0.0,0.0,0.0,0.0,0.0,0.0,0.0,0.0,0.0,0.0,0.0,0.0,0.0,4.9754,4.9569,4.9415,4.9525,4.9555,4.9503,4.943,4.9407,4.9407,4.9533,4.9666,4.9823,4.9823,4.9717,4.9525,4.963,4.9533,4.9284,4.9368,4.9352,4.9276,4.9211,0.0,0.0,0.0,0.0,0.0,0.0,0.0,0.0,0.0,5.0136,5.0837,5.0735,5.1305,5.2037,5.2198,5.2433,5.2771,5.3372,5.3587,5.3706,5.3924,5.3879,5.3832,5.3963,5.3898,5.3803,5.3803,5.4193,5.4806,5.5642,5.6747,5.7509,5.7509,5.8186,5.8706,5.8706,5.8706,5.8667,5.8593,5.8582,5.8561,5.8516,5.8505,5.8483,5.844,5.8356,5.829,5.8275,5.8197,5.8152,5.8152,5.8152,5.8141,5.8084,5.8084,5.8088,5.8152,5.8152,5.8111,5.8084,5.8084,5.8042,5.7997,5.7997,5.7997,5.7997,5.7997,5.7997,5.7997,5.7997,5.7997,5.7997,5.7997,5.7997,5.7997,0.0,0.0,0.0,0.0,0.0,0.0,0.0,0.0,0.0,0.0,0.0,0.0,0.0,0.0,0.0,0.0,0.0,0.0,4.9979,4.9947,4.9821,4.9574,4.9695,4.9752,4.9752,4.9625,4.9566,4.9566,4.9695,4.9809,4.9905,4.9905,4.9755,4.9491,4.9681,4.9578,4.9276,4.936,4.9313,4.9187,4.9129,4.888,0.0,0.0,0.0,0.0,0.0,0.0,0.0,0.0,5.0501,5.1228,5.1333,5.1987,5.2713,5.2932,5.3236,5.3551,5.3868,5.4044,5.4116,5.4,5.3879,5.3803,5.3803,5.3803,5.3859,5.4119,5.5029,5.5976,5.658,5.7332,5.787,5.787,5.8335,5.8706,5.8706,5.8706,5.8675,5.8564,5.8553,5.8529,5.844,5.8429,5.8415,5.8349,5.8242,5.8186,5.8141,5.8042,5.7997,5.7997,5.7997,5.7997,5.7997,5.7997,5.7997,5.7997,5.7997,5.7997,5.7997,5.7997,5.7997,5.7997,5.7997,5.7997,5.7997,5.7997,5.7997,5.7997,5.7997,5.7997,5.7997,5.7997,5.7997,5.7997,0.0,0.0,0.0,0.0,0.0,0.0,0.0,0.0,0.0,0.0,0.0,0.0,0.0,0.0,0.0,0.0,0.0,0.0,5.0139,5.0296,5.0248,4.9906,4.9905,4.9905,4.9893,4.9893,4.9893,4.9905,4.9905,4.9905,4.9905,4.9905,4.983,4.9707,4.9843,4.9719,4.9407,4.9407,4.9313,4.9179,4.8968,4.8407,0.0,0.0,0.0,0.0,0.0,0.0,0.0,0.0,5.0843,5.0806,5.1865,5.2799,5.3437,5.3112,5.3622,5.4306,5.4306,5.4054,5.387,5.4212,5.4044,5.3803,5.3813,5.3813,5.4044,5.4862,5.6329,5.7509,5.7509,5.8149,5.8706,5.8706,5.8706,5.8706,5.8706,5.8706,5.8706,5.8706,5.8706,5.8646,5.8511,5.85,5.8403,5.8219,5.8197,5.8141,5.8008,5.7997,5.7997,5.7997,5.7997,5.7997,5.7997,5.7997,5.7997,5.7997,5.7997,5.7997,5.7997,5.7997,5.7997,5.7997,5.7997,5.7997,5.7997,5.7997,5.7997,5.7997,5.7997,5.7997,5.7997,5.7997,5.7997,5.7997,0.0,0.0,0.0,0.0,0.0,0.0,0.0,0.0,0.0,0.0,0.0,0.0,0.0,0.0,0.0,0.0,0.0,0.0,5.0188,5.0237,5.0151,4.9899,4.9905,4.9978,5.0101,5.0107,5.0038,4.9905,4.9905,4.9905,4.9905,4.9905,4.983,4.9707,4.9843,4.9719,4.9407,4.9407,4.9313,4.9133,4.8354,4.7906,4.7762,0.0,0.0,0.0,0.0,0.0,0.0,0.0,0.0,0.0,5.2738,5.3357,5.3996,5.3662,5.3911,5.4246,5.3999,5.4044,5.4125,5.3981,5.3879,5.3952,5.4509,5.4639,5.5047,5.6459,5.7146,5.7666,5.8242,5.8539,5.8706,5.8706,5.8706,5.8706,5.8706,5.8706,5.8675,5.8564,5.8526,5.8448,5.8301,5.8212,5.8133,5.8054,5.8054,5.8031,5.8008,5.7997,5.7997,5.7997,5.7997,5.7997,5.7997,5.7997,5.7997,5.7997,5.7997,5.7997,5.7997,5.7997,5.7997,5.7997,5.7997,5.7997,5.7997,5.7997,5.7997,5.7997,5.7997,5.7997,5.7997,5.7997,5.7997,5.7997,0.0,0.0,0.0,0.0,0.0,0.0,0.0,0.0,0.0,0.0,0.0,0.0,0.0,0.0,0.0,0.0,0.0,0.0,0.0,5.0151,5.0145,5.0018,5.0012,5.007,5.0194,5.0194,5.0095,4.9905,4.9905,4.9905,4.9905,4.9905,4.9864,4.9774,4.9871,4.979,4.9596,4.9461,4.9165,4.8744,4.7988,4.7311,4.6872,0.0,0.0,0.0,0.0,0.0,0.0,0.0,0.0,0.0,5.3281,5.3687,5.4063,5.386,5.3935,5.4054,5.3851,5.3944,5.4054,5.3851,5.3803,5.41,5.5252,5.5753,5.6273,5.7286,5.7751,5.8112,5.8613,5.8706,5.8706,5.8706,5.8656,5.8625,5.8625,5.8612,5.8558,5.8465,5.8418,5.8349,5.8208,5.8141,5.8054,5.8008,5.7997,5.7997,5.7997,5.7997,5.7997,5.7997,5.7997,5.7997,5.7997,5.7997,5.7997,5.7997,5.7997,5.7997,5.7997,5.7997,5.7997,5.7997,5.7997,5.7997,5.7997,5.7997,5.7997,5.7997,5.7997,5.7997,5.7997,5.7997,5.7997,5.7997,0.0,0.0,0.0,0.0,0.0,0.0,0.0,0.0,0.0,0.0,0.0,0.0,0.0,0.0,0.0,0.0,0.0,0.0,0.0,0.0,5.0218,5.0218,5.0236,5.0236,5.0218,5.0218,5.0126,4.9939,4.9918,4.9905,4.9905,4.9905,4.9848,4.9798,4.9874,4.9848,4.9778,4.9514,4.8938,4.8153,4.7758,4.6717,4.5666,4.7939,0.0,0.0,0.0,0.0,0.0,0.0,0.0,0.0,5.3571,5.3803,5.3803,5.3803,5.3803,5.3803,5.3803,5.3803,5.3803,5.3803,5.3914,5.4453,5.606,5.7026,5.761,5.761,5.8186,5.8706,5.8706,5.8687,5.8677,5.8677,5.8564,5.8489,5.8489,5.844,5.8393,5.8393,5.8382,5.8338,5.8208,5.8186,5.8141,5.8008,5.7997,5.7997,5.7997,5.7997,5.7997,5.7997,5.7997,5.7997,5.7997,5.7997,5.7997,5.7997,5.7997,5.7997,5.7997,5.7997,5.7997,5.7997,5.7997,5.7997,5.7997,5.7997,5.7997,5.7997,5.7997,5.7997,5.7997,5.7997,5.7997,5.7997,0.0,0.0,0.0,0.0,0.0,0.0,0.0,0.0,0.0,0.0,0.0,0.0,0.0,0.0,0.0,0.0,0.0,0.0,0.0,0.0,5.0369,5.0369,5.0516,5.0521,5.0355,5.0369,5.0279,5.0132,4.9973,4.9905,4.9905,4.9905,4.9564,4.9002,4.9621,4.9551,4.8982,4.9269,4.8938,4.8115,4.7143,4.655,4.6397,4.7743,4.881,0.0,0.0,0.0,0.0,0.0,0.0,0.0,5.3757,5.3803,5.3803,5.3803,5.3803,5.3803,5.3803,5.3803,5.3803,5.3803,5.4787,5.6023,5.7026,5.7852,5.8427,5.8427,5.8576,5.8706,5.8706,5.8614,5.8543,5.8543,5.8465,5.8418,5.8418,5.8415,5.8393,5.8393,5.8316,5.8231,5.8208,5.8099,5.8031,5.8008,5.7997,5.7997,5.7997,5.7997,5.7997,5.7997,5.7997,5.7997,5.7997,5.7997,5.7997,5.7997,5.7997,5.7997,5.7997,5.7997,5.7997,5.7997,5.7997,5.7997,5.7997,5.7997,5.7997,5.7997,5.7997,5.7997,5.7997,5.7997,5.7997,5.7997,0.0,0.0,0.0,0.0,0.0,0.0,0.0,0.0,0.0,0.0,0.0,0.0,0.0,0.0,0.0,0.0,0.0,0.0,0.0,0.0,5.0441,5.0537,5.0705,5.0663,5.0409,5.0404,5.0296,5.005,4.994,4.9905,4.9905,4.9905,4.9684,4.9279,4.9722,4.9665,4.9278,4.9363,4.8938,4.8134,4.7385,4.707,4.7225,4.8553,4.9752,5.096,5.275,0.0,0.0,0.0,0.0,0.0,0.0,0.0,5.3803,5.3803,5.3803,5.3803,5.3803,5.3803,5.3877,5.4286,5.5354,5.6506,5.7323,5.807,5.8596,5.8596,5.8656,5.8677,5.8625,5.8543,5.8489,5.8454,5.8364,5.8297,5.8297,5.8242,5.8208,5.8208,5.8152,5.8099,5.8099,5.8031,5.7997,5.7997,5.7997,5.7997,5.7997,5.7997,5.7997,5.7997,5.7997,5.7997,5.7997,5.7997,5.7997,5.7997,5.7997,5.7997,5.7997,5.7997,5.7997,5.7997,5.7997,5.7997,5.7997,5.7997,5.7997,5.7997,5.7997,5.7997,5.7997,5.7997,5.7997,5.7997,0.0,0.0,0.0,0.0,0.0,0.0,0.0,0.0,0.0,0.0,0.0,0.0,0.0,0.0,0.0,0.0,0.0,0.0,0.0,0.0,0.0,5.0729,5.0841,5.0739,5.0409,5.0404,5.0231,4.9905,4.9926,4.9864,4.9731,4.9849,4.983,4.9731,4.9849,4.981,4.9683,4.955,4.8987,4.8198,4.8044,4.7955,4.8091,4.9707,5.0859,5.1806,5.3274,5.3803,5.3803,5.3803,0.0,0.0,0.0,0.0,5.3803,5.3803,5.3803,5.3803,5.3803,5.3793,5.4007,5.4944,5.5713,5.6483,5.7448,5.8079,5.8479,5.8479,5.8572,5.8604,5.8489,5.8457,5.8432,5.8364,5.8242,5.8163,5.8163,5.8065,5.7997,5.7997,5.7997,5.7997,5.7997,5.7997,5.7997,5.7997,5.7997,5.7997,5.7997,5.7997,5.7997,5.7997,5.7997,5.7997,5.7997,5.7997,5.7997,5.7997,5.7997,5.7997,5.7997,5.7997,5.7997,5.7997,5.7997,5.7997,5.7997,5.7997,5.7997,5.7997,5.7997,5.7997,5.7997,5.7997,5.7997,5.7997,0.0,0.0,0.0,0.0,0.0,0.0,0.0,0.0,0.0,0.0,0.0,0.0,0.0,0.0,0.0,0.0,0.0,0.0,0.0,0.0,0.0,5.0874,5.089,5.0739,5.0409,5.0404,5.0231,4.9905,5.007,4.977,4.9047,4.9624,4.9587,4.9065,4.9643,4.9514,4.89,4.9565,4.9204,4.8258,4.8901,4.899,4.8919,5.0599,5.1732,5.2568,5.3469,5.3803,5.3803,5.3803,5.3803,0.0,0.0,0.0,5.3803,5.3803,5.3803,5.3803,5.3803,5.3764,5.4075,5.5576,5.5949,5.6356,5.7919,5.8352,5.8415,5.8415,5.8426,5.8437,5.8426,5.832,5.8242,5.8231,5.8099,5.8031,5.8031,5.8008,5.7997,5.7997,5.7997,5.7997,5.7997,5.7997,5.7997,5.7997,5.7997,5.7997,5.7997,5.7997,5.7997,5.7997,5.7997,5.7997,5.7997,5.7997,5.7997,5.7997,5.7997,5.7997,5.7997,5.7997,5.7997,5.7997,5.7997,5.7997,5.7997,5.7997,5.7997,5.7997,5.7997,5.7997,5.7997,5.7997,5.7997,5.7997,0.0,0.0,0.0,0.0,0.0,0.0,0.0,0.0,0.0,0.0,0.0,0.0,0.0,0.0,0.0,0.0,0.0,0.0,0.0,0.0,0.0,5.0898,5.0898,5.0739,5.0409,5.0512,5.0396,5.0063,5.024,4.9918,4.9174,4.9284,4.8946,4.8237,4.8422,4.8378,4.8156,4.8239,4.8546,4.8994,4.9091,4.9862,5.1045,5.1788,5.2568,5.333,5.3673,5.3803,5.3803,5.3803,5.3803,5.3803,5.3803,0.0,0.0,0.0,5.3765,5.3725,5.3658,5.4,5.4638,5.5714,5.6272,5.6886,5.8116,5.8338,5.8294,5.8294,5.8231,5.8197,5.8264,5.8231,5.8174,5.8088,5.8031,5.7997,5.7997,5.7997,5.7997,5.7997,5.7997,5.7997,5.7997,5.7997,5.7997,5.7997,5.7997,5.7997,5.7997,5.7997,5.7997,5.7997,5.7997,5.7997,5.7997,5.7997,5.7997,5.7997,5.7997,5.7997,5.7997,5.7997,5.7997,5.7997,5.7997,5.7997,5.7997,5.7997,5.7997,5.7997,5.7997,5.7997,5.7997,5.7997,5.7997,5.7997,0.0,0.0,0.0,0.0,0.0,0.0,0.0,0.0,0.0,0.0,0.0,0.0,0.0,0.0,0.0,0.0,0.0,0.0,0.0,0.0,0.0,5.0898,5.087,5.0736,5.0472,5.0562,5.0506,5.0246,5.0402,4.999,4.905,4.8785,4.811,4.7177,4.7374,4.7553,4.7705,4.7825,4.8541,4.9631,4.9926,5.1057,5.2624,5.2828,5.3283,5.3803,5.3803,5.3803,5.3803,5.3803,5.3803,5.3803,5.3803,5.3803,0.0,0.0,0.0,5.3673,5.3778,5.4287,5.501,5.5961,5.6619,5.7243,5.8102,5.8219,5.8152,5.8152,5.8065,5.8031,5.8141,5.8152,5.8129,5.802,5.7997,5.7997,5.7997,5.7997,5.7997,5.7997,5.7997,5.7997,5.7997,5.7997,5.7997,5.7997,5.7997,5.7997,5.7997,5.7997,5.7997,5.7997,5.7997,5.7997,5.7997,5.7997,5.7997,5.7997,5.7997,5.7997,5.7997,5.7997,5.7997,5.7997,5.7997,5.7997,5.7997,5.7997,5.7997,5.7997,5.7997,5.7997,5.7997,5.7997,5.7997,5.7997,0.0,0.0,0.0,0.0,0.0,0.0,0.0,0.0,0.0,0.0,0.0,0.0,0.0,5.0898,5.0898,5.0898,0.0,0.0,0.0,0.0,0.0,5.0898,5.0782,0.0,5.0687,5.0512,5.0409,5.0388,5.0591,4.9821,4.8164,4.8025,4.7146,4.5779,4.7097,4.7697,4.781,4.9499,4.9979,4.9811,5.2202,5.293,5.2679,5.346,5.3766,5.3803,5.3803,5.3803,5.3803,5.3803,5.3803,5.3803,5.3803,5.3803,5.3784,0.0,0.0,0.0,5.4431,5.458,5.4912,5.6551,5.6886,5.7035,5.7836,5.802,5.8008,5.8008,5.8008,5.8008,5.8008,5.8008,5.8008,5.7997,5.7997,5.7997,5.7997,5.7997,5.7997,5.7997,5.7997,5.7997,5.7997,5.7997,5.7997,5.7997,5.7997,5.7997,5.7997,5.7997,5.7997,5.7997,5.7997,5.7997,5.7997,5.7997,5.7997,5.7997,5.7997,5.7997,5.7997,5.7997,5.7997,5.7997,5.7997,5.7997,5.7997,5.7997,5.7997,5.7997,5.7997,5.7997,5.7997,5.7997,5.7997,5.7997,0.0,0.0,0.0,0.0,0.0,0.0,0.0,0.0,0.0,0.0,0.0,0.0,0.0,5.0933,5.0898,5.0898,5.0898,0.0,0.0,0.0,0.0,5.0898,5.0858,5.0791,5.0701,5.0718,5.0676,5.0596,5.0745,5.0188,4.892,4.8364,4.7433,4.6234,4.6134,4.674,4.7859,4.8291,4.953,5.1262,5.1949,5.2706,5.3394,5.3701,5.3803,5.3803,5.3803,5.3803,5.3803,5.3803,5.3803,5.3803,5.3803,5.3803,5.3774,5.3627,5.3539,5.3654,5.432,5.4906,5.5569,5.6606,5.7212,5.7648,5.7923,5.7997,5.7997,5.7997,5.7997,5.7997,5.7997,5.7997,5.7997,5.7997,5.7997,5.7997,5.7997,5.7997,5.7997,5.7997,5.7997,5.7997,5.7997,5.7997,5.7997,5.7997,5.7997,5.7997,5.7997,5.7997,5.7997,5.7997,5.7997,5.7997,5.7997,5.7997,5.7997,5.7997,5.7997,5.7997,5.7997,5.7997,5.7997,5.8033,5.8535,5.8492,5.7997,5.7997,5.7997,5.7997,5.7997,5.7997,5.7997,5.7997,5.7997,5.7997,0.0,0.0,0.0,0.0,0.0,0.0,0.0,0.0,0.0,0.0,0.0,0.0,0.0,0.0,5.0951,5.0944,5.0917,5.0898,5.0898,5.0898,5.0898,5.0898,5.0858,5.0816,5.0769,5.0812,5.0816,5.0769,5.0858,5.0414,4.9476,4.8613,4.7698,4.675,4.6378,4.685,4.7938,4.8575,5.0106,5.2122,5.2423,5.3048,5.3803,5.3803,5.3803,5.3803,5.3803,5.3803,5.3803,5.3803,5.3803,5.3803,5.3803,5.3746,5.3659,5.3549,5.3449,5.3541,5.4222,5.5059,5.5901,5.6613,5.7409,5.7997,5.7997,5.7997,5.7997,5.7997,5.7997,5.7997,5.7997,5.7997,5.7997,5.7997,5.7997,5.7997,5.7997,5.7997,5.7997,5.7997,5.7997,5.7997,5.7997,5.7997,5.7997,5.7997,5.7997,5.7997,5.7997,5.7997,5.7997,5.7997,5.7997,5.7997,5.7997,5.7997,5.7997,5.7997,5.7997,5.8143,5.84,5.84,5.8547,5.8841,5.9361,5.9141,5.8419,5.8694,5.8804,5.8804,5.8804,5.8639,5.84,5.84,5.8235,5.7997,0.0,0.0,0.0,0.0,0.0,0.0,0.0,0.0,0.0,5.1108,0.0,0.0,0.0,0.0,0.0,5.1007,5.0948,5.0902,5.0898,5.0898,5.0898,5.0898,0.0,0.0,5.0898,5.0773,5.0773,5.0898,5.0898,5.0492,4.9715,4.8675,4.7834,4.7204,4.7922,4.8159,4.8184,5.0684,5.1898,5.2311,5.3789,5.4163,5.3803,5.3803,5.3803,5.3803,5.3803,5.3803,5.3803,5.3803,5.3803,5.3803,5.3803,5.3649,5.3509,5.3509,5.3365,5.3379,0.0,0.0,0.0,5.659,5.7409,5.7997,5.7997,5.7997,5.7997,5.7997,5.7997,5.7997,5.7997,5.7997,5.7997,5.7997,5.7997,5.7997,5.7997,5.7997,5.7997,5.7997,5.7997,5.7997,5.7997,5.7997,5.7997,5.7997,5.7997,5.7997,5.7997,5.7997,5.7997,5.7997,5.7997,5.7997,5.7997,5.7997,5.7997,5.8033,5.8033,5.8455,5.9251,5.9251,5.9655,6.0401,6.0438,5.9985,5.9325,6.0095,6.0401,6.0401,6.0401,5.9912,5.9251,5.9251,5.8737,5.807,0.0,0.0,0.0,0.0,0.0,0.0,0.0,0.0,5.1243,0.0,0.0,0.0,5.1166,5.1128,5.1075,5.1007,5.0979,5.0943,5.0902,5.0898,5.0898,5.0898,5.0866,5.0862,5.0898,5.0866,5.0866,5.0898,5.0898,5.0738,5.0394,4.899,4.8484,4.8774,4.9125,4.9786,5.0722,5.2031,5.3033,5.3789,5.4228,5.4163,5.3803,5.3803,5.3803,5.3803,5.3803,5.3803,5.3803,5.3803,5.3803,5.3803,5.3803,5.3735,5.3636,5.3529,5.338,5.3429,5.4182,0.0,0.0,0.0,0.0,0.0,5.7997,5.7997,5.7997,5.7997,5.7997,5.7997,5.7997,5.7997,5.7997,5.7997,5.7997,5.7997,5.7997,5.7997,5.7997,5.7997,5.7997,5.7997,5.7997,5.7997,5.7997,5.7997,5.7997,5.7997,5.7997,5.7997,5.7997,5.7997,5.7997,5.7997,5.7997,5.7997,5.829,5.8866,5.8866,5.9288,6.0059,6.0059,6.0187,6.0438,6.1025,6.1135,6.0915,6.0548,6.0401,6.0401,6.0401,6.0272,6.0059,6.0059,5.9942,5.9648,0.0,0.0,0.0,0.0,0.0,0.0,5.056,5.1067,5.13,0.0,0.0,0.0,5.1241,5.1174,5.1125,5.109,5.1034,5.0979,5.0936,5.0917,5.0898,5.0898,5.0898,5.0898,5.0898,5.0898,5.0747,5.0399,5.0399,5.0166,4.9729,4.8821,4.8798,4.9556,5.0372,5.1287,5.228,5.3577,5.4295,5.4552,5.4354,5.4171,5.4,5.3851,5.3803,5.3803,5.3803,5.3803,5.3803,5.3803,5.3803,5.3803,5.3803,5.3725,5.3598,5.3519,5.3388,5.3353,5.3786,5.4491,5.528,5.6106,0.0,0.0,5.7923,5.7997,5.7997,5.7997,5.7997,5.7997,5.7997,5.7997,5.7997,5.7997,5.7997,5.7997,5.7997,5.7997,5.7997,5.7997,5.7997,5.7997,5.7997,5.7997,5.7997,5.7997,5.7997,5.7997,5.7997,5.7997,5.7997,5.7997,5.7997,5.7997,5.7997,5.8327,5.8737,5.9196,5.9545,6.0114,6.0896,6.0896,6.108,6.1416,6.1906,6.2108,6.2071,6.1582,6.1398,6.1398,6.1398,6.1208,6.0896,6.0896,6.0694,6.0334,0.0,0.0,0.0,4.7483,4.836,4.9216,5.0014,5.0794,5.13,0.0,5.1222,5.1164,5.1164,5.101,5.0923,5.0916,5.0815,5.0736,5.0729,5.0751,5.0763,5.0763,5.0763,5.0763,5.0763,5.067,5.0264,4.9571,4.9571,4.9204,4.8546,4.8546,4.9045,5.0028,5.1525,5.2515,5.3176,5.4895,5.5316,5.478,5.434,5.4213,5.4264,5.3926,5.3803,5.3803,5.3803,5.3803,5.3803,5.3803,5.3803,5.3803,5.3803,5.3678,5.3519,5.3509,5.3347,5.3217,5.3196,5.3783,5.4583,5.5401,5.6198,0.0,5.7813,5.7997,5.7997,5.7997,5.7997,5.7997,5.7997,5.7997,5.7997,5.7997,5.7997,5.7997,5.7997,5.7997,5.7997,5.7997,5.7997,5.7997,5.7997,5.7997,5.7997,5.7997,5.7997,5.7997,5.7997,5.7997,5.7997,5.7997,5.7997,5.8033,5.8125,5.8847,5.9288,5.949,6.0187,6.0951,6.1722,6.1722,6.2126,6.2793,6.2793,6.2793,6.2793,6.2793,6.2793,6.2793,6.2793,6.2352,6.1722,6.1722,6.1282,6.0658,0.0,0.0,4.7522,4.8399,4.9216,5.0053,5.093,5.1183,5.13,5.13,5.0696,5.0248,5.0248,4.9656,4.9246,4.9187,4.9107,4.9044,4.8987,4.9574,4.9935,4.9935,4.9935,4.9935,4.9935,4.9243,4.8817,4.8643,4.8643,4.8933,4.9455,4.9455,5.0229,5.1646,5.2035,5.2903,5.4122,5.4345,5.4668,5.5019,5.4659,5.4425,5.4264,5.3926,5.3803,5.3803,5.3803,5.3803,5.3803,5.3803,5.3803,5.3803,5.3803,5.3735,5.3646,5.3529,5.3408,5.3274,5.3217,5.3783,5.4583,5.5401,5.6198,0.0,5.7813,5.7997,5.7997,5.7997,5.7997,5.7997,5.7997,5.7997,5.7997,5.7997,5.7997,5.7997,5.7997,5.7997,5.7997,5.7997,5.7997,5.7997,5.7997,5.7997,5.7997,5.7997,5.7997,5.7997,5.7997,5.7997,5.7997,5.7997,5.7997,5.8309,5.8958,5.9123,5.9857,6.1135,6.1282,6.1796,6.2572,6.2572,6.2646,6.2793,6.2793,6.2793,6.2793,6.2793,6.2793,6.2793,6.2793,6.2701,6.2572,6.2572,6.2462,6.2242,4.6762,4.7191,4.7776,4.8652,4.9138,4.9547,4.9995,5.0053,5.0209,5.0599,5.0657,5.0657,5.0657,5.0287,5.0191,5.0566,5.0531,5.0645,5.1023,5.1393,5.1409,5.0964,5.0945,5.0732,5.0302,4.9877,4.9451,4.9049,4.9049,4.9262,4.9703,5.0109,5.1097,5.2526,5.313,5.3923,5.48,5.4938,5.5044,5.5055,5.4628,5.4395,5.4264,5.3926,5.3803,5.3803,5.3803,5.3803,5.3803,5.3803,5.3803,5.3803,5.3803,5.3754,5.3666,5.3539,5.34,5.3287,5.3227,5.3489,5.4087,5.531,5.5886,0.0,0.0,5.7997,5.7997,5.7997,5.7997,5.7997,5.7997,5.7997,5.7997,5.7997,5.7997,5.7997,5.7997,5.7997,5.7997,5.7997,5.7997,5.7997,5.7997,5.7997,5.7997,5.7997,5.7997,5.7997,5.7997,5.7997,5.7997,5.7997,5.84,5.8792,5.9196,6.0003,6.0805,6.1606,6.2016,6.2407,6.2793,6.2793,6.2793,6.2793,6.2793,6.2793,6.2793,6.2793,6.2793,6.2793,6.2793,6.2793,6.2793,6.2793,6.2793,6.2738,4.7366,4.7639,4.7971,4.867,4.8806,4.8845,4.9001,4.9021,4.9313,5.0131,5.0852,5.1296,5.1286,5.1286,5.1479,5.1949,5.2066,5.2337,5.2845,5.312,5.2941,5.2225,5.2206,5.1877,5.1173,5.0999,5.0573,4.9935,4.9935,5.0012,5.021,5.1025,5.2052,5.3271,5.4149,5.4715,5.5081,5.5418,5.5263,5.4785,5.4505,5.4347,5.4264,5.3926,5.3803,5.3803,5.3803,5.3803,5.3803,5.3803,5.3803,5.3803,5.3803,5.3754,5.3675,5.3578,5.343,5.3318,5.3241,5.3338,5.3797,5.5236,5.5713,5.6209,0.0,0.0,0.0,5.7997,5.7997,5.7997,5.7997,5.7997,5.7941,5.7795,5.7905,5.7941,5.7795,5.7905,5.7997,5.7997,5.7997,5.7997,5.7997,5.7997,5.7997,5.7997,5.7997,5.7997,5.7997,5.7997,5.807,5.8235,5.8866,5.9361,5.9655,6.0951,6.1679,6.1832,6.2481,6.2793,6.2793,6.2793,6.2793,6.2793,6.2793,6.2793,6.2793,6.2793,6.2793,6.2793,6.2793,6.2793,6.2793,6.2793,6.2793,6.2793,4.7483,4.8126,4.867,4.8787,4.8806,4.904,4.9742,0.0,5.017,5.1047,5.1242,5.1282,5.1215,5.1211,5.0916,5.0173,5.0749,5.0903,5.0276,5.1567,5.2302,5.2206,5.2206,5.2148,5.2051,5.1308,5.0859,5.0763,5.0763,5.1153,5.1935,5.2801,5.3627,5.44,5.4294,5.4369,5.4575,5.4377,5.4098,5.3829,5.4477,5.4568,5.4264,5.3926,5.3803,5.3803,5.3803,5.3803,5.3803,5.3803,5.3803,5.3803,5.3803,5.3754,5.3704,5.3675,5.3578,5.344,5.3318,5.3813,5.4546,5.5387,5.6143,5.6895,5.7795,0.0,5.7997,5.7997,0.0,5.7997,5.7997,0.0,0.0,5.706,5.7538,5.7758,5.7031,5.7556,5.7997,5.7997,5.7997,5.7997,5.7997,5.7997,5.7997,5.7997,5.7997,5.7997,5.7997,5.7997,5.8327,5.9049,5.9159,5.9875,6.13,6.1502,6.1961,6.2664,6.2756,6.2793,6.2793,6.2793,6.2793,6.2793,6.2793,6.2793,6.2793,6.2793,6.2793,6.2793,6.2793,6.2793,6.2793,6.2793,6.2793,6.2793,4.8165,4.8146,4.836,4.9333,4.9118,4.906,4.9878,5.0424,5.1067,5.1941,5.2487,5.279,5.2771,5.2769,5.2775,5.2814,5.3133,5.3332,5.3391,5.4036,5.4194,5.3734,5.3714,5.3463,5.2979,5.2608,5.2414,5.2414,5.2414,5.2859,5.371,5.4033,5.4264,5.4381,5.4701,5.4544,5.4069,5.4574,5.4505,5.4117,5.4602,5.4479,5.3981,5.3851,5.3803,5.3803,5.3803,5.3803,5.3803,5.3803,5.3803,5.3803,5.3803,5.3774,5.3745,5.3705,5.3656,5.366,5.393,5.4239,5.4777,5.6011,5.6535,5.7012,5.7813,5.7997,5.7997,5.7997,0.0,0.0,0.0,0.0,0.0,0.0,5.7776,5.7886,5.7538,5.7795,5.7997,5.7997,5.7997,5.7997,5.7997,5.7997,5.7997,5.7997,5.7997,5.7997,5.7997,5.7997,5.8364,5.9178,5.9655,6.0438,6.1575,6.2053,6.2462,6.2793,6.2793,6.2793,6.2793,6.2793,6.2793,6.2793,6.2793,6.2793,6.2793,6.2793,6.2793,6.2793,6.2793,6.2793,6.2793,6.2793,6.2793,6.2793,4.9001,4.8438,4.8302,4.9742,4.9333,4.9157,5.0209,5.13,5.2234,5.2877,5.3714,5.4256,5.4223,5.4404,5.4649,5.4951,5.5154,5.5385,5.5649,5.5872,5.5737,5.5142,5.5122,5.4832,5.4194,5.4194,5.4194,5.4194,5.4194,5.4407,5.4793,5.4991,5.4675,5.4019,5.4839,5.4537,5.3517,5.4587,5.464,5.4048,5.4497,5.4323,5.3803,5.3803,5.3803,5.3803,5.3803,5.3803,5.3803,5.3803,5.3803,5.3803,5.3803,5.3803,5.3831,5.4013,5.4068,5.4195,5.4771,5.5067,5.5483,5.6577,5.698,5.7281,5.7868,5.7997,5.7997,5.7997,5.7997,0.0,0.0,0.0,5.7923,5.7703,0.0,5.7923,5.7703,5.785,5.7997,5.7997,5.7997,5.7997,5.7997,5.7997,5.7997,5.7997,5.7997,5.7997,5.7997,5.7997,5.8474,5.9508,6.0095,6.0896,6.1924,6.2499,6.2793,6.2793,6.2793,6.2793,6.2793,6.2793,6.2793,6.2793,6.2793,6.2793,6.2793,6.2793,6.2793,6.2793,6.2793,6.2793,6.2793,6.2793,6.2793,6.2793,4.9956,4.9313,4.9021,4.9859,4.9333,4.9352,5.1008,5.2701,5.3831,5.3851,5.463,5.5139,5.5073,5.5696,5.5806,5.4973,5.5567,5.5649,5.489,5.5563,5.5988,5.5969,5.5969,5.595,5.5911,5.5911,5.5911,5.5911,5.5911,5.5543,5.4813,5.5582,5.5054,5.3476,5.4472,5.4128,5.288,5.3905,5.3835,5.3115,5.3977,5.4116,5.3803,5.3803,5.3803,5.3803,5.3803,5.3803,5.3803,5.3803,5.3803,5.3803,5.3803,5.3803,5.3952,5.4732,5.4955,5.5121,5.5837,5.652,5.7002,5.7004,5.747,5.796,5.7997,5.7997,5.7997,5.7997,5.7997,5.7997,5.7997,5.7997,5.7758,5.6957,5.7483,0.0,0.0,5.7519,5.7997,5.7997,5.7997,5.7997,5.7997,5.7997,5.7997,5.7997,5.7997,5.7997,5.7997,5.7997,5.8731,6.0297,6.0389,6.1159,6.2756,6.2793,6.2793,6.2793,6.2793,6.2793,6.2793,6.2793,6.2793,6.2793,6.2793,6.2793,6.2793,6.2793,6.2793,6.2793,6.2793,6.2793,6.2793,6.2793,6.2793,6.2793,5.0638,5.0638,5.0541,5.0813,5.0638,5.1222,5.3539,5.4377,5.4931,5.5424,5.5733,5.5908,5.5846,5.6055,5.6071,5.5722,5.592,5.5939,5.5606,5.5853,5.6008,5.6008,5.6008,5.6008,5.6008,5.6008,5.6008,5.6008,5.6008,5.5582,5.4813,5.5084,5.4572,5.3475,5.391,5.3839,5.3447,5.4045,5.3991,5.3553,5.386,5.3907,5.3803,5.3803,5.3803,5.3803,5.3803,5.3803,5.3803,5.3803,5.3803,5.3877,5.4434,5.4583,5.475,5.5605,5.5856,5.6012,5.6708,5.7053,5.732,5.7689,5.7556,5.7445,5.7909,5.7593,5.7373,5.7886,5.7997,5.7997,5.7997,5.7997,5.7905,5.7648,5.7813,5.7905,0.0,5.7831,5.7997,5.7997,5.7997,5.7997,5.7997,5.7997,5.7997,5.7997,5.7997,5.7997,5.7997,5.7997,5.8749,6.0346,6.0401,6.1159,6.2774,6.2793,6.2793,6.2793,6.2793,6.2793,6.2793,6.2793,6.2793,6.2793,6.2793,6.2793,6.2793,6.2793,6.2793,6.2793,6.2793,6.2793,6.2793,6.2793,6.2793,6.2793,5.2,5.2214,5.2214,5.2214,5.2487,5.3247,5.4942,5.5416,5.5763,5.6238,5.6272,5.6244,5.6201,5.6171,5.6156,5.6106,5.6075,5.6051,5.5993,5.6008,5.6008,5.6008,5.6008,5.6008,5.6008,5.6008,5.6008,5.6008,5.6008,5.5582,5.4813,5.5084,5.4619,5.352,5.4055,5.4089,5.3726,5.4126,5.4107,5.3803,5.3803,5.3803,5.3803,5.3803,5.3803,5.3803,5.3803,5.3803,5.3803,5.3803,5.3989,5.4323,5.4843,5.5215,5.5633,5.6487,5.6729,5.6876,5.7602,5.7754,5.782,5.8216,5.791,5.7604,5.7978,5.7679,5.7418,5.7898,5.7997,5.7997,5.7997,5.7997,5.7997,5.7997,5.7997,5.7997,0.0,5.7997,5.7997,5.7997,5.7997,5.7997,5.7997,5.7997,5.7997,5.7997,5.7997,5.7997,5.7997,5.7997,5.8749,6.0346,6.0401,6.1159,6.2774,6.2793,6.2793,6.2793,6.2793,6.2793,6.2793,6.2793,6.2793,6.2793,6.2793,6.2793,6.2793,6.2793,6.2793,6.2793,6.2793,6.2793,6.2793,6.2793,6.2793,6.2793,5.3968,5.4007,5.4026,5.4026,5.4708,5.5253,5.5253,5.5857,5.6308,5.6306,5.6232,5.6188,5.6185,5.6119,5.6094,5.6094,5.6039,5.6008,5.6008,5.6008,5.6008,5.6008,5.6008,5.6008,5.6008,5.6008,5.6008,5.6008,5.6008,5.5582,5.4813,5.5582,5.5084,5.3625,5.4811,5.4765,5.381,5.4153,5.4107,5.3803,5.3803,5.3803,5.3803,5.3803,5.3803,5.3803,5.3803,5.3803,5.3813,5.384,5.436,5.501,5.5103,5.5689,5.6525,5.7323,5.7555,5.7722,5.8483,5.8614,5.8511,5.85,5.8425,5.8316,5.8231,5.8171,5.8119,5.8031,5.8008,5.7997,5.7997,5.7997,5.7997,5.7997,5.7997,5.7997,5.7997,5.7997,5.7997,5.7997,5.7997,5.7997,5.7997,5.7997,5.7997,5.7997,5.7997,5.7997,5.7997,5.7997,5.8749,6.0346,6.0401,6.1159,6.2774,6.2793,6.2793,6.2793,6.2793,6.2793,6.2793,6.2793,6.2793,6.2793,6.2793,6.2793,6.2793,6.2793,6.2793,6.2793,6.2793,6.2793,6.2793,6.2793,6.2793,6.2793,5.4747,5.5392,5.5823,5.5823,5.6018,5.6173,5.6173,5.6249,5.6275,5.6229,5.6181,5.6109,5.6067,5.6039,5.6022,5.6022,5.6001,5.6008,5.6008,5.6008,5.6008,5.6008,5.6008,5.6008,5.6008,5.6008,5.6008,5.6008,5.6008,5.5582,5.4793,5.5006,5.4871,5.4471,5.4446,5.4633,5.4937,5.4491,5.4107,5.3803,5.3803,5.3803,5.3803,5.3803,5.3803,5.3803,5.3803,5.3803,5.3877,5.449,5.4825,5.5215,5.6459,5.7008,5.736,5.8149,5.839,5.8427,5.8632,5.8667,5.8625,5.8521,5.8045,5.7725,5.8234,5.7822,5.7468,5.8034,5.8065,5.7997,5.7997,5.7997,5.7997,5.7997,5.7997,5.7997,5.7997,5.7997,5.7997,5.7997,5.7997,5.7997,5.7997,5.7997,5.7997,5.7997,5.7997,5.7997,5.7997,5.7997,5.8749,6.0346,6.0401,6.1159,6.2774,6.2793,6.2793,6.2793,6.2793,6.2793,6.2793,6.2793,6.2793,6.2793,6.2793,6.2793,6.2793,6.2793,6.2793,6.2793,6.2793,6.2793,6.2793,6.2793,6.2793,6.2793,5.5665,5.6154,5.6481,5.6419,5.6415,5.6415,5.6415,5.633,5.6229,5.6177,5.6098,5.6182,5.6534,5.6568,5.6723,5.7095,5.6781,5.6568,5.6568,5.6201,5.6008,5.6008,5.6008,5.6008,5.6008,5.6008,5.6008,5.6008,5.6008,5.5776,5.5316,5.5316,5.5316,5.5307,5.5011,5.4996,5.5129,5.4401,5.3972,5.3803,5.3803,5.3803,0.0,5.3803,5.4007,5.4323,5.4323,5.4323,5.4397,5.4843,5.5493,5.6255,5.7212,5.774,5.8112,5.8576,5.8706,5.8706,5.8706,5.8706,5.8677,5.8614,5.8251,5.8008,5.8362,5.8045,5.7766,5.8127,5.8141,5.8065,5.8008,5.7997,5.7997,5.7997,5.7997,5.7997,5.7997,5.7997,5.7997,5.7997,5.7997,5.7997,5.7997,5.7997,5.7997,5.7997,5.7997,5.7997,5.7997,5.7997,5.8749,6.0346,6.0401,6.1159,6.2774,6.2793,6.2793,6.2793,6.2793,6.2793,6.2793,6.2793,6.2793,6.2793,6.2793,6.2793,6.2793,6.2793,6.2793,6.2793,6.2793,6.2793,6.2793,6.2793,6.2793,6.2793,5.6479,5.6472,5.6415,5.6308,5.63,5.6314,5.6422,5.6394,5.6332,5.6284,5.6318,5.6626,5.7381,5.7477,5.7787,5.8531,5.7907,5.7477,5.7477,5.6762,5.6298,5.6182,5.6162,5.6124,5.6008,5.6008,5.6008,5.6008,5.6008,5.6008,5.6008,5.5971,5.5962,5.5977,5.5847,5.5433,5.4788,5.4131,5.3832,5.3813,5.3914,5.3952,5.397,5.4082,5.4564,5.5159,5.5159,5.5159,5.5196,5.5289,5.6292,5.7517,5.761,5.813,5.8706,5.8706,5.8706,5.8706,5.8706,5.8706,5.8706,5.8706,5.8706,5.8667,5.8543,5.8511,5.8446,5.8286,5.8219,5.8163,5.8042,5.8008,5.7997,5.7997,5.7997,5.7997,5.7997,5.7997,5.7997,5.7997,5.7997,0.0,5.7997,5.7997,5.7997,5.7997,5.7997,5.7997,5.7997,5.7997,5.8749,6.0346,6.0401,6.1159,6.2774,6.2793,6.2793,6.2793,6.2793,6.2793,6.2793,6.2793,6.2793,6.2793,6.2793,6.2793,6.2793,6.2793,6.2793,6.2793,6.2793,6.2793,6.2793,6.2793,6.2793,6.2793,5.6354,5.6286,5.6245,5.6216,5.6213,5.6444,5.712,5.7195,5.7199,5.7164,5.7731,5.8202,5.8357,5.8376,5.8434,5.8589,5.8453,5.8376,5.8376,5.8241,5.7811,5.711,5.7071,5.6743,5.6027,5.6008,5.6008,5.6008,5.6008,5.6008,5.6008,5.589,5.5832,5.5822,5.5416,5.4931,5.4403,5.4262,5.4054,5.3859,5.4509,5.4787,5.4862,5.5586,5.5949,5.6079,5.6079,5.6079,5.6172,5.683,5.7268,5.761,5.8279,5.8595,5.8706,5.8706,5.8706,5.8706,5.8706,5.8706,5.8706,5.8706,5.8706,5.8687,5.8667,5.8574,5.8489,5.8457,5.8312,5.8197,5.8174,5.8065,5.7997,5.7997,5.7997,5.7997,5.7997,5.7997,5.7997,5.7997,5.7997,5.7997,5.7997,5.7997,5.7997,5.7997,5.7997,5.7997,5.7997,5.7997,5.8749,6.0346,6.0401,6.1159,6.2774,6.2793,6.2793,6.2793,6.2793,6.2793,6.2793,6.2793,6.2793,6.2793,6.2793,6.2793,6.2793,6.2793,6.2793,6.2793,6.2793,6.2793,6.2793,6.2793,6.2793,6.2793,5.6269,5.6586,5.6861,5.682,5.7201,5.7621,5.7965,5.8417,5.8534,5.8088,5.8364,5.8763,5.9227,5.9266,5.944,5.9861,5.9517,5.9266,5.9266,5.886,5.8415,5.7985,5.7535,5.711,5.6684,5.624,5.6008,5.6008,5.5937,5.5899,5.5895,5.5624,5.5493,5.5476,5.4966,5.4577,5.4317,5.4565,5.4578,5.449,5.5345,5.566,5.5726,5.6134,5.6562,5.6933,5.6933,5.7183,5.7546,5.7509,5.7788,5.8186,5.8576,5.8706,5.8706,5.8706,5.8706,5.8706,5.8706,5.8706,5.8706,5.8706,5.8706,5.8706,5.8706,5.8646,5.8574,5.8511,5.8414,5.8323,5.8219,5.8088,5.7997,5.7997,5.7997,5.7997,5.7997,5.7997,5.7997,5.7997,5.7997,5.7997,5.7997,5.7997,5.7997,5.7997,5.7997,5.7997,5.7997,5.7997,5.8749,6.0346,6.0401,6.1159,6.2774,6.2793,6.2793,6.2793,6.2793,6.2793,6.2793,6.2793,6.2793,6.2793,6.2793,6.2793,6.2793,6.2793,6.2793,6.2793,6.2793,6.2793,6.2793,6.2793,6.2793,6.2793,5.6463,5.7148,5.7717,5.7653,5.8222,5.872,5.8849,5.9459,5.9653,5.8976,5.9034,5.9382,6.0074,6.0151,6.0402,6.1041,6.0518,6.0151,6.0151,5.9517,5.9053,5.8879,5.8217,5.7768,5.7574,5.6723,5.6274,5.6265,5.5972,5.5837,5.5836,5.5404,5.5121,5.4952,5.4522,5.4373,5.4468,5.4829,5.5103,5.5345,5.6209,5.6562,5.658,5.6747,5.7212,5.7759,5.7759,5.8149,5.8595,5.7963,5.8186,5.8706,5.8706,5.8706,5.8706,5.8706,5.8706,5.8706,5.8706,5.8706,5.8706,5.8706,5.8706,5.8706,5.8706,5.8706,5.8667,5.8553,5.8521,5.8436,5.8242,5.8099,5.8031,5.8008,5.7997,5.7997,5.7997,5.7997,5.7997,5.7997,5.7997,5.7997,5.7997,5.7997,5.7997,5.7997,5.7997,5.7997,5.7997,5.7997,5.8749,6.0346,6.0401,6.1159,6.2774,6.2793,6.2793,6.2793,6.2793,6.2793,6.2793,6.2793,6.2793,6.2793,6.2793,6.2793,6.2793,6.2793,6.2793,6.2793,6.2793,6.2793,6.2793,6.2793,6.2793,6.2793,5.7288,5.795,5.8495,5.8486,5.8563,5.8869,5.9653,5.9846,5.9865,5.9788,6.0402,6.0905,6.0983,6.0983,6.1021,6.1099,6.1041,6.0983,6.0983,6.0905,6.0538,5.9807,5.9706,5.9285,5.8492,5.7613,5.715,5.7095,5.6344,5.5987,5.5976,5.5445,5.4845,5.4196,5.4153,5.4419,5.4938,5.4974,5.5456,5.6246,5.7063,5.7398,5.7472,5.8205,5.852,5.8595,5.8595,5.8632,5.8687,5.8613,5.8632,5.8706,5.8706,5.8706,5.8706,5.8706,5.8706,5.8706,5.8706,5.8706,5.8706,5.8706,5.8706,5.8706,5.8706,5.8706,5.8706,5.8677,5.8574,5.8436,5.8242,5.8186,5.8141,5.802,5.7997,5.7997,5.7997,5.7997,5.7997,5.7997,5.7997,5.7997,5.7997,5.7997,5.7997,5.7997,5.7997,5.7997,5.7997,5.7997,5.8749,6.0346,6.0401,6.1159,6.2774,6.2793,6.2793,6.2793,6.2793,6.2793,6.2793,6.2793,6.2793,6.2793,6.2793,6.2793,6.2793,6.2793,6.2793,6.2793,6.2793,6.2793,6.2793,6.2793,6.2793,6.2793,5.8118,5.8804,5.9382,5.9382,5.9783,6.0228,6.0576,6.0615,6.0615,6.0615,6.0905,6.1099,6.1099,6.1099,6.1099,6.1099,6.1099,6.1099,6.1099,6.1099,6.0963,6.0634,6.0151,5.9749,5.9382,5.8292,5.7706,5.7684,5.6582,5.6021,5.5918,5.5108,5.4696,5.4643,5.4643,5.506,5.5819,5.6292,5.671,5.71,5.7899,5.8223,5.826,5.8576,5.8706,5.8706,5.8706,5.8706,5.8706,5.8706,5.8706,5.8706,5.8706,5.8706,5.8706,5.8706,5.8706,5.8706,5.8706,5.8706,5.8706,5.8706,5.8706,5.8706,5.8706,5.8706,5.8706,5.8706,5.8585,5.8457,5.8342,5.8253,5.8163,5.802,5.7997,5.7997,5.7997,5.7997,5.7997,5.7997,5.7997,5.7997,5.7997,5.7997,5.7997,5.7997,5.7997,5.7997,5.7997,5.7997,5.8749,6.0346,6.0401,6.1159,6.2774,6.2793,6.2793,6.2793,6.2793,6.2793,6.2793,6.2793,6.2793,6.2793,6.2793,6.2793,6.2793,6.2793,6.2793,6.2793,6.2793,6.2793,6.2793,6.2793,6.2793,6.2793,5.8976,5.9672,6.0248,6.0248,6.0712,6.1099,6.1099,6.1099,6.1099,6.1099,6.1099,6.1099,6.1099,6.1099,6.1099,6.1099,6.1099,6.1099,6.1099,6.1099,6.1099,6.1099,6.0557,6.0243,6.0229,5.9018,5.8358,5.8322,5.7094,5.6414,5.6283,5.548,5.52,5.5382,5.5382,5.5865,5.6692,5.7268,5.7629,5.7899,5.8465,5.8706,5.8706,5.8706,5.8706,5.8706,5.8706,5.8706,5.8706,5.8706,5.8706,5.8706,5.8706,5.8706,5.8706,5.8706,5.8706,5.8706,5.8706,5.8706,5.8706,5.8706,5.8706,5.8706,5.8706,5.8706,5.8706,5.8706,5.8625,5.8529,5.8426,5.8327,5.8208,5.8031,5.7997,5.7997,5.7997,5.7997,5.7997,5.7997,5.7997,5.7997,5.7997,5.7997,5.7997,5.7997,5.7997,5.7997,5.7997,5.7997,5.8749,6.0346,6.0401,6.1159,6.2774,6.2793,6.2793,6.2793,6.2793,6.2793,6.2793,6.2793,6.2793,6.2793,6.2793,6.2793,6.2793,6.2793,6.2793,6.2793,6.2793,6.2793,6.2793,6.2793,6.2793,6.2793,5.9885,6.0538,6.1099,6.1099,6.1099,6.1099,6.1099,6.1099,6.1099,6.1099,6.1099,6.1099,6.1099,6.1099,6.1099,6.1099,6.1099,6.1099,6.1099,6.1099,6.1099,6.1099,6.1099,6.1056,6.0988,5.9873,5.9216,5.9088,5.7944,5.7358,5.7275,5.6928,5.6593,5.6283,5.6283,5.6729,5.748,5.7509,5.7963,5.8687,5.8706,5.8706,5.8706,5.8706,5.8706,5.8706,5.8706,5.8706,5.8706,5.8706,5.8706,5.8706,5.8706,5.8706,5.8706,5.8706,5.8706,5.8706,5.8706,5.8706,5.8706,5.8706,5.8706,5.8706,5.8706,5.8706,5.8706,5.8706,5.8706,5.8643,5.8437,5.8393,5.8316,5.8042,5.7997,5.7997,5.7997,5.7997,5.7997,5.7997,5.7997,5.7997,5.7997,5.7997,5.7997,5.7997,5.7997,5.7997,5.7997,5.7997,5.8749,6.0346,6.0401,6.1159,6.2774,6.2793,6.2793,6.2793,6.2793,6.2793,6.2793,6.2793,6.2793,6.2793,6.2793,6.2793,6.2793,6.2793,6.2793,6.2793,6.2793,6.2793,6.2793,6.2793,6.2793,6.2793,6.0712,6.0925,6.1099,6.1099,6.1099,6.1099,6.1099,6.1099,6.1084,6.1032,6.1027,6.1031,6.103,6.1075,6.1099,6.1099,6.1099,6.1099,6.1099,6.1099,6.1084,6.1032,6.0806,6.0656,6.0598,5.9743,5.9282,5.9235,5.8181,5.7355,5.6756,5.6547,5.6692,5.7119,5.7119,5.7555,5.8316,5.8316,5.8465,5.8706,5.8706,5.8706,5.8706,5.8706,5.8706,5.8706,5.8706,5.8706,5.8706,5.8706,5.8706,5.8706,5.8706,5.8706,5.8706,5.8706,5.8706,5.8706,5.8706,5.8706,5.8706,5.8706,5.8706,5.8706,5.8706,5.8706,5.8706,5.8706,5.8706,5.8643,5.8437,5.8393,5.8316,5.8042,5.7997,5.7997,5.7997,5.7997,5.7997,5.7997,5.7997,5.7997,5.7997,5.7997,5.7997,5.7997,5.7997,5.7997,5.7997,5.8517,5.9288,6.0382,6.0933,6.1722,6.2793,6.2793,6.2793,6.2793,6.2793,6.2793,6.2793,6.2793,6.2793,6.2793,6.2793,6.2793,6.2793,6.2793,6.2793,6.2793,6.2793,6.2793,6.2793,6.2793,6.2793,6.2793,6.1099,6.1099,6.1089,6.1075,6.1051,6.1061,6.106,6.1056,6.1046,6.1016,6.0991,6.0995,6.0997,6.0904,6.0892,6.1051,6.1056,6.1006,6.0846,6.0841,6.0768,6.0584,6.0399,6.023,6.0174,5.9595,5.9296,5.926,5.851,5.7867,5.7317,5.7235,5.7472,5.7945,5.7945,5.8223,5.8706,5.8706,5.8706,5.8706,5.8706,5.8706,5.8706,5.8706,5.8706,5.8706,5.8706,5.8706,5.8706,5.8706,5.8706,5.8706,5.8706,5.8706,5.8706,5.8706,5.8706,5.8706,5.8706,5.8706,5.8706,5.8706,5.8706,5.8706,5.8706,5.8706,5.8706,5.8706,5.8706,5.8643,5.8437,5.8393,5.8316,5.8042,5.7997,5.7997,5.7997,5.7997,5.7997,5.7997,5.7997,5.7997,5.7997,5.7997,5.7997,5.7997,5.7997,5.7997,5.7997,5.8756,5.9563,6.0382,6.1172,6.1998,6.2793,6.2793,6.2793,6.2793,6.2793,6.2793,6.2793,6.2793,6.2793,6.2793,6.2793,6.2793,6.2793,6.2793,6.2793,6.2793,6.2793,6.2793,6.2793,6.2793,6.2793,6.2793,6.1094,6.1094,6.1075,6.1007,6.0997,6.1001,6.1003,6.0992,6.1011,6.0987,6.0987,6.0987,6.0981,6.0655,6.0588,6.0941,6.096,6.0764,6.0418,6.038,6.0216,5.9897,5.9867,5.9832,5.9757,5.9437,5.9233,5.9169,5.8855,5.8706,5.8706,5.8706,5.8706,5.8706,5.8706,5.8706,5.8706,5.8706,5.8706,5.8706,5.8706,5.8706,5.8706,5.8706,5.8706,5.8706,5.8706,5.8706,5.8706,5.8706,5.8706,5.8706,5.8706,5.8706,5.8706,5.8706,5.8706,5.8706,5.8706,5.8706,5.8706,5.8706,5.8706,5.8706,5.8706,5.8706,5.8706,5.8696,5.8696,5.8633,5.8437,5.8393,5.8297,5.8054,5.8008,5.7997,5.7997,5.7997,5.7997,5.7997,5.7997,5.7997,5.7997,5.7997,5.7997,5.7997,5.7997,5.8015,5.807,5.8847,5.9636,6.0382,6.1227,6.2034,6.2793,6.2793,6.2793,6.2793,6.2793,6.2793,6.2793,6.2793,6.2793,6.2793,6.2793,6.2793,6.2793,6.2793,6.2793,6.2793,6.2793,6.2793,6.2793,6.2793,6.2793,6.2793,6.1032,6.1022,6.1021,6.1004,6.0994,6.1008,6.0992,6.0992,6.0976,6.0933,6.0927,6.0891,6.0846,6.0756,6.0744,6.0841,6.0437,6.0241,6.0393,6.0155,5.9961,5.9836,5.957,5.942,5.9341,5.9006,5.8835,5.8823,5.8739,5.8706,5.8706,5.8706,5.8706,5.8706,5.8706,5.8706,5.8706,5.8706,5.8706,5.8706,5.8706,5.8706,5.8706,5.8706,5.8706,5.8706,5.8706,5.8706,5.8706,5.8706,5.8706,5.8706,5.8706,5.8706,5.8706,5.8706,5.8706,5.8706,5.8706,5.8706,5.8706,5.8706,5.8706,5.8706,5.8706,5.8706,5.8667,5.8564,5.8543,5.8519,5.8426,5.8327,5.8231,5.8163,5.8065,5.7997,5.7997,5.7997,5.7997,5.7997,5.7997,5.7997,5.7997,5.7997,5.7997,5.7997,5.7997,5.8272,5.8884,5.9673,6.0187,6.0389,6.1783,6.2609,6.2793,6.2793,6.2793,6.2793,6.2793,6.2793,6.2793,6.2793,6.2793,6.2793,6.2793,6.2793,6.2793,6.2793,6.2793,6.2793,6.2793,6.2793,6.2793,6.2793,6.2793,6.2793,6.1016,6.1,6.0985,6.0965,6.0955,6.0944,6.0903,6.0916,6.0905,6.0858,6.0852,6.0841,6.0806,6.066,6.0635,6.0794,6.0495,6.0313,6.0359,6.017,5.9996,5.9806,5.9456,5.9242,5.9206,5.8875,5.8706,5.8706,5.8706,5.8706,5.8706,5.8706,5.8706,5.8706,5.8706,5.8706,5.8706,5.8706,5.8706,5.8706,5.8706,5.8706,5.8706,5.8706,5.8706,5.8706,5.8706,5.8706,5.8706,5.8706,5.8706,5.8706,5.8706,5.8706,5.8706,5.8706,5.8706,5.8706,5.8706,5.8706,5.8706,5.8706,5.8706,5.8706,5.8706,5.8646,5.8593,5.8521,5.8486,5.8411,5.8338,5.8242,5.8186,5.8129,5.8042,5.7997,5.7997,5.7997,5.7997,5.7997,5.7997,5.7997,5.7997,5.7997,5.7997,5.7997,5.7997,5.8345,5.9159,5.9948,6.0566,6.0933,6.215,6.2793,6.2793,6.2793,6.2793,6.2793,6.2793,6.2793,6.2793,6.2793,6.2793,6.2793,6.2793,6.2793,6.2793,6.2793,6.2793,6.2793,6.2793,6.2793,6.2793,6.2793,6.2793,6.2793,6.0992,6.0981,6.096,6.0905,6.0875,6.0846,6.074,6.0777,6.0788,6.0734,6.0763,6.0806,6.0806,6.0546,6.0482,6.0788,6.0752,6.0578,6.0251,6.0168,5.9977,5.965,5.9298,5.9112,5.9112,5.8845,5.8706,5.8706,5.8706,5.8706,5.8706,5.8706,5.8706,5.8706,5.8706,5.8706,5.8706,5.8706,5.8706,5.8706,5.8706,5.8706,5.8706,5.8706,5.8706,5.8706,5.8706,5.8706,5.8706,5.8706,5.8706,5.8706,5.8706,5.8706,5.8706,5.8706,5.8706,5.8706,5.8706,5.8706,5.8706,5.8706,5.8706,5.8687,5.8667,5.8574,5.8489,5.8457,5.8418,5.8338,5.8219,5.8186,5.8141,5.8042,5.8008,5.7997,5.7997,5.7997,5.7997,5.7997,5.7997,5.7997,5.7997,5.7997,5.7997,5.7997,5.7997,5.84,5.9325,6.0022,6.0823,6.1741,6.2444,6.2793,6.2793,6.2793,6.2793,6.2793,6.2793,6.2793,6.2793,6.2793,6.2793,6.2793,6.2793,6.2793,6.2793,6.2793,6.2793,6.2793,6.2793,6.2793,6.2793,6.2793,6.2793,6.2793,6.0933,6.0922,6.0886,6.0829,6.0818,6.0722,6.0422,6.0623,6.071,6.0415,6.0629,6.0806,6.0806,6.0746,6.074,6.08,6.054,6.0237,5.9895,5.9571,5.9215,5.8894,5.8813,5.8772,5.8772,5.8729,5.8706,5.8706,5.8706,5.8706,5.8706,5.8706,5.8706,5.8706,5.8706,5.8706,5.8706,5.8706,5.8706,5.8706,5.8706,5.8706,5.8706,5.8706,5.8706,5.8706,5.8706,5.8706,5.8706,5.8706,5.8706,5.8706,5.8706,5.8706,5.8706,5.8706,5.8706,5.8706,5.8706,5.8706,5.8706,5.8706,5.8706,5.8667,5.8553,5.8511,5.8446,5.8279,5.8242,5.8219,5.8208,5.8118,5.8054,5.8152,5.8065,5.7997,5.7997,5.7997,5.7997,5.7997,5.7997,5.7997,5.7997,5.7997,5.7997,5.7997,5.7997,5.8657,6.0132,6.0334,6.108,6.2572,6.2738,6.2793,6.2793,6.2793,6.2793,6.2793,6.2793,6.2793,6.2793,6.2793,6.2793,6.2793,6.2793,6.2793,6.2793,6.2793,6.2793,6.2793,6.2793,6.2793,6.2793,6.2793,6.2793,6.2793,6.0858,6.0846,6.0835,6.0812,6.0806,6.0746,6.0585,6.071,6.0746,6.0585,6.069,6.0734,6.0553,6.0533,6.0455,6.0272,6.0109,5.986,5.9502,5.9502,5.9441,5.9308,5.9083,5.8877,5.8698,5.8706,5.8706,5.8706,5.8706,5.8706,5.8706,5.8706,5.8706,5.8706,5.8706,5.8706,5.8706,5.8706,5.8706,5.8706,5.8706,5.8706,5.8706,5.8706,5.8706,5.8706,5.8706,5.8706,5.8706,5.8706,5.8706,5.8706,5.8706,5.8706,5.8696,5.8614,5.8646,5.8677,5.8614,5.8585,5.8582,5.8548,5.8537,5.8516,5.8462,5.8389,5.8312,5.8219,5.8133,5.8088,5.8088,5.8031,5.802,5.8077,5.8031,5.7997,5.7997,5.7997,5.7997,5.7997,5.7997,5.7997,5.7997,5.7997,5.7997,5.7997,5.84,5.9171,6.0346,6.0805,6.1594,6.2756,6.2793,6.2793,6.2793,6.2793,6.2793,6.2793,6.2793,6.2793,6.2793,6.2793,6.2793,6.2793,6.2793,6.2793,6.2793,6.2793,6.2793,6.2793,6.2793,6.2793,6.2793,6.2793,6.2793,6.2793,6.0812,6.0806,6.0788,6.071,6.0678,6.0635,6.045,6.0578,6.0654,6.0572,6.069,6.0666,6.0347,6.0293,6.0172,5.9823,5.9717,5.9528,5.9224,5.9425,5.9539,5.9539,5.9252,5.8957,5.8716,5.8706,5.8706,5.8706,5.8706,5.8706,5.8706,5.8706,5.8706,5.8706,5.8706,5.8706,5.8706,5.8706,5.8706,5.8706,5.8706,5.8706,5.8706,5.8706,5.8706,5.8706,5.8706,5.8706,5.8706,5.8706,5.8706,5.8687,5.8656,5.8646,5.8635,5.8519,5.8551,5.8612,5.8508,5.8486,5.8465,5.8415,5.8393,5.8393,5.836,5.8264,5.8197,5.8163,5.8065,5.7997,5.7997,5.7997,5.7997,5.7997,5.7997,5.7997,5.7997,5.7997,5.7997,5.7997,5.7997,5.7997,5.7997,5.7997,5.7997,5.7997,5.8756,5.9545,6.0352,6.1153,6.1961,6.2774,6.2793,6.2793,6.2793,6.2793,6.2793,6.2793,6.2793,6.2793,6.2793,6.2793,6.2793,6.2793,6.2793,6.2793,6.2793,6.2793,6.2793,6.2793,6.2793,6.2793,6.2793,6.2793,6.2793,6.2793,6.0806,6.0806,6.069,6.0395,6.0347,6.0116,5.9431,5.9896,6.023,5.9911,6.0415,6.0666,6.0347,6.0293,6.0172,5.9823,5.9459,5.9224,5.9196,5.8936,5.8791,5.8791,5.876,5.8729,5.8706,5.8706,5.8706,5.8706,5.8706,5.8706,5.8706,5.8706,5.8706,5.8706,5.8706,5.8706,5.8706,5.8706,5.8706,5.8706,5.8706,5.8706,5.8706,5.8706,5.8706,5.8706,5.8706,5.8706,5.8706,5.8706,5.8706,5.8677,5.8543,5.8511,5.8489,5.8418,5.8415,5.8415,5.8404,5.8404,5.8404,5.8404,5.8393,5.8371,5.8242,5.8208,5.8163,5.8031,5.8008,5.7997,5.7997,5.7997,5.7997,5.7997,5.7997,5.7997,5.7997,5.7997,5.7997,5.7997,5.7997,5.7997,5.7997,5.7997,5.7997,5.7997,5.8756,5.9545,6.0352,6.1153,6.1961,6.2774,6.2793,6.2793,6.2793,6.2793,6.2793,6.2793,6.2793,6.2793,6.2793,6.2793,6.2793,6.2793,6.2793,6.2793,6.2793,6.2793,6.2793,6.2793,6.2793,6.2793,6.2793,6.2793,6.2793,6.2793,6.0806,6.0806,6.0684,6.0368,6.0293,6.0216,5.9919,6.0124,6.0321,6.0415,6.0455,6.0349,6.0019,5.978,5.9475,5.9159,5.8976,5.8887,5.8887,5.8762,5.8706,5.8706,5.8706,5.8706,5.8706,5.8706,5.8706,5.8706,5.8706,5.8706,5.8706,5.8706,5.8706,5.8706,5.8706,5.8706,5.8706,5.8706,5.8706,5.8706,5.8706,5.8706,5.8706,5.8706,5.8706,5.8706,5.8706,5.8706,5.8696,5.8596,5.8582,5.8561,5.8473,5.844,5.8418,5.8297,5.8219,5.8152,5.8152,5.8208,5.8271,5.8174,5.8152,5.8141,5.8095,5.8084,5.8054,5.8008,5.7997,5.7997,5.7997,5.7997,5.7997,5.7997,5.7997,5.7997,5.7997,5.7997,5.7997,5.7997,5.7997,5.7997,5.7997,5.7997,5.7997,5.7997,5.9208,6.0077,6.0382,6.1649,6.2481,6.2793,6.2793,6.2793,6.2793,6.2793,6.2793,6.2793,6.2793,6.2793,6.2793,6.2793,6.2793,6.2793,6.2793,6.2793,6.2793,6.2793,6.2793,6.2793,6.2793,6.2793,6.2793,6.2793,6.2793,6.2793,6.0806,6.0806,6.0684,6.0368,6.0293,6.0265,6.0165,6.0237,6.0335,6.0462,6.0388,6.0124,5.9656,5.937,5.9064,5.8729,5.8706,5.8706,5.8706,5.8706,5.8706,5.8706,5.8706,5.8706,5.8706,5.8706,5.8706,5.8706,5.8706,5.8706,5.8706,5.8706,5.8706,5.8706,5.8706,5.8706,5.8706,5.8706,5.8706,5.8706,5.8706,5.8706,5.8706,5.8706,5.8706,5.8687,5.8646,5.8635,5.8625,5.8508,5.8465,5.8454,5.8353,5.8316,5.8271,5.8163,5.8065,5.7997,5.7997,5.8065,5.8129,5.802,5.7997,5.7997,5.7997,5.7997,5.7997,5.7997,5.7997,5.7997,5.7997,5.7997,5.7997,5.7997,5.7997,5.7997,5.7997,5.7997,5.7997,5.7997,5.7997,5.7997,5.7997,5.7997,5.7997,5.7997,5.9483,6.0621,6.1123,6.2205,6.2793,6.2793,6.2793,6.2793,6.2793,6.2793,6.2793,6.2793,6.2793,6.2793,6.2793,6.2793,6.2793,6.2793,6.2793,6.2793,6.2793,6.2793,6.2793,6.2793,6.2793,6.2793,6.2793,6.2793,6.2793,6.2793,6.08,6.08,6.0684,6.0368,6.0293,6.0194,5.9847,6.0098,6.0187,5.9839,6.0087,6.0015,5.9279,5.9206,5.9064,5.8729,5.8706,5.8706,5.8706,5.8706,5.8706,5.8706,5.8706,5.8706,5.8706,5.8706,5.8706,5.8706,5.8706,5.8706,5.8706,5.8706,5.8706,5.8706,5.8706,5.8706,5.8706,5.8706,5.8706,5.8706,5.8706,5.8706,5.8706,5.8706,5.8706,5.8677,5.8543,5.85,5.8479,5.8418,5.8393,5.8371,5.8231,5.8118,5.7997,5.7997,5.7997,5.7997,5.7997,5.7997,5.7997,5.7997,5.7997,5.7997,5.7997,5.7997,5.7997,5.7997,5.7997,5.7997,5.7997,5.7997,5.7997,5.7997,5.7997,5.7997,5.7997,5.7997,5.7997,5.7997,5.7997,5.7997,5.7997,5.7997,5.7997,5.7997,5.9483,6.1086,6.2719,6.2793,6.2793,6.2793,6.2793,6.2793,6.2793,6.2793,6.2793,6.2793,6.2793,6.2793,6.2793,6.2793,6.2793,6.2793,6.2793,6.2793,6.2793,6.2793,6.2793,6.2793,6.2793,6.2793,6.2793,6.2793,6.2793,6.2793,6.0507,6.0641,6.0623,6.0042,6.0131,6.0265,6.0172,6.0237,6.0265,6.0153,6.0026,5.9755,5.9242,5.8986,5.8813,5.8698,5.8706,5.8706,5.8706,5.8706,5.8706,5.8706,5.8706,5.8706,5.8706,5.8706,5.8706,5.8706,5.8706,5.8706,5.8706,5.8706,5.8706,5.8706,5.8706,5.8646,5.8553,5.8553,5.8553,5.8561,5.8505,5.8569,5.8677,5.8537,5.8526,5.8543,5.8462,5.8429,5.8407,5.8297,5.8253,5.8231,5.8088,5.8031,5.7997,5.7997,5.7997,5.7997,5.7997,5.7997,5.7997,5.7997,5.7997,5.7997,5.7997,5.7997,5.7997,5.7997,5.7997,5.7997,5.7997,5.7997,5.7997,5.7997,5.7997,5.7997,5.7997,5.7997,5.7997,5.7997,5.7997,5.7997,5.7997,5.7997,5.7997,5.7997,5.9483,6.1086,6.2719,6.2793,6.2793,6.2793,6.2793,6.2793,6.2793,6.2793,6.2793,6.2793,6.2793,6.2793,6.2793,6.2793,6.2793,6.2793,6.2793,6.2793,6.2793,6.2793,6.2793,6.2793,6.2793,6.2793,6.2793,6.2793,6.2793,6.2793,6.054,6.066,6.0666,6.0265,6.0356,6.0449,6.0314,6.0293,6.0189,5.9896,5.9698,5.9415,5.9035,5.8815,5.8706,5.8706,5.8706,5.8706,5.8706,5.8706,5.8706,5.8706,5.8706,5.8706,5.8706,5.8706,5.8706,5.8706,5.8706,5.8706,5.8706,5.8646,5.8625,5.8625,5.8601,5.8551,5.85,5.8476,5.8486,5.8489,5.8437,5.848,5.8569,5.8448,5.8437,5.8443,5.8353,5.8327,5.8305,5.8174,5.8129,5.8118,5.802,5.7997,5.7997,5.7997,5.7997,5.7997,5.7997,5.7997,5.7997,5.7997,5.7997,5.7997,5.7997,5.7997,5.7997,5.7997,5.7997,5.7997,5.7997,5.7997,5.7997,5.7997,5.7997,5.7997,5.7997,5.7997,5.7997,5.7997,5.7997,5.7997,5.7997,5.7997,5.8253,5.8896,5.985,6.1086,6.2719,6.2793,6.2793,6.2793,6.2793,6.2793,6.2793,6.2793,6.2793,6.2793,6.2793,6.2793,6.2793,6.2793,6.2793,6.2793,6.2793,6.2793,6.2793,6.2793,6.2793,6.2793,6.2793,6.2793,6.2793,6.2793,6.2793,6.2768,6.0722,6.0716,6.0716,6.0716,6.0734,6.0654,6.0361,6.0293,6.003,5.9297,5.9206,5.9074,5.8739,5.8706,5.8706,5.8706,5.8706,5.8706,5.8706,5.8706,5.8706,5.8706,5.8706,5.8706,5.8706,5.8706,5.8687,5.8677,5.8677,5.8685,5.8675,5.8561,5.8489,5.8479,5.8418,5.8429,5.8468,5.8407,5.8418,5.8468,5.8396,5.8382,5.8393,5.8371,5.8371,5.836,5.8231,5.8186,5.8163,5.8031,5.7997,5.7997,5.7997,5.7997,5.7997,5.7997,5.7997,5.7997,5.7997,5.7997,5.7997,5.7997,5.7997,5.7997,5.7997,5.7997,5.7997,5.7997,5.7997,5.7997,5.7997,5.7997,5.7997,5.7997,5.7997,5.7997,5.7997,5.7997,5.7997,5.7997,5.7997,5.7997,5.7997,5.7997,5.8676,6.0291,6.0401,6.1086,6.2719,6.2793,6.2793,6.2793,6.2793,6.2793,6.2793,6.2793,6.2793,6.2793,6.2793,6.2793,6.2793,6.2793,6.2793,6.2793,6.2793,6.2793,6.2793,6.2793,6.2793,6.2793,6.2793,6.2793,6.2793,6.2793,6.2793,6.2705,6.0064,6.0011,6.0011,6.0011,6.0237,6.0369,6.0307,6.0293,6.003,5.9297,5.9206,5.9074,5.8739,5.8706,5.8706,5.8706,5.8706,5.8706,5.8706,5.8706,5.8706,5.8706,5.8706,5.8706,5.8706,5.8706,5.8646,5.8543,5.8543,5.8519,5.8451,5.8448,5.8418,5.8418,5.8404,5.836,5.8257,5.8253,5.8253,5.8246,5.8122,5.8208,5.8371,5.8174,5.8152,5.8219,5.8088,5.8042,5.8031,5.8008,5.7997,5.7997,5.7997,5.7997,5.7997,5.7997,5.7997,5.7997,5.7997,5.7997,5.7997,5.7997,5.7997,5.7997,5.7997,5.7997,5.7997,5.7997,5.7997,5.7997,5.7997,5.7997,5.7997,5.7997,5.7997,5.7997,5.7997,5.7997,5.7997,5.7997,5.7997,5.7997,5.7997,5.7997,5.8676,6.0291,6.0401,6.1086,6.2719,6.2793,6.2793,6.2793,6.2793,6.2793,6.2793,6.2793,6.2793,6.2793,6.2793,6.2793,6.2793,6.2793,6.2793,6.2793,6.2793,6.2793,6.2793,6.2793,6.2793,6.2793,6.2793,6.2793,6.2793,6.2793,6.2793,6.2636,6.0094,6.0034,5.9981,5.9823,5.9942,6.0004,5.9801,5.9777,5.9578,5.9035,5.8957,5.8887,5.8719,5.8706,5.8706,5.8706,5.8706,5.8706,5.8706,5.8706,5.8706,5.8706,5.8635,5.8596,5.8596,5.858,5.8529,5.85,5.8465,5.8429,5.8393,5.8338,5.8297,5.8305,5.8231,5.8208,5.8197,5.8141,5.8141,5.8186,5.8042,5.8077,5.8197,5.8042,5.8042,5.8106,5.802,5.7997,5.7997,5.7997,5.7997,5.7997,5.7997,5.7997,5.7997,5.7997,5.7997,5.7997,5.7997,5.7997,5.7997,5.7997,5.7997,5.7997,5.7997,5.7997,5.7997,5.7997,5.7997,5.7997,5.7997,5.7997,5.7997,5.7997,5.7997,5.7997,5.7997,5.7997,5.7997,5.7997,5.7997,5.7997,5.7997,5.7997,5.8676,6.0291,6.0401,6.1086,6.2719,6.2793,6.2793,6.2793,6.2793,6.2793,6.2793,6.2793,6.2793,6.2793,6.2793,6.2793,6.2793,6.2793,6.2793,6.2793,6.2793,6.2793,6.2793,6.2793,6.2793,6.2793,6.2793,6.2793,6.2793,6.2793,6.261,6.2237,6.0279,6.016,6.0015,5.975,5.97,5.958,5.9242,5.9206,5.9083,5.875,5.8706,5.8706,5.8706,5.8706,5.8706,5.8706,5.8706,5.8706,5.8706,5.8706,5.8696,5.8667,5.8553,5.8489,5.8479,5.8407,5.8396,5.8446,5.8396,5.836,5.8338,5.8219,5.8163,5.8163,5.8042,5.8054,5.8163,5.8042,5.8054,5.8163,5.8042,5.7997,5.7997,5.7997,5.7997,5.7997,5.7997,5.7997,5.7997,5.7997,5.7997,5.7997,5.7997,5.7997,5.7997,5.7997,5.7997,5.7997,5.7997,5.7997,5.7997,5.7997,5.7997,5.7997,5.7997,5.7997,5.7997,5.7997,5.7997,5.7997,5.7997,5.7997,5.7997,5.7997,5.7997,5.7997,5.7997,5.7997,5.7997,5.7997,5.7997,5.7997,5.7997,5.7997,5.8676,6.0291,6.0401,6.1086,6.2719,6.2793,6.2793,6.2793,6.2793,6.2793,6.2793,6.2793,6.2793,6.2793,6.2793,6.2793,6.2793,6.2793,6.2793,6.2793,6.2793,6.2793,6.2793,6.2793,6.2793,6.2793,6.2793,6.2793,6.2798,6.2674,6.2263,6.1626,5.9926,5.9597,5.9333,5.9279,5.9289,5.9252,5.9215,5.9206,5.9083,5.875,5.8706,5.8706,5.8706,5.8706,5.8706,5.8706,5.8706,5.8706,5.8706,5.8706,5.8646,5.8532,5.8511,5.8476,5.8415,5.8286,5.8231,5.8253,5.8231,5.8174,5.8042,5.8031,5.8031,5.8031,5.8008,5.8008,5.802,5.8008,5.8008,5.802,5.8008,5.7997,5.7997,5.7997,5.7997,5.7997,5.7997,5.7997,5.7997,5.7997,5.7997,5.7997,5.7997,5.7997,5.7997,5.7997,5.7997,5.7997,5.7997,5.7997,5.7997,5.7997,5.7997,5.7997,5.7997,5.7997,5.7997,5.7997,5.7997,5.7997,5.7997,5.7997,5.7997,5.7997,5.7997,5.7997,5.7997,5.7997,5.7997,5.7997,5.7997,5.7997,5.7997,5.7997,5.8676,6.0291,6.0401,6.1086,6.2719,6.2793,6.2793,6.2793,6.2793,6.2793,6.2793,6.2793,6.2793,6.2793,6.2793,6.2793,6.2793,6.2793,6.2793,6.2793,6.2793,6.2793,6.2793,6.2793,6.2793,6.2793,6.2793,6.2793,6.273,6.221,6.1612,6.0959,5.9895,5.9667,5.9397,5.8986,5.8926,5.8926,5.8926,5.8926,5.8875,5.8719,5.8706,5.8706,5.8706,5.8706,5.8706,5.8706,5.8706,5.8706,5.8706,5.8706,5.8635,5.8511,5.8465,5.8396,5.8286,5.8163,5.8095,5.8095,5.8095,5.8054,5.7997,5.7997,5.7997,5.7997,5.7997,5.7997,5.7997,5.7997,5.7997,5.7997,5.7997,5.7997,5.7997,5.7997,5.7997,5.7997,5.7997,5.7997,5.7997,5.7997,5.7997,5.7997,5.7997,5.7997,5.7997,5.7997,5.7997,5.7997,5.7997,5.7997,5.7997,5.7997,5.7997,5.7997,5.7997,5.7997,5.7997,5.7997,5.7997,5.7997,5.7997,5.7997,5.7997,5.7997,5.7997,5.7997,5.7997,5.7997,5.7997,5.7997,5.7997,5.7997,5.7997,5.7997,5.8676,6.0291,6.0401,6.1086,6.2719,6.2793,6.2793,6.2793,6.2793,6.2793,6.2793,6.2793,6.2793,6.2811,6.2451,6.2464,6.2793,6.2793,6.2793,6.2793,6.2793,6.2793,6.2793,6.2793,6.2598,6.2308,6.2308,6.2072,6.1664,6.1068,6.0873,6.0808]}]]